[[{"header":{"parameterUnit":"m.s-1","parameterCategory":1,"la1":30.6,"la2":28.766,"lo1":-90.7593,"lo2":-88.6598,"dy":0.0162,"dx":0.0183,"nx":116,"ny":114,"refTime":"2023-10-05T06:00:00:Z","depth":0,"parameterNumber":2,"parameterNumberName":"U-component_of_WINDS"},"data":[0.0,0.0,0.0,0.0,0.0,0.0,0.0,0.0,0.0,0.0,0.0,0.0,0.0,0.0,0.0,0.0,0.0,0.0,0.0,0.0,0.0,0.0,0.0,0.0,0.0,0.0,0.0,0.0,0.0,0.0,0.0,0.0,0.0,0.0,0.0,0.0,0.0,0.0,0.0,0.0,0.0,0.0,0.0,0.0,0.0,0.0,0.0,0.0,0.0,0.0,0.0,0.0,0.0,0.0,0.0,0.0,0.0,0.0,0.0,0.0,0.0,0.0,0.0,0.0,0.0,0.0,0.0,0.0,0.0,0.0,0.0,0.0,0.0,0.0,0.0,0.0,0.0,0.0,0.0,0.0,0.0,0.0,0.0,0.0,0.0,0.0,0.0,0.0,0.0,0.0,0.0,0.0,0.0,0.0,0.0,0.0,0.0,0.0,0.0,0.0,0.0,0.0,0.0,0.0,0.0,0.0,0.0,0.0,0.0,0.0,0.0,0.0,0.0,0.0,0.0,0.0,0.0,0.0,0.0,0.0,0.0,0.0,0.0,0.0,0.0,0.0,0.0,0.0,0.0,0.0,0.0,0.0,0.0,0.0,0.0,0.0,0.0,0.0,0.0,0.0,0.0,0.0,0.0,0.0,0.0,0.0,0.0,0.0,0.0,0.0,0.0,0.0,0.0,0.0,0.0,0.0,0.0,0.0,0.0,0.0,0.0,0.0,0.0,0.0,0.0,0.0,0.0,0.0,0.0,0.0,0.0,0.0,0.0,0.0,0.0,0.0,0.0,0.0,0.0,0.0,0.0,0.0,0.0,0.0,0.0,0.0,0.0,0.0,0.0,0.0,0.0,0.0,0.0,0.0,0.0,0.0,0.0,0.0,0.0,0.0,0.0,0.0,0.0,0.0,0.0,0.0,0.0,0.0,0.0,0.0,0.0,0.0,0.0,0.0,0.0,0.0,0.0,0.0,0.0,0.0,0.0,0.0,0.0,0.0,0.0,0.0,0.0,0.0,0.0,0.0,0.0,0.0,0.0,0.0,0.0,0.0,0.0,0.0,0.0,0.0,0.0,0.0,0.0,0.0,0.0,0.0,0.0,0.0,0.0,0.0,0.0,0.0,0.0,0.0,0.0,0.0,0.0,0.0,0.0,0.0,0.0,0.0,0.0,0.0,0.0,0.0,0.0,0.0,0.0,0.0,0.0,0.0,0.0,0.0,0.0,0.0,0.0,0.0,0.0,0.0,0.0,0.0,0.0,0.0,0.0,0.0,0.0,0.0,0.0,0.0,0.0,0.0,0.0,0.0,0.0,0.0,0.0,0.0,0.0,0.0,0.0,0.0,0.0,0.0,0.0,0.0,0.0,0.0,0.0,0.0,0.0,0.0,0.0,0.0,0.0,0.0,0.0,0.0,0.0,0.0,0.0,0.0,0.0,0.0,0.0,0.0,0.0,0.0,0.0,0.0,0.0,0.0,0.0,0.0,0.0,0.0,0.0,0.0,0.0,0.0,0.0,0.0,0.0,0.0,0.0,0.0,0.0,0.0,0.0,0.0,0.0,0.0,0.0,0.0,0.0,0.0,0.0,0.0,0.0,0.0,0.0,0.0,0.0,0.0,0.0,0.0,0.0,0.0,0.0,0.0,0.0,0.0,0.0,0.0,0.0,0.0,0.0,0.0,0.0,0.0,0.0,0.0,0.0,0.0,0.0,0.0,0.0,0.0,0.0,0.0,0.0,0.0,0.0,0.0,0.0,0.0,0.0,0.0,0.0,0.0,0.0,0.0,0.0,0.0,0.0,0.0,0.0,0.0,0.0,0.0,0.0,0.0,0.0,0.0,0.0,0.0,0.0,0.0,0.0,0.0,0.0,0.0,0.0,0.0,0.0,0.0,0.0,0.0,0.0,0.0,0.0,0.0,0.0,0.0,0.0,0.0,0.0,0.0,0.0,0.0,0.0,0.0,0.0,0.0,0.0,0.0,0.0,0.0,0.0,0.0,0.0,0.0,0.0,0.0,0.0,0.0,0.0,0.0,0.0,0.0,0.0,0.0,0.0,0.0,0.0,0.0,0.0,0.0,0.0,0.0,0.0,0.0,0.0,0.0,0.0,0.0,0.0,0.0,0.0,0.0,0.0,0.0,0.0,0.0,0.0,0.0,0.0,0.0,0.0,0.0,0.0,0.0,0.0,0.0,0.0,0.0,0.0,0.0,0.0,0.0,0.0,0.0,0.0,0.0,0.0,0.0,0.0,0.0,0.0,0.0,0.0,0.0,0.0,0.0,0.0,0.0,0.0,0.0,0.0,0.0,0.0,0.0,0.0,0.0,0.0,0.0,0.0,0.0,0.0,0.0,0.0,0.0,0.0,0.0,0.0,0.0,0.0,0.0,0.0,0.0,0.0,0.0,0.0,0.0,0.0,0.0,0.0,0.0,0.0,0.0,0.0,0.0,0.0,0.0,0.0,0.0,0.0,0.0,0.0,0.0,0.0,0.0,0.0,0.0,0.0,0.0,0.0,0.0,0.0,0.0,0.0,0.0,0.0,0.0,0.0,0.0,0.0,0.0,0.0,0.0,0.0,0.0,0.0,0.0,0.0,0.0,0.0,0.0,0.0,0.0,0.0,0.0,0.0,0.0,0.0,0.0,0.0,0.0,0.0,0.0,0.0,0.0,0.0,0.0,0.0,0.0,0.0,0.0,0.0,0.0,0.0,0.0,0.0,0.0,0.0,0.0,0.0,0.0,0.0,0.0,0.0,0.0,0.0,0.0,0.0,0.0,0.0,0.0,0.0,0.0,0.0,0.0,0.0,0.0,0.0,0.0,0.0,0.0,0.0,0.0,0.0,0.0,0.0,0.0,0.0,0.0,0.0,0.0,0.0,0.0,0.0,0.0,0.0,0.0,0.0,0.0,0.0,0.0,0.0,0.0,0.0,0.0,0.0,0.0,0.0,0.0,0.0,0.0,0.0,0.0,0.0,0.0,0.0,0.0,0.0,0.0,0.0,0.0,0.0,0.0,0.0,0.0,0.0,0.0,0.0,0.0,0.0,0.0,0.0,0.0,0.0,0.0,0.0,0.0,0.0,0.0,0.0,0.0,0.0,0.0,0.0,0.0,0.0,0.0,0.0,0.0,0.0,0.0,0.0,0.0,0.0,0.0,0.0,0.0,0.0,0.0,0.0,0.0,0.0,0.0,0.0,0.0,0.0,0.0,0.0,0.0,0.0,0.0,0.0,0.0,0.0,0.0,0.0,0.0,0.0,0.0,0.0,0.0,0.0,0.0,0.0,0.0,0.0,0.0,0.0,0.0,0.0,0.0,0.0,0.0,0.0,0.0,0.0,0.0,0.0,0.0,0.0,0.0,0.0,0.0,0.0,0.0,0.0,0.0,0.0,0.0,0.0,0.0,0.0,0.0,0.0,0.0,0.0,0.0,0.0,0.0,0.0,0.0,0.0,0.0,0.0,0.0,0.0,0.0,0.0,0.0,0.0,0.0,0.0,0.0,0.0,0.0,0.0,0.0,0.0,0.0,0.0,0.0,0.0,0.0,0.0,0.0,0.0,0.0,0.0,0.0,0.0,0.0,0.0,0.0,0.0,0.0,0.0,0.0,0.0,0.0,0.0,0.0,0.0,0.0,0.0,0.0,0.0,0.0,0.0,0.0,0.0,0.0,0.0,0.0,0.0,0.0,0.0,0.0,0.0,0.0,0.0,0.0,0.0,0.0,0.0,0.0,0.0,0.0,0.0,0.0,0.0,0.0,0.0,0.0,0.0,0.0,0.0,0.0,0.0,0.0,0.0,0.0,0.0,0.0,0.0,0.0,0.0,0.0,0.0,0.0,0.0,0.0,0.0,0.0,0.0,0.0,0.0,0.0,0.0,0.0,0.0,0.0,0.0,0.0,0.0,0.0,0.0,0.0,0.0,0.0,0.0,0.0,0.0,0.0,0.0,0.0,0.0,0.0,0.0,0.0,0.0,0.0,0.0,0.0,0.0,0.0,0.0,0.0,0.0,0.0,0.0,0.0,0.0,0.0,0.0,0.0,0.0,0.0,0.0,0.0,0.0,0.0,0.0,0.0,0.0,0.0,0.0,0.0,0.0,0.0,0.0,0.0,0.0,0.0,0.0,0.0,0.0,0.0,0.0,0.0,0.0,0.0,0.0,0.0,0.0,0.0,0.0,0.0,0.0,0.0,0.0,0.0,0.0,0.0,0.0,0.0,0.0,0.0,0.0,0.0,0.0,0.0,0.0,0.0,0.0,0.0,0.0,0.0,0.0,0.0,0.0,0.0,0.0,0.0,0.0,0.0,0.0,0.0,0.0,0.0,0.0,0.0,0.0,0.0,0.0,0.0,0.0,0.0,0.0,0.0,0.0,0.0,0.0,0.0,0.0,0.0,0.0,0.0,0.0,0.0,0.0,0.0,0.0,0.0,0.0,0.0,0.0,0.0,0.0,0.0,0.0,0.0,0.0,0.0,0.0,0.0,0.0,0.0,0.0,0.0,0.0,0.0,0.0,0.0,0.0,0.0,0.0,0.0,0.0,0.0,0.0,0.0,0.0,0.0,0.0,0.0,0.0,0.0,0.0,0.0,0.0,0.0,0.0,0.0,0.0,0.0,0.0,0.0,0.0,0.0,0.0,0.0,0.0,0.0,0.0,0.0,0.0,0.0,0.0,0.0,0.0,0.0,0.0,0.0,0.0,0.0,0.0,0.0,0.0,0.0,0.0,0.0,0.0,0.0,0.0,0.0,0.0,0.0,0.0,0.0,0.0,0.0,0.0,0.0,0.0,0.0,0.0,0.0,0.0,0.0,0.0,0.0,0.0,0.0,0.0,0.0,0.0,0.0,0.0,0.0,0.0,0.0,0.0,0.0,0.0,0.0,0.0,0.0,0.0,0.0,0.0,0.0,0.0,0.0,0.0,0.0,0.0,0.0,0.0,0.0,0.0,0.0,0.0,0.0,0.0,0.0,0.0,0.0,0.0,0.0,0.0,0.0,0.0,0.0,0.0,0.0,0.0,0.0,0.0,0.0,0.0,0.0,0.0,0.0,0.0,0.0,0.0,0.0,0.0,0.0,0.0,0.0,0.0,0.0,0.0,0.0,0.0,0.0,0.0,0.0,0.0,0.0,0.0,0.0,0.0,0.0,0.0,0.0,0.0,0.0,0.0,0.0,0.0,0.0,0.0,0.0,0.0,0.0,0.0,0.0,0.0,0.0,0.0,0.0,0.0,0.0,0.0,0.0,0.0,0.0,0.0,0.0,0.0,0.0,0.0,0.0,0.0,0.0,0.0,0.0,0.0,0.0,0.0,0.0,0.0,0.0,0.0,0.0,0.0,0.0,0.0,0.0,0.0,0.0,0.0,0.0,0.0,0.0,0.0,0.0,0.0,0.0,0.0,0.0,0.0,0.0,0.0,0.0,0.0,0.0,0.0,0.0,0.0,0.0,0.0,0.0,0.0,0.0,0.0,0.0,0.0,0.0,0.0,0.0,0.0,0.0,0.0,0.0,0.0,0.0,0.0,0.0,0.0,0.0,0.0,0.0,0.0,0.0,0.0,0.0,0.0,0.0,0.0,0.0,0.0,0.0,0.0,0.0,0.0,0.0,0.0,0.0,0.0,0.0,0.0,0.0,0.0,0.0,0.0,0.0,0.0,0.0,0.0,0.0,0.0,0.0,0.0,0.0,0.0,0.0,0.0,0.0,0.0,0.0,0.0,0.0,0.0,0.0,0.0,0.0,0.0,0.0,0.0,0.0,0.0,0.0,0.0,0.0,0.0,0.0,0.0,0.0,0.0,0.0,0.0,0.0,0.0,0.0,0.0,0.0,0.0,0.0,0.0,0.0,0.0,0.0,0.0,0.0,0.0,0.0,0.0,0.0,0.0,0.0,0.0,0.0,0.0,0.0,0.0,0.0,0.0,0.0,0.0,0.0,0.0,0.0,0.0,0.0,0.0,0.0,0.0,0.0,0.0,0.0,0.0,0.0,0.0,0.0,0.0,0.0,0.0,0.0,0.0,0.0,0.0,0.0,0.0,0.0,0.0,0.0,0.0,0.0,0.0,0.0,0.0,0.0,0.0,0.0,0.0,0.0,0.0,0.0,0.0,0.0,0.2191,0.2344,0.0,0.0,0.0,0.0,0.0,0.0,0.0,0.0,0.0,0.0,0.0,0.0,0.0,0.0,0.0,0.0,0.0,0.0,0.0,0.0,0.0,0.0,0.0,0.0,0.0,0.0,0.0,0.0,0.0,0.0,0.0,0.0,0.0,0.0,0.0,0.0,0.0,-1.2127,-1.2052,-1.1925,-1.1675,-1.0236,-0.8475,-0.6464,0.0,0.0,0.0,0.0,0.0,0.0,0.0,0.0,0.0,0.0,0.0,0.0,0.0,0.0,0.0,0.0,0.0,0.0,0.0,0.0,0.0,0.0,0.0,0.0,0.0,0.0,0.0,0.0,0.0,0.0,0.0,0.0,0.0,0.0,0.0,0.0,0.0,0.0,0.0,0.0,0.0,0.0,0.0,0.0,0.0,0.0,0.0,0.0,0.0,0.0,0.0,0.0,0.0,0.0,0.0,0.0,0.0,0.0,0.0,0.0,0.0,0.0,0.0,0.0,0.0,0.0,0.0,0.0,0.0,0.0,0.1377,0.16,0.0,0.0,0.0,0.0,0.0,0.0,0.0,0.0,0.0,0.0,0.0,0.0,0.0,0.0,0.0,0.0,0.0,0.0,0.0,0.0,0.0,0.0,0.0,-1.0879,-1.0763,-1.1166,-1.1397,-1.1264,0.0,0.0,0.0,0.0,0.0,0.0,-1.3202,-1.3277,-1.3627,-1.4185,-1.4273,-1.4164,-1.3846,-1.3015,-1.1369,-0.9099,-0.7614,0.0,0.0,0.0,0.0,0.0,0.0,0.0,0.0,0.0,0.0,0.0,0.0,0.0,0.0,0.0,0.0,0.0,0.0,0.0,0.0,0.0,0.0,0.0,0.0,0.0,0.0,0.0,0.0,0.0,0.0,0.0,0.0,0.0,0.0,0.0,0.0,0.0,0.0,0.0,0.0,0.0,0.0,0.0,0.0,0.0,0.0,0.0,0.0,0.0,0.0,0.0,0.0,0.0,0.0,0.0,0.0,0.0,0.0,0.0,0.0,0.0,0.0,0.0,-0.0391,-0.0219,0.0,0.0,0.0,0.0036,0.0657,0.0831,0.0806,0.1669,0.0,0.0,0.0,0.0,0.0,0.0,0.0,0.0,0.0,0.0,0.0,0.0,0.0,0.0,0.0,0.0,0.0,0.0,0.0,-1.2753,-1.2423,-1.2319,-1.2299,-1.2383,-1.2404,-1.2744,-1.3521,0.0,0.0,0.0,0.0,0.0,-1.5135,-1.5635,-1.5963,-1.6033,-1.6574,-1.7258,-1.8052,-1.6867,-1.5938,-1.5128,-1.0496,-0.8666,-0.8947,0.0,0.0,0.0,0.0,0.0,0.0,0.0,0.0,0.0,0.0,0.0,0.0,0.0,0.0,0.0,0.0,0.0,0.0,0.0,0.0,0.0,0.0,0.0,0.0,0.0,0.0,0.0,0.0,0.0,0.0,0.0,0.0,0.0,0.0,0.0,0.0,0.0,0.0,0.0,0.0,0.0,-0.3374,-0.402,0.0,0.0,0.0,0.0,0.0,0.0,0.0,0.0,0.0,0.0,0.0,0.0,0.0,-0.3319,-0.3321,-0.3454,-0.2924,-0.1765,-0.173,-0.1118,0.0,0.0,0.0,0.0,0.012,0.0,0.0191,0.0923,0.0,0.0,0.0,0.0,0.0,0.0,0.0,0.0,0.0,0.0,0.0,0.0,0.0,0.0,0.0,0.0,0.0,0.0,0.0,0.0,0.0,-1.4381,-1.4487,-1.4718,-1.5591,-1.5654,-1.446,-1.5634,0.0,0.0,0.0,-1.5808,-1.6069,-1.6317,-1.6915,-1.7848,-1.8782,-1.9438,-1.9837,-1.9287,-1.8759,-1.8188,-1.5464,-1.283,-1.0307,-0.9045,0.0,0.0,0.0,0.0,0.0,0.0,0.0,0.0,0.0,0.0,0.0,0.0,0.0,0.0,0.0,0.0,0.0,0.0,0.0,0.0,0.0,0.0,0.0,0.0,0.0,0.0,0.0,0.0,0.0,0.0,0.0,0.0,0.0,0.0,0.0,0.0,0.0,0.0,0.0,-0.6055,-0.6198,-0.6233,-0.5777,-0.5323,0.0,0.0,0.0,0.0,0.0,0.0,0.0,0.0,0.0,-0.6438,-0.5676,-0.5277,-0.5335,-0.4971,-0.4499,-0.3882,-0.3366,-0.2417,-0.1114,-0.1103,-0.0714,0.0,0.0,0.0,0.0039,0.0778,0.0665,0.0166,0.0,0.0,0.0,0.0,0.3158,0.312,0.0,0.0,0.0,0.0,0.0,0.0,0.0,0.0,0.0,0.0,0.0,0.0,-1.6203,-1.6515,-1.6803,-1.7242,-1.8284,-1.7952,-1.5682,-1.6879,-1.6932,-1.5221,-1.6188,-1.6776,-1.6926,-1.7375,-1.8306,-1.9835,-2.084,-2.1418,-2.1677,-2.1677,-2.147,-2.1074,-2.0227,-1.7153,-1.2597,-1.1642,-1.0279,-0.8576,0.0,0.0,0.0,0.0,0.0,0.0,0.0,0.0,0.0,0.0,0.0,0.0,0.0,0.0,0.0,0.0,0.0,0.0,0.0,0.0,0.0,0.0,0.0,0.0,0.0,0.0,0.0,0.0,0.0,0.0,0.0,0.0,0.0,0.0,0.0,0.0,0.0,-0.8962,-0.9316,-0.8915,-0.9148,-0.8953,0.0,0.0,0.0,0.0,0.0,0.0,-0.9787,-0.916,-0.8891,-0.9138,-0.8048,-0.7458,-0.7458,-0.6593,-0.5935,-0.5532,-0.4864,-0.3803,-0.2509,-0.2571,-0.1994,-0.107,-0.107,-0.0862,-0.051,0.0421,0.051,0.0112,0.1202,0.1319,0.0879,0.1431,0.1629,0.1542,0.0,0.0,0.0,0.0,0.0,0.0,0.0,0.0,0.0,0.0,0.0,-1.6804,-1.7953,-1.8507,-1.9058,-1.9584,-1.9258,-1.8709,-1.8062,-1.711,-1.6532,-1.6414,-1.7027,-1.7576,-1.8103,-1.9686,-2.1043,-2.2146,-2.2694,-2.3547,-2.4593,-2.4593,-2.4723,-2.4882,-2.3742,-2.0928,-1.6953,-1.5354,-1.3483,-1.1525,-0.9869,0.0,0.0,0.0,0.0,0.0,0.0,0.0,0.0,0.0,0.0,0.0,0.0,0.0,0.0,0.0,0.0,0.0,0.0,0.0,0.0,0.0,0.0,0.0,0.0,0.0,0.0,0.0,0.0,0.0,0.0,0.0,0.0,0.0,0.0,0.0,0.0,0.0,0.0,-1.2089,-1.302,0.0,0.0,0.0,0.0,-1.1533,-1.1008,-1.0825,-1.1183,-1.1381,-1.1561,-1.1706,-1.0602,-0.9989,-0.9989,-0.8764,-0.7421,-0.5946,-0.5902,-0.5205,-0.3907,-0.4028,-0.4061,-0.401,-0.401,-0.3289,-0.1989,-0.0547,0.0042,0.0,0.0079,0.0078,0.0078,0.0078,0.0119,0.0121,0.0,0.0,0.0,0.0,0.0,0.0,0.0,0.0,-1.5613,-1.6124,-1.7024,-1.7903,-1.8632,-1.9861,-2.069,-2.0865,-2.134,-2.0774,-1.8775,-1.9008,-1.856,-1.707,-1.7591,-1.8329,-1.9208,-2.0514,-2.192,-2.3401,-2.428,-2.5285,-2.6414,-2.6414,-2.6652,-2.7038,-2.6643,-2.5133,-2.2659,-1.8529,-1.5903,-1.4238,-1.1519,-0.9604,0.0,0.0,0.0,0.0,0.0,0.0,0.0,0.0,0.0,0.0,0.0,0.0,0.0,0.0,0.0,0.0,0.0,0.0,0.0,0.0,0.0,0.0,0.0,0.0,0.0,0.0,0.0,0.0,0.0,0.0,0.0,0.0,0.0,0.0,0.0,0.0,0.0,-1.6301,-1.7507,0.0,-1.6602,-1.6327,-1.6332,-1.6564,-1.6609,-1.6534,-1.6253,-1.5708,-1.4949,-1.4056,-1.2801,-1.2108,-1.1861,-1.0399,-0.9435,-0.9006,-0.796,-0.6845,-0.5615,-0.5652,-0.52,-0.4414,-0.4414,-0.41,-0.3619,-0.3128,-0.177,0.0,0.0,0.0,0.0,0.0,0.0,0.0,0.0,0.0,0.0,0.0,0.0,0.0,0.0,-1.4603,-1.5566,-1.6629,-1.7614,-1.8628,-1.9711,-2.0999,-2.192,-2.2297,-2.2472,-2.1699,-1.9631,-1.9728,-1.9183,-1.7654,-1.8536,-1.9635,-2.0891,-2.2196,-2.3602,-2.5109,-2.6013,-2.6816,-2.757,-2.757,-2.7871,-2.8373,-2.8197,-2.7679,-2.6688,-2.2387,-1.9361,-1.7154,-1.4304,-1.2451,-1.1195,0.0,0.0,0.0,0.0,0.0,0.0,0.0,0.0,0.0,0.0,0.0,0.0,0.0,0.0,0.0,0.0,0.0,0.0,0.0,0.0,0.0,0.0,0.0,0.0,0.0,0.0,0.0,0.0,0.0,0.0,0.0,0.0,0.0,0.0,-1.8383,-1.9728,-2.0292,-2.1581,-2.1887,-2.0619,-2.0451,-2.051,-2.0702,-2.0767,-2.066,-2.0329,-1.9668,-1.8584,-1.7121,-1.5772,-1.4688,-1.3898,-1.2382,-1.1576,-1.1567,-1.0526,-0.9584,-0.8783,-0.873,-0.8011,-0.6776,-0.6685,-0.6143,-0.5243,-0.521,-0.3715,-0.1481,-0.0969,-0.0713,-0.0609,-0.019,0.0,0.0,0.0,0.0,0.0,0.0,0.0,0.0,-1.3146,-1.3813,-1.4897,-1.699,-1.784,-1.9076,-2.1225,-2.2005,-2.2799,-2.3904,-2.2472,-2.1295,-2.0742,-1.9158,-1.8254,-1.8304,-1.9887,-2.1493,-2.3145,-2.4808,-2.6189,-2.7293,-2.7846,-2.8122,-2.8122,-2.8122,-2.8423,-2.8888,-2.8398,-2.8448,-2.88,-2.6931,-2.3965,-2.0368,-1.8321,-1.6671,-1.5097,0.0,0.0,0.0,0.0,0.0,0.0,0.0,0.0,0.0,0.0,0.0,0.0,0.0,0.0,0.0,0.0,0.0,0.0,0.0,0.0,0.0,0.0,0.0,0.0,0.0,0.0,0.0,0.0,0.0,0.0,0.0,0.0,0.0,-2.0703,-2.221,-2.3482,-2.3887,-2.5059,-2.5304,-2.4082,-2.3683,-2.3572,-2.3836,-2.315,-2.2785,-2.2978,-2.2995,-2.2338,-2.0831,-1.9412,-1.7908,-1.6272,-1.4768,-1.3832,-1.3393,-1.333,-1.333,-1.3341,-1.3119,-1.2433,-1.1374,-1.1085,-0.9448,-0.6915,-0.6797,-0.5946,-0.4612,-0.2916,-0.22,-0.1913,-0.0605,-0.0101,-0.0101,0.0,0.0,0.0,0.0,0.0,0.0,-1.3213,-1.4158,-1.524,-1.6545,-1.8273,-1.9762,-2.083,-2.2488,-2.3653,-2.3979,-2.2472,-2.1446,-2.1295,-1.971,-1.9334,-2.0539,-2.1418,-2.2824,-2.4883,-2.5795,-2.6801,-2.7871,-2.8021,-2.8323,-2.8662,-2.8662,-2.9001,-2.9553,-2.9402,-2.9402,-2.9528,-2.8973,-2.7513,-2.5196,-2.1455,-1.9049,-1.744,0.0,0.0,0.0,0.0,0.0,0.0,0.0,0.0,0.0,0.0,0.0,0.0,0.0,0.0,0.0,0.0,0.0,0.0,0.0,0.0,0.0,0.0,0.0,0.0,0.0,0.0,0.0,0.0,0.0,0.0,0.0,-2.2069,-2.291,-2.291,-2.4394,-2.5879,-2.6934,-2.791,-2.8262,-2.7578,-2.74,-2.73,-2.7055,-2.6816,-2.6273,-2.5271,-2.5217,-2.4444,-2.2711,-2.2243,-2.12,-1.9436,-1.7861,-1.6537,-1.5484,-1.4265,-1.3782,-1.3871,-1.3815,-1.3623,-1.3348,-1.3223,-1.2804,-1.206,-1.1808,-1.1467,-1.0535,-0.56,-0.3606,-0.3531,-0.308,-0.2914,-0.2912,0.0,0.0,0.0,0.0,0.0,0.0,-1.3193,-1.4111,-1.5178,-1.6634,-1.8371,-1.9762,-2.0578,-2.1837,-2.2698,-2.2924,-2.1619,-2.079,-2.079,-2.0112,-2.0338,-2.1769,-2.2824,-2.428,-2.6264,-2.7092,-2.7921,-2.8825,-2.8825,-2.8976,-2.9302,-2.9302,-2.9478,-2.9804,-2.9804,-2.9804,-2.9804,-2.9804,-2.9269,-2.8183,-2.5148,-2.2731,-2.0731,-1.8654,-1.7332,-1.628,-1.4418,-1.4078,-1.413,-1.1675,0.0,0.0,0.0,0.0,0.0,0.0,0.0,0.0,0.0,0.0,0.0,0.0,0.0,0.0,0.0,0.0,0.0,0.0,0.0,0.0,0.0,0.0,0.0,0.0,-2.4306,-2.5391,-2.6113,-2.6777,-2.7656,-2.8945,-2.9375,-2.9531,-2.9453,-2.9297,-2.9082,-2.8848,-2.8652,-2.8157,-2.7303,-2.7081,-2.6281,-2.4565,-2.4511,-2.3754,-2.1994,-2.1037,-1.9814,-1.8292,-1.7345,-1.6634,-1.6124,-1.602,-1.5682,-1.5194,-1.5095,-1.4657,-1.4071,-1.379,-1.3627,-1.3108,0.0,0.0,0.0,0.0,-0.4034,-0.4058,0.0,0.0,0.0,0.0,0.0,0.0,-1.3049,-1.3665,-1.4654,-1.6757,-1.806,-1.9157,-2.0031,-2.0373,-2.0717,-2.1242,-2.0263,-1.9685,-1.9786,-2.0365,-2.127,-2.2548,-2.4123,-2.5787,-2.7419,-2.8499,-2.9277,-2.9804,-2.9804,-2.9804,-2.9804,-2.9804,-2.9804,-2.9804,-2.9804,-2.9829,-2.988,-2.988,-2.993,-2.9877,-2.8858,-2.6909,-2.4333,-2.2083,-2.084,-2.0101,-1.8397,-1.7243,-1.6333,-1.5339,0.0,0.0,0.0,0.0,0.0,0.0,0.0,0.0,0.0,0.0,0.0,0.0,0.0,0.0,0.0,0.0,0.0,0.0,0.0,0.0,0.0,0.0,0.0,0.0,-2.6606,-2.8062,-2.9548,-2.9227,-2.9223,-3.0137,-2.9941,-2.9863,-3.0234,-2.9883,-2.9704,-2.9704,-2.9238,-2.8984,-2.8984,-2.8633,0.0,0.0,0.0,-2.5661,-2.4044,-2.4044,-2.3157,-2.1415,-2.1415,-2.065,-1.9185,-1.8971,-1.8186,-1.7011,-1.677,-1.5931,-1.4664,-1.4375,-1.4138,-1.3658,-1.0547,-0.916,-0.857,-0.5775,-0.4837,-0.4834,0.0,0.0,0.0,0.0,0.0,0.0,-1.2446,-1.2765,-1.3407,-1.5058,-1.6638,-1.7531,-1.7314,-1.8503,-1.9534,-2.0087,-1.9133,-1.8882,-1.9736,-2.0365,-2.1798,-2.4199,-2.5511,-2.6917,-2.8574,-2.9277,-2.9679,-2.9804,-2.9804,-2.9804,-2.9804,-2.9804,-2.9804,-2.9804,-2.9804,-3.003,-3.0457,-3.0457,-3.0708,-3.1085,-3.0857,-2.9205,-2.6581,-2.3981,-2.2697,-2.2037,-1.9777,-1.9735,-2.0346,-1.777,-1.7225,-1.7243,-1.5018,-1.3223,0.0,0.0,0.0,0.0,0.0,0.0,0.0,0.0,0.0,0.0,0.0,0.0,0.0,0.0,0.0,0.0,0.0,0.0,0.0,-2.7276,-2.9466,-3.0826,-3.0661,-3.1515,-3.1835,-3.0897,-3.0684,-3.0664,-3.0742,-3.0351,-3.0078,-3.0078,-2.9687,-2.9453,-2.9453,-2.9375,-2.905,-2.8353,-2.8353,-2.7506,-2.5663,-2.5663,-2.4841,-2.3278,-2.3278,0.0,-2.1099,-2.104,-2.0202,-1.8861,-1.8795,-1.8654,-1.834,-1.8058,-1.6925,-1.5249,-1.3082,-1.2073,-1.175,-1.0014,-0.9328,-0.9041,0.0,0.0,0.0,0.0,0.0,0.0,-1.1984,-1.2531,-1.3325,-1.473,-1.6048,-1.688,-1.6932,-1.7702,-1.8304,-1.8581,-1.8637,-1.9222,-2.0566,-2.175,-2.3386,-2.5569,-2.6691,-2.7946,-2.9327,-2.9654,-2.9804,-2.9804,-2.9804,-2.9804,-2.9804,-2.9804,-2.993,-3.0206,-3.0206,-3.0357,-3.0633,-3.0884,-3.1009,-3.1009,-3.1009,-3.0378,-2.9147,-2.6445,-2.4775,-2.3634,-2.1829,-2.1641,-2.1951,-2.0213,-1.9697,-1.9469,-1.773,-1.6138,-1.467,0.0,0.0,0.0,0.0,0.0,0.0,0.0,0.0,0.0,0.0,0.0,0.0,0.0,0.0,-2.2611,-2.3871,0.0,-2.6674,-2.866,-3.0092,-3.1003,-3.0897,-3.1556,-3.171,-3.0995,-3.0898,-3.0898,-3.0898,-3.0684,-3.0547,-3.0547,-3.0137,-2.9883,-2.9883,-2.9687,-2.9375,-2.8926,-2.9141,-2.8694,-2.7524,-2.7524,-2.6848,-2.5557,-2.5384,-2.458,-2.332,-2.3162,-2.2227,-2.0815,-2.06,-2.0097,-1.9345,-1.9052,-1.8259,-1.7089,-1.5964,-1.4518,-1.2963,-1.2067,-1.1723,-1.1508,0.0,0.0,0.0,0.0,0.0,0.0,0.0,-1.2235,-1.3086,-1.4194,-1.5167,-1.5981,-1.6551,-1.6791,-1.6988,-1.72,-1.828,-1.9671,-2.1398,-2.302,-2.472,-2.6584,-2.767,-2.875,-2.9779,-2.9804,-2.9804,-2.9804,-2.9905,-2.9955,-2.9955,-3.0055,-3.0331,-3.0758,-3.0758,-3.0834,-3.0959,-3.1361,-3.1361,-3.1085,-3.0959,-3.111,-3.1107,-2.8375,-2.6447,-2.5062,-2.3524,-2.2652,-2.2227,-2.1973,-2.1349,-2.0507,-1.9863,-1.8701,-1.7313,-1.603,-1.5333,0.0,0.0,0.0,0.0,0.0,0.0,0.0,0.0,-2.2833,-2.3097,-2.4223,-2.4813,-2.5337,-2.6084,-2.7226,-2.8452,-2.9567,-3.0322,-3.0794,-3.0898,-3.117,-3.1228,-3.0957,-3.0898,-3.0898,-3.0898,-3.0898,-3.0898,-3.0898,-3.0547,-3.0332,-3.0332,-3.0019,-2.9629,-2.918,-2.9512,-2.9492,-2.9043,-2.9043,-2.859,-2.7767,-2.7436,-2.6647,-2.5534,-2.5104,-2.391,-2.2165,-2.1449,-2.0472,-1.9403,-1.9105,-1.8838,-1.8557,-1.8262,-1.6587,-1.4213,-1.353,-1.3341,-1.3215,0.0,0.0,0.0,0.0,0.0,0.0,0.0,0.0,-1.1387,-1.198,-1.2893,-1.3542,-1.3721,-1.4564,-1.5499,-1.6507,-1.7645,-1.9207,-2.137,-2.2581,-2.4394,-2.7102,-2.8247,-2.9126,-2.9779,-2.9804,-2.9804,-2.9804,-3.0281,-3.0532,-3.0532,-3.1009,-3.1235,-3.1311,-3.1311,-3.1587,-3.2039,-3.2089,-3.239,-3.2742,-3.224,-3.1763,-3.1107,-2.8375,-2.7178,-2.6641,-2.3647,-2.2029,-2.1385,-2.1777,-2.1349,-2.0664,-2.0918,-2.0333,-1.9343,-1.8061,-1.6831,-1.6065,-1.6664,-1.8255,-2.026,-2.246,-2.2764,-2.3815,0.0,-2.8864,-2.821,-2.9704,-2.9861,-2.9384,-2.8232,-2.875,-2.9531,-3.0039,-3.1592,-3.2354,-3.1112,-3.2035,-3.2358,-3.1054,-3.0898,-3.0898,-3.0898,-3.0898,-3.0898,-3.0898,-3.084,-3.082,-3.082,-3.0762,-3.0527,-3.0078,-3.0098,-2.9922,-2.9548,-2.9492,-2.9456,-2.9327,-2.9288,-2.8484,-2.7047,-2.667,-2.4878,-2.2107,-2.0382,-1.9533,-1.9417,-1.939,-1.9145,-1.8878,-1.8781,-1.8414,-1.7699,-1.5797,-1.5053,-1.4723,0.0,0.0,0.0,0.0,0.0,0.0,0.0,0.0,-1.1124,-1.1752,-1.2573,-1.3281,-1.3733,-1.4648,-1.5568,-1.6365,-1.7555,-1.932,-2.1798,-2.3331,-2.525,-2.7681,-2.8825,-2.9553,-2.9779,-2.9804,-2.9804,-2.9804,-3.003,-3.0306,-3.0608,-3.0507,-3.0959,-3.1863,-3.1537,-3.1687,-3.224,-3.2566,-3.2667,-3.2516,-3.1964,-3.139,-3.0597,-2.733,-2.5543,-2.4573,-2.2492,-2.1367,0.0,-2.0488,-2.0293,-2.0215,-2.041,-2.0177,-1.9781,-1.9248,-1.8914,-1.9045,-2.0447,-2.0974,-2.188,-2.4952,-2.5994,-2.7204,-3.0943,-3.16,-3.1808,-3.3012,-3.2369,-3.15,-3.1189,-3.0681,-3.0657,-3.171,-3.1856,-3.1883,-3.215,-3.1755,-3.1094,-3.025,-3.0117,-3.0332,-3.084,-3.0898,-3.0898,-3.0898,-3.0898,-3.0898,-3.0898,-3.0898,-3.0684,-3.0215,-3.0449,-3.0391,-2.9941,-2.9941,-3.0078,-3.0332,-3.0059,-2.9717,-2.9373,-2.8937,-2.7428,-2.505,-2.3158,-2.1885,-2.1017,-2.0773,-2.0071,-1.9158,-1.8985,-1.8851,-1.8635,-1.7592,-1.7143,-1.6879,0.0,0.0,0.0,0.0,0.0,0.0,0.0,0.0,0.0,0.0,-1.2172,-1.3036,-1.3939,-1.481,-1.5517,-1.5916,-1.7063,-1.8716,-2.0996,-2.3054,-2.5089,-2.7092,-2.8574,-2.9402,-2.9553,-2.9704,-2.9804,-2.9804,-2.9955,-3.0231,-3.0608,-3.0357,-3.0859,-3.1964,-3.1562,-3.1687,-3.224,-3.2667,-3.2421,-3.172,-3.1489,-3.0572,-2.8986,-2.5982,-2.3791,-2.2184,-2.0913,-2.0078,-1.9434,-1.8961,-1.8965,-1.9294,-1.973,-1.9814,-1.9777,-2.0103,-2.0557,-2.1245,-2.258,-2.2857,-2.3565,-2.6571,-2.8231,-2.9805,-3.2386,-3.3637,-3.4406,-3.4941,-3.4395,-3.3504,-3.2508,-3.1896,-3.1842,-3.274,-3.2125,-3.1883,-3.2964,-3.1697,-3.0389,-2.9665,-2.9411,-2.9512,-3.0273,-3.0566,-3.0762,-3.0879,-3.0898,-3.0898,-3.0898,-3.0898,-3.0742,-3.0391,-3.0723,-3.0723,-3.0391,-3.0391,-3.0547,-3.0879,-3.0547,-3.0566,-3.0879,-2.9988,-2.8727,-2.7218,-2.5332,-2.3623,-2.215,-2.1777,-2.0759,-1.9403,-1.9132,-1.9052,-1.9025,-1.8811,-1.8624,-1.8366,0.0,0.0,0.0,0.0,0.0,0.0,0.0,0.0,0.0,0.0,0.0,-1.2208,-1.3663,-1.4376,-1.4721,-1.4743,-1.5799,-1.6955,-1.813,-2.0838,-2.3125,-2.4825,-2.6992,-2.8423,-2.8913,-2.9503,-2.9804,-2.9804,-3.0331,-3.0608,-3.0633,-3.111,-3.1361,-3.1411,-3.1411,-3.1687,-3.2215,-3.224,-3.1625,-3.0673,-3.1174,-2.9302,-2.599,-2.4505,-2.2475,-2.0249,-1.9078,-1.7876,-1.6882,-1.7305,-1.7494,-1.7764,-1.9308,-1.9586,-1.9521,-2.0635,-2.1383,-2.1849,-2.1927,-2.3548,-2.5546,-2.704,-2.8675,-3.0821,-3.4184,-3.5532,-3.5991,-3.54,-3.6387,-3.5925,-3.1164,-3.1767,-3.2931,-3.2469,-3.2784,-3.3077,-3.3077,-3.2301,-3.1244,-2.9793,-2.8828,-2.8496,-2.8945,-2.9726,-3.041,-3.0859,-3.0898,-3.0898,-3.0898,-3.0898,-3.0879,-3.0859,-3.0879,-3.0879,-3.0859,-3.0859,-3.0879,-3.0898,-3.0879,-3.0879,-3.082,-2.8925,-2.7806,-2.7218,-2.5332,-2.3623,-2.215,-2.1777,-2.0759,-1.943,-1.9417,-1.9359,-1.9359,-1.9403,-1.8985,-1.849,0.0,0.0,0.0,0.0,0.0,0.0,0.0,0.0,0.0,0.0,0.0,0.0,0.0,0.0,0.0,0.0,-1.4586,-1.58,-1.7936,-1.9694,-2.1543,-2.3566,-2.546,-2.6716,-2.7268,-2.7846,-2.8298,-2.8674,-2.885,-2.9327,-3.0055,-2.9854,-3.0331,-3.1361,-3.1035,-3.116,-3.1621,-3.0891,-3.0211,-2.9487,-2.8004,-2.609,-2.3836,-2.152,-1.9339,-1.7365,0.0,-1.5918,-1.6261,-1.5831,-1.6065,-1.6699,-1.7729,-1.7821,-1.8,-2.0209,-2.1724,-2.3147,-2.5405,-2.6251,-2.7434,-3.1264,-3.2696,-3.3908,-3.6872,-3.8086,-3.8378,-3.7785,-3.6689,-3.5231,-3.3211,-3.2581,-3.2441,-3.2647,-3.2584,-3.2665,-3.3035,-3.1733,-3.0262,-2.8883,-2.8711,-2.8535,-2.8125,-2.9121,-2.9961,-3.0391,-3.0723,-3.0898,-3.0898,-3.1152,-3.1191,-3.0898,-3.1152,-3.1172,-3.0898,-3.0898,-3.0898,-3.0898,-3.0898,-3.0898,-3.0879,-3.0257,-2.9852,-2.9641,-2.867,-2.7272,-2.5503,-2.4106,-2.2466,-2.0759,-1.9751,-1.943,-1.943,-1.943,-1.9239,-1.9078,0.0,0.0,0.0,0.0,0.0,0.0,0.0,0.0,0.0,0.0,0.0,0.0,0.0,0.0,0.0,0.0,0.0,-1.4451,-1.6213,-1.795,-1.9618,-2.1255,-2.313,-2.4406,-2.4991,-2.5511,-2.5963,-2.6305,-2.6305,-2.6816,-2.772,-2.7344,-2.7846,-2.9026,-2.8875,-2.9126,-2.959,-2.863,-2.7743,-2.68,-2.5154,-2.3018,-2.0642,-1.8945,-1.7116,0.0,-1.4082,-1.4459,-1.5379,-1.4594,-1.5079,-1.6133,-1.6763,-1.7451,-1.8308,-1.9802,-2.2055,-2.443,-2.6467,-2.7895,-2.9548,-3.263,-3.4458,-3.5807,-3.707,-3.8282,-3.8615,-3.6864,-3.5399,-3.4002,-3.2783,-3.1754,-3.152,-3.2851,-3.279,-3.2889,-3.3673,-3.2329,-3.073,-2.9133,-2.8809,-2.8594,-2.8432,-2.9137,-2.9746,-3.0156,-3.0762,-3.1113,-3.1113,-3.1523,-3.1621,-3.1348,-3.1621,-3.1621,-3.1348,-3.1191,-3.1035,-3.0898,-3.1055,-3.1035,-3.0898,-3.0898,-3.0898,-3.0859,-3.0391,-2.9222,-2.7416,-2.6035,-2.4473,-2.2678,-2.1162,-2.0592,-2.0489,-1.9902,-1.9613,-1.9506,0.0,0.0,0.0,0.0,0.0,0.0,0.0,0.0,0.0,0.0,0.0,0.0,0.0,0.0,0.0,0.0,0.0,0.0,-1.3119,-1.5658,-1.7408,-1.7935,-2.0089,-2.1562,-2.2113,-2.2664,-2.2965,-2.302,-2.302,-2.3321,-2.3904,-2.3904,-2.4205,-2.4725,-2.5259,-2.5762,-2.6221,-2.5446,-2.4272,-2.2865,-2.2548,-2.0129,-1.6656,-1.684,-1.5725,-1.3977,-1.3184,-1.3524,-1.4295,-1.3815,-1.4745,-1.6187,-1.6482,-1.8353,-2.033,-1.9695,-2.2461,-2.5709,-2.5439,-2.8611,-3.1832,-3.1361,-3.3997,-3.636,-3.4865,-3.6169,-3.6603,-3.2828,-3.2529,-3.225,-3.0001,-2.9483,-3.0285,-3.296,-3.3338,-3.3761,-3.4975,-3.3986,-3.2447,-3.0571,-2.9235,-2.8769,-2.9531,-2.9648,-2.9844,-3.0234,-3.1035,-3.1523,-3.1543,-3.1973,-3.2187,-3.2229,-3.2187,-3.2187,-3.2229,-3.1758,-3.1348,-3.0957,-3.1328,-3.1309,-3.0918,-3.0898,-3.0898,-3.0859,-3.043,-2.9451,-2.8046,-2.7549,-2.6491,-2.5069,-2.3461,-2.2766,-2.2528,-2.0879,-2.0114,-1.9786,0.0,0.0,0.0,0.0,0.0,0.0,0.0,0.0,0.0,0.0,0.0,0.0,0.0,0.0,0.0,0.0,0.0,0.0,-1.3558,-1.4687,-1.5561,-1.6161,-1.7522,-1.8759,-1.9743,-2.0277,-2.1018,-2.192,-2.192,-2.2196,-2.2749,-2.2749,-2.302,-2.3547,-2.3672,-2.358,-2.3238,-2.2241,-2.1159,-1.989,-1.8428,-1.6961,-1.5654,-1.476,-1.4108,-1.3594,-1.3066,-1.3347,-1.4104,-1.5102,-1.7134,-1.9085,-1.7966,-1.9292,-2.1346,-2.2054,-2.3634,-2.5695,-2.8383,-3.0953,-3.2909,-3.3041,-3.4699,-3.5679,-3.3635,-3.3415,-3.2926,-3.0513,-2.9295,-2.8389,-2.7666,-2.851,-2.9796,-3.1309,-3.2604,-3.3937,-3.558,-3.3868,-3.2476,-3.252,-3.1414,-3.0527,-3.0078,-3.0625,-3.1074,-3.1172,-3.1387,-3.166,-3.1992,-3.2402,-3.25,-3.2187,-3.248,-3.248,-3.2168,-3.2051,-3.1953,-3.1896,-3.1621,-3.1465,-3.1348,-3.1035,-3.0898,-3.0879,-3.0762,-3.0335,-2.9546,-2.8321,-2.7391,-2.6589,-2.5086,-2.3756,-2.2647,-2.2245,-2.1244,-2.008,0.0,0.0,0.0,0.0,0.0,0.0,0.0,0.0,0.0,0.0,0.0,0.0,0.0,0.0,0.0,0.0,0.0,0.0,0.0,-1.3718,-1.4387,-1.4722,-1.5615,-1.6413,-1.7037,-1.7342,-1.7851,-1.8521,-1.8521,-1.8943,-1.9693,-1.9427,-1.9745,-2.0557,-2.0499,-2.0313,-1.9946,-1.9036,-1.8158,0.0,0.0,-1.4687,-1.4219,-1.3496,-1.3242,-1.3203,-1.2993,-1.4084,-1.5831,-1.7181,-1.8913,-2.0402,-1.9803,-2.0944,-2.2689,-2.353,-2.5197,-2.7108,-2.9019,-3.1576,-3.3584,-3.3068,-3.3892,-3.4046,-3.1265,-3.0541,-2.9693,-2.6783,-2.5543,-2.517,-2.5695,-2.6344,-2.7758,-3.067,-3.1786,-3.3062,-3.5278,-3.3801,-3.265,-3.3005,-3.2336,-3.168,-3.1367,-3.1621,-3.2031,-3.2598,-3.2285,-3.2187,-3.2422,-3.2832,-3.2969,-3.2734,-3.2949,-3.2871,-3.2441,-3.2617,-3.2539,-3.2229,-3.2109,-3.1875,-3.1504,-3.1269,-3.1074,-3.0898,-3.0898,-3.0742,-3.045,-2.9601,-2.9121,-2.8723,-2.7158,-2.5982,-2.5033,-2.361,-2.2386,-2.1348,0.0,0.0,0.0,0.0,0.0,0.0,0.0,0.0,0.0,0.0,-0.8389,0.0,0.0,0.0,0.0,0.0,0.0,0.0,0.0,0.0,-1.3532,-1.3532,-1.412,-1.4491,-1.4583,-1.4583,-1.4629,-1.4698,-1.4698,-1.5223,-1.6173,-1.5634,-1.5957,-1.693,-1.6906,-1.6834,-1.6706,-1.599,-1.5462,-1.4974,-1.3801,-1.3145,-1.2915,0.0,-1.2915,-1.2895,-1.2992,-1.5001,-1.7849,-1.9176,-2.0265,-2.1204,-2.1871,-2.299,-2.416,-2.4687,-2.6746,-2.8858,-2.8601,-3.1341,-3.3802,-3.1927,-3.223,-3.1961,-2.8211,-2.7499,-2.6499,-2.2476,-2.1676,-2.2201,-2.3613,-2.3746,-2.5266,-3.0226,-3.0889,-3.1803,-3.4566,-3.3727,-3.2878,-3.3067,-3.2704,-3.248,-3.2851,-3.2598,-3.2851,-3.3906,-3.3359,-3.2988,-3.3047,-3.334,-3.3535,-3.3594,-3.3535,-3.334,-3.2969,-3.332,-3.3105,-3.2344,-3.2656,-3.2402,-3.168,-3.1562,-3.1328,-3.0976,-3.0918,-3.0898,-3.0898,-3.0898,-3.0898,-3.0762,-2.9275,-2.8486,-2.7751,-2.4962,-2.3441,-2.2652,0.0,0.0,0.0,0.0,0.0,0.0,0.0,0.0,0.0,0.0,-0.8511,-0.85,0.0,0.0,0.0,0.0,0.0,0.0,0.0,0.0,0.0,-1.2159,-1.2832,-1.3454,-1.3956,-1.3956,-1.419,-1.4698,-1.4698,-1.4789,-1.4994,-1.4902,-1.4947,-1.5153,-1.5127,-1.4867,-1.4369,-1.3844,-1.3511,-1.3268,-1.2665,-1.2617,-1.2915,-1.2915,0.0,0.0,-1.3457,-1.4591,-1.6242,-1.8742,-2.1453,-2.3762,-2.3899,-2.4604,-2.5625,-2.6758,-2.7767,-2.8641,-2.9587,-3.1539,-3.2798,-3.0509,-3.0496,-2.9838,-2.549,-2.3731,-2.2211,-1.9342,-1.8472,-1.8775,-2.0398,-2.2127,-2.4586,-2.8454,-2.9827,-3.1555,-3.4926,-3.3612,-3.2955,-3.459,-3.3857,-3.3242,-3.3301,-3.3574,-3.3691,-3.3535,-3.373,-3.4004,-3.4355,-3.4101,-3.4121,-3.4473,-3.4141,-3.3926,-3.3848,-3.3926,-3.3711,-3.3203,-3.293,-3.2715,-3.2559,-3.1836,-3.1484,-3.1387,-3.1035,-3.0898,-3.0898,-3.0898,-3.0898,-3.0879,-3.0587,-2.8801,-2.6349,-2.5802,-2.3823,-2.1366,0.0,0.0,0.0,0.0,0.0,0.0,0.0,-1.0041,-0.9941,-0.9133,-0.9147,-0.884,-0.7788,-0.782,-0.8084,0.0,0.0,0.0,0.0,0.0,0.0,-1.1071,-1.1405,-1.1955,-1.2745,-1.2769,-1.3102,-1.3742,0.0,-1.3931,-1.4213,-1.3907,-1.3931,-1.4213,-1.3907,-1.3476,-1.2946,-1.2723,-1.2463,-1.2191,-1.1995,-1.2148,-1.2539,-1.2539,0.0,0.0,-1.3475,-1.4414,-1.5721,-1.7765,-2.0346,-2.301,-2.4565,-2.6016,-2.7187,-2.7812,-2.8457,-2.9141,-2.998,-3.1082,-3.1543,-2.9659,-2.8827,-2.7319,-2.3359,-2.1465,-1.9805,-1.7187,-1.6855,-1.7368,-1.8412,-2.0292,-2.2684,-2.567,-2.6499,-2.8462,-3.3263,-3.1753,-3.1419,-3.4685,-3.4121,-3.3516,-3.375,-3.3945,-3.418,-3.4434,-3.4414,-3.4394,-3.4375,-3.4394,-3.4492,-3.4687,-3.4512,-3.4394,-3.4394,-3.418,-3.3965,-3.375,-3.332,-3.3008,-3.2793,-3.2363,-3.207,-3.1836,-3.1406,-3.1211,-3.1191,-3.0976,-3.0898,-3.0898,-3.0898,-2.9962,-2.8426,-2.7572,-2.5741,-2.3529,0.0,0.0,0.0,0.0,0.0,0.0,0.0,-1.0918,-1.0632,-0.9904,-0.9744,-0.9104,-0.7575,-0.7643,-0.7785,0.0,0.0,0.0,0.0,0.0,0.0,0.0,0.0,0.0,-1.1492,0.0,0.0,-1.2541,-1.2686,0.0,0.0,0.0,0.0,0.0,-1.2914,-1.25,-1.2047,-1.1969,-1.1797,0.0,0.0,-1.168,-1.2067,0.0,0.0,0.0,0.0,-1.386,-1.498,-1.6594,-1.8516,-2.0703,-2.3452,-2.5918,-2.7734,-2.7637,-2.8476,-2.9531,-2.9941,-3.0469,-3.0566,-2.9258,-2.7578,-2.5371,-2.1951,-2.0078,-1.832,-1.5918,-1.5927,-1.6645,-1.7273,-1.8807,-2.0753,-2.3089,-2.3561,-2.5488,-3.0953,-3.0214,-3.0454,-3.423,-3.4247,-3.3954,-3.4088,-3.416,-3.4492,-3.5195,-3.5,-3.4707,-3.4375,-3.4668,-3.4883,-3.498,-3.4902,-3.4844,-3.4844,-3.4414,-3.416,-3.4062,-3.3633,-3.3242,-3.293,-3.2832,-3.2617,-3.2285,-3.1738,-3.1523,-3.1484,-3.1055,-3.0898,-3.0898,-3.0898,-3.0704,-3.0216,-2.892,-2.7134,-2.5314,0.0,0.0,0.0,0.0,0.0,0.0,0.0,-1.0918,-1.0723,-1.0224,-0.9892,-0.9059,-0.7312,-0.7374,-0.7409,0.0,0.0,0.0,0.0,0.0,0.0,0.0,0.0,0.0,0.0,0.0,0.0,-1.1362,-1.1963,0.0,0.0,0.0,0.0,0.0,0.0,-1.2051,-1.1623,-1.1191,0.0,0.0,0.0,0.0,0.0,0.0,0.0,0.0,0.0,-1.2398,-1.2866,-1.5381,-1.6621,-1.7428,-1.9297,-2.2676,-2.5898,-2.5488,-2.709,-2.9082,-2.9512,-3.0254,-3.0566,-2.9258,-2.7292,-2.4953,-2.1892,-1.9592,-1.7617,-1.5781,-1.5469,-1.589,-1.7177,-1.8244,-1.9634,-2.1755,-2.3152,-2.5206,-2.883,-3.0673,-3.2175,-3.3497,-3.4789,-3.521,-3.4216,-3.4414,-3.4668,-3.4766,-3.5117,-3.5312,-3.5273,-3.5312,-3.5508,-3.5879,-3.5527,-3.5332,-3.5332,-3.4883,-3.4453,-3.4062,-3.3633,-3.3398,-3.3359,-3.2969,-3.2773,-3.2695,-3.1875,-3.1523,-3.1484,-3.1055,-3.0898,-3.0898,-3.0898,-2.9962,-2.8605,-2.8486,-2.6486,-2.3822,0.0,0.0,0.0,0.0,0.0,0.0,-1.0758,-1.0918,-1.0742,-1.0257,-0.9901,-0.9081,-0.7413,-0.7072,-0.6839,-0.6544,0.0,0.0,0.0,0.0,0.0,0.0,0.0,0.0,0.0,0.0,-1.0812,-1.1438,-1.1705,0.0,0.0,0.0,0.0,0.0,0.0,-1.1582,-1.1133,-1.0703,0.0,0.0,0.0,0.0,0.0,0.0,0.0,0.0,0.0,0.0,-1.2359,-1.3418,-1.457,-1.5586,-1.5762,-1.8242,-2.1465,-2.3403,-2.5391,-2.7324,-2.8789,-2.9629,-2.9844,-2.8809,-2.6719,-2.4219,-2.1465,-1.918,-1.7207,-1.5723,-1.541,-1.5664,-1.6467,-1.6921,-1.778,-1.96,-2.0442,-2.244,-2.702,-2.8178,-3.0092,-3.4258,-3.5364,-3.6194,-3.7336,-3.6974,-3.6279,-3.5536,-3.5664,-3.5762,-3.5762,-3.5762,-3.584,-3.6016,-3.5859,-3.5762,-3.5762,-3.5332,-3.4883,-3.4453,-3.4023,-3.3672,-3.3418,-3.3242,-3.3164,-3.3125,-3.2285,-3.2051,-3.2207,-3.1269,-3.1035,-3.125,-3.0996,-3.0509,-2.9903,-2.9903,-2.8426,-2.6365,0.0,0.0,0.0,0.0,0.0,-0.9573,-1.0531,-1.0795,-1.0686,-1.0131,-0.9859,-0.8988,-0.7126,-0.673,-0.6372,-0.5804,-0.6364,0.0,0.0,0.0,0.0,0.0,0.0,0.0,0.0,0.0,-1.0097,-1.0851,-1.1216,-1.133,0.0,0.0,-1.133,-1.1234,0.0,0.0,0.0,0.0,0.0,0.0,0.0,0.0,0.0,0.0,0.0,0.0,0.0,0.0,0.0,0.0,0.0,-1.3945,-1.3477,-1.4863,-1.7305,-2.0546,-2.3125,-2.5352,-2.7109,-2.8281,-2.8863,-2.7949,-2.5859,-2.3398,-2.0937,-1.8648,-1.666,-1.5469,-1.5215,-1.5312,-1.5654,-1.6237,-1.7088,-1.8401,-1.9377,-2.1601,-2.6335,-2.7309,-2.923,-3.3618,-3.4472,-3.5432,-3.731,-3.7379,-3.7162,-3.6769,-3.6287,-3.6016,-3.6016,-3.6016,-3.5957,-3.584,-3.584,-3.584,-3.584,-3.5293,-3.4961,-3.4902,-3.4219,-3.3789,-3.3613,-3.3476,-3.3418,-3.3379,-3.2656,-3.2519,-3.2715,-3.1543,-3.125,-3.1484,-3.1055,-3.0898,-3.0898,-3.0898,-2.992,-2.8331,0.0,0.0,0.0,0.0,0.0,0.0,-0.9951,-1.0567,-1.0613,-0.9804,-0.9694,-0.8758,-0.6291,-0.6369,-0.6099,-0.4834,-0.5638,0.0,0.0,0.0,0.0,0.0,0.0,0.0,0.0,0.0,-0.9514,-0.9125,-1.0317,-1.0703,-1.0332,-1.0723,-1.0684,-1.0332,0.0,0.0,0.0,0.0,0.0,0.0,0.0,0.0,-1.0312,0.0,0.0,0.0,0.0,0.0,0.0,0.0,0.0,0.0,0.0,-1.3203,-1.4062,-1.668,-2.0214,-2.3423,-2.4238,-2.6035,-2.7532,-2.6621,-2.4766,-2.2535,-2.041,-1.793,-1.585,-1.5009,-1.4813,-1.4813,-1.4805,-1.6532,-1.8102,-1.8533,-2.088,-2.3786,-2.7038,-2.9254,-3.061,-3.0718,-3.1672,-3.2328,-3.2295,-3.4577,-3.6722,-3.842,-3.6991,-3.6016,-3.6016,-3.6016,-3.584,-3.541,-3.541,-3.541,-3.541,-3.4531,-3.4531,-3.5371,-3.4062,-3.3652,-3.4043,-3.3613,-3.3418,-3.3398,-3.2969,-3.2793,-3.2734,-3.1855,-3.1504,-3.1484,-3.1055,-3.0898,-3.0898,-3.0898,-3.0109,-2.8828,0.0,0.0,0.0,0.0,0.0,0.0,0.0,-0.9301,-0.9236,-0.8816,-0.8216,-0.737,-0.6128,-0.5448,-0.4978,-0.4732,-0.5616,0.0,0.0,0.0,0.0,0.0,0.0,0.0,0.0,-0.8931,-0.9602,-1.0807,-1.0866,-1.0767,-1.0496,-1.0412,-1.0034,-0.9492,-0.9803,-0.9876,0.0,0.0,0.0,0.0,0.0,-1.0293,-1.0293,0.0,0.0,0.0,0.0,0.0,0.0,0.0,0.0,0.0,0.0,0.0,0.0,-1.4414,-1.707,-1.9961,-2.1387,-2.2519,-2.3125,-2.2559,-2.123,-1.9611,-1.8071,-1.6641,-1.5371,-1.4484,-1.457,-1.4863,-1.5156,-1.5781,-1.6828,-1.8754,-2.0784,-2.2935,-2.5455,-2.8891,-3.1982,-3.4313,-3.8178,-4.0124,-3.8516,-3.8744,-3.8371,-3.6904,-3.6336,-3.6016,-3.6016,-3.6016,-3.582,-3.541,-3.5664,-3.5684,-3.5391,-3.5117,-3.4961,-3.4902,-3.4199,-3.3789,-3.3633,-3.3496,-3.3418,-3.3398,-3.2969,-3.2969,-3.3164,-3.2305,-3.2129,-3.2324,-3.1601,-3.1504,-3.1719,-3.1426,-3.1283,-3.0948,0.0,0.0,0.0,0.0,0.0,0.0,0.0,-0.8582,-0.8581,-0.819,-0.7483,-0.6699,-0.5898,-0.4956,-0.4395,-0.4353,-0.5284,0.0,0.0,0.0,0.0,0.0,0.0,0.0,-0.8958,-0.8955,-0.9695,-1.1302,-1.1359,-1.125,-1.0971,-1.0662,-1.014,-0.9474,-0.9399,-0.929,0.0,0.0,0.0,0.0,-1.0176,-1.0293,-1.0293,0.0,0.0,0.0,0.0,0.0,0.0,0.0,0.0,0.0,0.0,0.0,0.0,0.0,-1.4707,-1.6719,-1.8613,-1.9668,-2.0157,-1.9902,-1.8984,-1.7837,-1.6738,-1.5654,-1.4699,-1.4016,-1.4238,-1.4629,-1.4855,-1.583,-1.7061,-1.8549,-2.0654,-2.2696,-2.4437,-2.8267,-3.2136,-3.5616,-3.8839,-4.0574,-4.0011,-3.9213,-3.8217,-3.7106,-3.6336,-3.5957,-3.5801,-3.5937,-3.5742,-3.5156,-3.5391,-3.5391,-3.5137,-3.4805,-3.4668,-3.4687,-3.4101,-3.3769,-3.3672,-3.3496,-3.3418,-3.3398,-3.3144,-3.3184,0.0,-3.2695,-3.2559,-3.2734,-3.2031,-3.1836,-3.1894,-3.1621,-3.1797,-3.1908,0.0,0.0,0.0,0.0,0.0,0.0,0.0,-0.8255,-0.8398,-0.7899,-0.7328,-0.6582,-0.5659,-0.4852,-0.4262,-0.3951,0.0,0.0,0.0,0.0,0.0,0.0,0.0,0.0,-0.8503,-0.9034,-0.9826,-1.0867,-1.1819,-1.2047,-1.1616,-1.132,-1.0767,-0.9995,-0.9319,-0.8908,0.0,0.0,0.0,0.0,-1.0235,-1.0273,0.0,0.0,0.0,0.0,0.0,0.0,0.0,0.0,0.0,0.0,0.0,0.0,0.0,0.0,0.0,0.0,0.0,-1.7311,-1.8227,-1.8208,-1.7656,-1.6907,-1.6065,-1.4922,0.0,-1.3594,-1.3821,-1.4133,-1.4231,-1.6517,-1.8335,-1.8121,-2.0597,-2.2933,-2.4161,-2.7819,-3.1639,-3.5178,-3.5213,-3.5709,-3.7691,-3.6827,-3.6769,-3.8287,-3.6924,-3.5859,-3.5449,-3.5801,-3.5625,-3.4766,-3.4726,-3.4707,-3.4707,-3.3887,-3.3867,-3.4648,-3.3809,-3.3633,-3.4023,-3.3613,-3.3418,-3.3418,-3.3418,-3.3398,-3.334,-3.2988,-3.2832,-3.2754,-3.2363,-3.1973,-3.1601,-3.1601,-3.1875,-3.1966,0.0,0.0,0.0,0.0,0.0,0.0,0.0,0.0,0.0,0.0,-0.6719,-0.6309,-0.6066,-0.5055,-0.4535,0.0,0.0,0.0,0.0,0.0,0.0,0.0,0.0,0.0,-0.8769,-0.9125,-1.004,-1.1568,-1.2368,-1.2416,-1.1737,-1.1267,-1.0374,-0.9156,-0.8705,-0.8569,0.0,0.0,0.0,0.0,-0.9686,-0.9942,0.0,0.0,0.0,0.0,-1.0254,-1.0293,0.0,0.0,0.0,0.0,0.0,0.0,0.0,0.0,-1.2974,-1.3145,-1.3678,0.0,-1.4601,-1.4316,-1.4316,-1.4277,0.0,-1.3652,-1.3607,-1.3535,-1.3821,-1.4406,-1.543,-1.6738,-1.7962,-1.8863,-2.115,-2.3468,-2.5328,-3.0925,-3.5226,-3.6452,-3.7985,-3.8528,-3.7522,-3.7419,-3.7141,-3.6634,-3.6219,-3.5976,-3.5879,-3.5976,-3.5781,-3.5254,-3.4883,-3.4707,-3.4707,-3.418,-3.4023,-3.4219,-3.3672,-3.3476,-3.3574,-3.3476,-3.3418,-3.3418,-3.3418,-3.3242,-3.2969,-3.3184,-3.3086,-3.2793,-3.2695,-3.2578,-3.25,-3.25,-3.2559,-3.2393,0.0,0.0,0.0,0.0,0.0,0.0,0.0,0.0,0.0,0.0,0.0,-0.6028,-0.6188,-0.5373,0.0,0.0,0.0,0.0,0.0,0.0,0.0,0.0,0.0,-0.7894,-0.9312,-0.9639,-1.0632,-1.2295,-1.2874,-1.2874,-1.2295,-1.1879,-1.0846,-0.9312,-0.8195,-0.7943,0.0,0.0,0.0,-0.9487,-0.9231,0.0,0.0,0.0,0.0,0.0,-1.0293,-1.043,0.0,-1.1095,-1.1135,-1.1205,0.0,0.0,0.0,0.0,-1.2915,-1.2915,-1.2915,-1.334,-1.3704,-1.3516,-1.3607,-1.3704,-1.3516,-1.3477,-1.3516,-1.3516,-1.4004,-1.4707,-1.5605,-1.7134,-1.8619,-1.9616,-2.2059,-2.5136,-2.8818,-3.3338,-3.6797,-3.8353,-3.9145,-3.9154,-3.7994,-3.7308,-3.6663,-3.6064,-3.6016,-3.5937,-3.5742,-3.5918,-3.5723,-3.5098,-3.4824,-3.4609,-3.4414,-3.3984,-3.3769,-3.3769,-3.3535,-3.3418,-3.3418,-3.3418,-3.3418,-3.3418,-3.3418,-3.3184,-3.2832,-3.3242,-3.3066,-3.2519,-3.2715,-3.2559,-3.2226,-3.2441,-3.25,-3.2277,0.0,0.0,0.0,0.0,0.0,0.0,0.0,0.0,0.0,0.0,0.0,0.0,0.0,0.0,0.0,0.0,0.0,0.0,0.0,0.0,0.0,0.0,-0.751,-0.8341,-0.9783,-1.0285,-1.1267,-1.2725,-1.3367,-1.3457,-1.2988,-1.2687,-1.1531,-0.9583,-0.7852,-0.737,0.0,0.0,-0.8337,-0.9211,-0.8765,0.0,0.0,0.0,0.0,0.0,0.0,0.0,0.0,-1.1252,-1.1309,-1.1338,-1.2354,0.0,0.0,0.0,0.0,0.0,-1.315,-1.3828,-1.4453,-1.4235,-1.4281,-1.4353,-1.4353,-1.4064,-1.3761,-1.3796,-1.4375,-1.5135,-1.5891,-1.8012,-1.9932,-2.0778,-2.3728,-2.7506,-3.209,-3.4904,-3.7127,-3.8966,-3.8747,-3.826,-3.7832,-3.6576,-3.582,-3.582,-3.582,-3.5664,-3.5312,-3.5625,-3.5449,-3.4629,-3.4609,-3.4394,-3.3984,-3.3613,-3.3418,-3.3418,-3.3418,-3.3418,-3.3418,-3.3359,-3.3359,-3.3418,-3.3281,-3.3027,-3.2734,-3.3086,-3.2773,-3.2129,-3.2598,-3.2266,-3.1582,-3.2148,-3.2226,-3.1828,0.0,0.0,0.0,0.0,0.0,0.0,0.0,0.0,0.0,0.0,0.0,0.0,0.0,0.0,0.0,0.0,0.0,0.0,0.0,0.0,0.0,-0.826,-0.8326,-0.8693,-0.9457,-1.0634,-1.1483,-1.1981,-1.3738,-1.418,-1.3393,-1.2975,-1.1285,-0.8591,-0.7784,-0.7468,-0.7543,-0.7262,-0.753,-0.8131,-0.8049,0.0,0.0,0.0,0.0,0.0,0.0,0.0,0.0,-1.0469,-1.0701,-1.1045,-1.1621,0.0,0.0,0.0,0.0,0.0,-1.4226,-1.5391,-1.5999,-1.4837,-1.5076,-1.5612,-1.5612,-1.5258,-1.497,-1.5074,-1.5215,-1.6049,-1.8436,-2.0171,-2.1811,-2.3568,-2.7348,-3.0118,-3.0175,-3.4467,-3.662,-3.3776,-3.5749,-3.6517,-3.4421,-3.4603,-3.4902,-3.4902,-3.4902,-3.4863,-3.4805,-3.4863,-3.4668,-3.418,-3.416,-3.3965,-3.3535,-3.3457,-3.3418,-3.3418,-3.3418,-3.3418,-3.3418,-3.3047,-3.3086,-3.3379,-3.2676,-3.2324,-3.2266,-3.2344,-3.207,-3.1699,-3.248,-3.2266,-3.166,-3.2812,-3.2539,-3.1219,0.0,0.0,0.0,0.0,0.0,0.0,0.0,0.0,0.0,0.0,0.0,0.0,0.0,0.0,0.0,0.0,0.0,0.0,0.0,0.0,-0.7873,-0.8678,-0.9235,-0.9838,-1.0477,-1.1694,-1.2558,-1.3053,-1.4424,-1.4805,-1.4172,-1.2573,-1.0787,-0.8909,-0.8075,-0.7651,-0.7477,-0.7343,-0.7517,-0.7878,0.0,0.0,0.0,0.0,0.0,0.0,0.0,0.0,0.0,0.0,-1.0742,-1.1035,-1.1719,0.0,0.0,0.0,0.0,0.0,-1.3619,-1.5207,-1.6717,-1.6852,-1.7745,-1.8678,-1.9003,-1.874,-1.8401,-1.8451,-1.8416,-1.8908,-2.0743,-2.2719,-2.5396,-2.9357,-3.244,-3.4102,-3.3444,-3.6008,-3.6893,-3.394,-3.5211,-3.5703,-3.423,-3.4473,-3.4707,-3.4707,-3.4707,-3.4707,-3.4707,-3.4707,-3.4512,-3.4082,-3.4082,-3.3867,-3.3418,-3.3184,-3.3086,-3.3086,-3.2851,-3.2871,-3.3066,-3.2656,-3.2812,-3.3379,-3.2539,-3.2229,-3.2229,-3.2229,-3.1777,-3.1269,-3.2129,-3.1934,-3.1309,-3.2363,-3.1988,-3.0754,0.0,0.0,0.0,0.0,0.0,0.0,0.0,0.0,0.0,0.0,0.0,0.0,0.0,0.0,0.0,0.0,0.0,0.0,0.0,-0.7361,-0.8058,-0.9098,-1.0002,-1.0898,-1.1774,-1.279,-1.3678,-1.4406,-1.5195,-1.5148,-1.427,-1.1982,-1.0308,-0.9209,-0.8383,-0.7896,-0.7692,-0.7625,-0.7667,-0.7772,0.0,0.0,0.0,0.0,0.0,0.0,0.0,0.0,0.0,0.0,0.0,0.0,0.0,0.0,0.0,-1.2926,-1.3017,-1.2998,-1.3442,-1.5149,-1.7184,-1.8696,-1.9859,-2.1011,-2.2444,-2.2072,-2.1606,-2.2236,-2.1958,-2.1992,-2.3248,-2.5452,-2.8657,-3.3419,-3.5522,-3.6541,-3.6543,-3.7372,-3.7224,-3.5257,-3.5373,-3.5313,-3.4466,-3.4394,-3.4355,-3.4258,-3.4336,-3.4316,-3.4121,-3.4199,-3.4062,-3.3633,-3.3633,-3.3476,-3.3125,-3.2715,-3.2598,-3.2793,-3.2363,-3.2344,-3.2637,-3.2207,-3.2422,-3.3086,-3.2246,-3.1934,-3.2012,-3.1914,-3.1484,-3.0976,-3.1719,-3.168,-3.125,-3.1699,-3.1115,-3.0085,0.0,0.0,0.0,0.0,0.0,0.0,0.0,0.0,0.0,0.0,0.0,0.0,0.0,0.0,0.0,0.0,0.0,0.0,0.0,-0.7552,-0.8447,-0.9786,-1.0425,-1.1456,-1.2932,-1.3681,-1.4429,-1.5312,-1.5811,-1.4974,-1.2928,-1.1276,-0.9945,-0.8843,-0.8496,-0.8362,-0.8322,-0.8016,-0.7745,-0.7517,-0.7473,0.0,0.0,0.0,0.0,0.0,0.0,0.0,0.0,0.0,0.0,0.0,0.0,0.0,-1.2398,-1.3431,-1.3334,-1.3293,-1.504,-1.6321,-1.7578,-1.9371,-1.9843,-2.0918,-2.4803,-2.3933,-2.304,-2.5585,-2.4809,-2.4288,-2.6324,-2.8312,-3.0393,-3.2344,-3.3683,-3.4984,-3.6499,-3.7151,-3.7045,-3.5884,-3.5785,-3.517,-3.3623,-3.3516,-3.3359,-3.2969,-3.3301,-3.3164,-3.2402,-3.2715,-3.2734,-3.2385,-3.2366,-3.2285,-3.2266,-3.1836,-3.2012,-3.2793,-3.2363,-3.2248,-3.2268,-3.1758,-3.1816,-3.2207,-3.1348,-3.1211,-3.1543,-3.1152,-3.0957,-3.0937,-3.1387,-3.1777,-3.2053,-3.125,-3.0244,-2.9173,0.0,0.0,0.0,0.0,0.0,0.0,0.0,0.0,0.0,0.0,0.0,0.0,0.0,0.0,0.0,0.0,0.0,0.0,0.0,-0.7415,-0.8123,-0.9236,-1.0099,-1.1336,-1.3059,-1.404,-1.4707,-1.5019,-1.4801,-1.3665,-1.1703,-1.0895,-0.9909,-0.8804,-0.8697,-0.855,-0.8389,-0.8257,-0.8029,-0.7736,-0.7571,-0.7657,0.0,0.0,0.0,0.0,0.0,0.0,0.0,0.0,-1.0126,-1.0977,-1.1447,-1.1897,-1.2421,-1.3478,-1.3647,-1.3608,-1.432,-1.6867,-1.9464,-2.0121,-2.1444,-2.3431,-2.6576,-2.714,-2.7467,-2.9187,-2.9301,-2.9292,-3.0112,-3.1705,-3.3465,-3.5178,-3.5884,-3.6735,-3.792,-3.6671,-3.5409,-3.5005,-3.4084,-3.37,-3.3963,-3.4024,-3.4304,-3.507,-3.4463,-3.3881,-3.3614,-3.2833,-3.2344,-3.2168,-3.2229,-3.2229,-3.2229,-3.1738,-3.168,-3.1992,-3.1562,-3.1504,-3.1758,-3.1328,-3.1504,-3.2129,-3.1269,-3.1133,-3.1484,-3.1055,-3.0898,-3.0918,-3.1074,-3.1562,-3.219,-3.1797,-3.1571,-3.1408,0.0,0.0,0.0,0.0,0.0,0.0,0.0,0.0,0.0,0.0,0.0,0.0,0.0,0.0,0.0,0.0,0.0,0.0,-0.6993,-0.7316,-0.7887,-0.8739,-0.9613,-1.0806,-1.2387,-1.3286,-1.4053,-1.4668,-1.3489,-1.2242,-1.0908,-1.026,-0.9541,-0.8804,-0.8804,-0.8697,-0.8536,-0.8536,-0.8337,-0.8056,-0.7866,-0.7829,0.0,0.0,0.0,0.0,0.0,0.0,0.0,0.0,-1.0313,-1.1191,-1.1663,-1.2108,-1.2701,-1.3782,-1.4204,-1.4383,-1.4571,-1.7303,-2.0141,-2.0429,-2.2496,-2.5257,-2.82,-2.941,-3.0502,-3.2549,-3.2842,-3.2664,-3.2469,-3.3276,-3.4672,-3.6636,-3.6943,-3.7574,-3.9183,-3.6576,-3.4618,-3.5066,-3.3375,-3.2633,-3.3593,-3.4108,-3.4731,-3.5627,-3.4886,-3.4257,-3.4022,-3.2734,-3.1894,-3.1758,-3.1758,-3.1758,-3.1758,-3.1465,-3.1328,-3.1328,-3.1035,-3.1035,-3.1309,-3.1016,-3.1211,-3.1738,-3.1152,-3.1055,-3.1289,-3.1016,-3.0898,-3.0898,-3.1035,-3.1445,-3.1973,-3.217,-3.2266,-3.2402,0.0,0.0,0.0,0.0,0.0,0.0,0.0,0.0,0.0,0.0,0.0,0.0,0.0,0.0,0.0,0.0,0.0,0.0,-0.6964,-0.7295,-0.7803,-0.8466,-0.9064,-0.9884,-1.0948,-1.129,-1.2439,-1.4373,-1.2163,-1.0892,-1.0462,-0.9339,-0.8804,-0.8804,-0.8804,-0.8804,-0.8804,-0.8804,-0.8644,-0.8402,-0.8402,-0.8203,-0.7912,0.0,0.0,0.0,0.0,0.0,0.0,0.0,-1.0766,-1.1685,-1.2067,-1.262,-1.3338,-1.4404,-1.508,-1.5653,-1.6221,-1.7625,-1.9213,-2.035,-2.2776,-2.5828,-2.9754,-3.0376,-3.129,-3.554,-3.5052,-3.3717,-3.307,-3.2723,-3.3384,-3.5993,-3.6109,-3.6953,-4.0053,-3.694,-3.4949,-3.6493,-3.3989,-3.2209,-3.2209,-3.3513,-3.4232,-3.377,-3.4169,-3.4043,-3.3176,-3.2111,-3.1328,-3.0898,-3.0898,-3.0898,-3.0898,-3.0898,-3.0898,-3.0898,-3.0898,-3.0898,-3.0898,-3.0898,-3.0898,-3.0898,-3.0898,-3.0898,-3.0898,-3.0898,-3.0898,-3.0937,-3.1348,-3.1504,-3.1562,-3.2012,-3.1894,-3.1523,0.0,0.0,0.0,0.0,0.0,0.0,0.0,0.0,0.0,0.0,0.0,0.0,0.0,0.0,0.0,0.0,0.0,0.0,-0.6392,-0.6529,-0.6937,-0.7767,-0.8423,-0.9105,-0.9844,-1.0177,-1.0745,-1.1659,-1.0667,-0.9875,-0.9298,-0.9167,-0.8978,-0.8818,-0.8991,-0.8978,-0.8804,-0.8804,-0.8751,-0.8657,-0.8482,-0.8444,-0.8498,0.0,0.0,0.0,0.0,0.0,0.0,0.0,0.0,0.0,-1.2164,-1.3114,-1.4236,-1.4604,-1.5383,-1.6174,-1.6337,-1.8506,-2.098,-2.2074,-2.5028,-2.8386,-3.111,-3.1631,-3.2592,-3.621,-3.6279,-3.5587,-3.5409,-3.559,-3.6056,-3.6837,-3.5784,-3.5685,-3.8041,-3.4675,-3.2499,-3.399,-3.2441,-3.1721,-3.2711,-3.4161,-3.5424,-3.6315,-3.5513,-3.4933,-3.4648,-3.2387,-3.1016,-3.0898,-3.0898,-3.0898,-3.0898,-3.0898,-3.0898,-3.0898,-3.0898,-3.0898,-3.0898,-3.0898,-3.0898,-3.0898,-3.0898,-3.0898,-3.0898,-3.0898,-3.1074,-3.1309,-3.1133,-3.125,-3.1562,-3.2012,-3.1894,-3.1562,0.0,0.0,0.0,0.0,0.0,0.0,0.0,0.0,0.0,0.0,-0.3604,-0.3604,0.0,0.0,0.0,0.0,0.0,0.0,0.0,-0.62,-0.6529,-0.7259,-0.7821,-0.8381,-0.8983,-0.9248,-0.9532,-0.9826,-0.9532,-0.9342,-0.9185,-0.9207,-0.9275,-0.938,-0.9397,-0.9231,-0.8978,-0.926,-0.9323,-0.9197,-0.9015,-0.9043,-0.9145,0.0,0.0,0.0,0.0,0.0,0.0,0.0,0.0,0.0,-1.25,-1.3484,-1.4697,-1.4941,-1.587,-1.6972,-1.7873,-1.9924,-2.2335,-2.4534,-2.7368,-3.0192,-3.2667,-3.3721,-3.4951,-3.7638,-3.7436,-3.6883,-3.731,-3.731,-3.7262,-3.7462,-3.6466,-3.5994,-3.7038,-3.4072,-3.2092,-3.2964,-3.1825,-3.1286,-3.215,-3.3586,-3.4792,-3.5704,-3.4958,-3.4403,-3.4403,-3.215,-3.0898,-3.0898,-3.0898,-3.0898,-3.0898,-3.0898,-3.0898,-3.0898,-3.0898,-3.0898,-3.0898,-3.0898,-3.0898,-3.0898,-3.0898,-3.0898,-3.0898,-3.0898,-3.1035,-3.1269,-3.1172,-3.1406,-3.1836,-3.2266,-3.2148,-3.1816,0.0,0.0,0.0,0.0,0.0,0.0,0.0,0.0,0.0,0.0,-0.3604,-0.3604,0.0,0.0,0.0,0.0,0.0,0.0,0.0,-0.6114,-0.6392,-0.6985,-0.7335,-0.7785,-0.8348,-0.8644,-0.8804,-0.8804,-0.8804,-0.9133,-0.9795,-0.9411,-0.9604,-1.023,-0.9868,-0.9499,-0.9205,-0.9944,-1.009,-0.9795,-0.9795,-0.9795,-0.9718,-0.9054,0.0,0.0,0.0,0.0,0.0,0.0,0.0,0.0,-1.2915,-1.3736,-1.4785,-1.5282,-1.6314,-1.7806,-2.0088,-2.1471,-2.3201,-2.7193,-2.9603,-3.1687,-3.4349,-3.6107,-3.7613,-3.9094,-3.8291,-3.7638,-3.8617,-3.7939,-3.7412,-3.7914,-3.7518,-3.6985,-3.6512,-3.4317,-3.2803,-3.2845,-3.1724,-3.0955,-3.0995,-3.2333,-3.3177,-3.3177,-3.3085,-3.2993,-3.3008,-3.1629,-3.082,-3.082,-3.0801,-3.082,-3.0898,-3.082,-3.082,-3.0898,-3.0859,-3.0859,-3.0898,-3.0898,-3.0898,-3.0898,-3.0898,-3.0898,-3.0898,-3.0898,-3.0918,-3.0976,-3.1328,-3.1719,-3.2148,-3.2539,-3.2422,-3.2111,0.0,0.0,0.0,0.0,0.0,0.0,0.0,0.0,0.0,0.0,0.0,0.0,0.0,0.0,0.0,0.0,0.0,0.0,0.0,-0.5502,-0.5953,-0.6951,-0.7526,-0.7872,-0.8005,-0.8537,-0.8804,-0.8804,-0.8804,-0.9133,-0.9795,-0.966,-0.9688,-0.9903,-0.9743,-0.9392,-0.8925,-0.9611,-0.9855,-0.9795,-0.9795,-0.9795,-0.9718,-0.9054,-0.8883,0.0,0.0,0.0,0.0,0.0,0.0,0.0,-1.2915,-1.3679,-1.4639,-1.4828,-1.5707,-1.7193,-1.9957,-2.1194,-2.2799,-2.7534,-3.127,-3.4324,-3.6232,-3.6935,-3.7161,-3.7134,-3.7888,-3.8442,-3.8241,-3.799,-3.7864,-3.799,-3.6098,-3.4577,-3.4464,-3.2087,-3.0449,-3.0787,-3.1182,-3.1601,-3.1896,-3.2942,-3.3643,-3.3643,-3.2962,-3.2419,-3.2117,-3.0987,-3.0351,-3.0351,-3.0019,-3.0195,-3.0879,-3.0195,-3.0195,-3.0879,-3.0527,-3.0527,-3.0898,-3.0898,-3.0898,-3.0898,-3.0898,-3.0898,-3.0898,-3.0898,-3.1094,-3.1367,-3.1113,-3.1289,-3.168,-3.1758,-3.1523,-3.1211,0.0,0.0,0.0,0.0,0.0,0.0,0.0,0.0,0.0,0.0,0.0,0.0,0.0,0.0,0.0,0.0,0.0,0.0,0.0,0.0,-0.5825,-0.6951,-0.7579,-0.7912,-0.7912,-0.8485,-0.8804,-0.8804,-0.8804,-0.9133,-0.9795,-0.9549,-0.9729,-1.0218,-0.9853,-0.9512,-0.9274,-0.9814,-1.0139,-1.0244,-0.9935,-0.9987,-1.0167,-0.9185,-0.9015,-0.9406,-1.0432,0.0,0.0,0.0,0.0,0.0,0.0,0.0,-1.427,-1.456,-1.5313,-1.6715,-1.9809,-2.1446,-2.3602,-2.9088,-3.2416,-3.47,-3.6081,-3.6609,-3.6757,-3.6455,-3.7511,-3.8366,-3.8065,-3.8015,-3.7717,-3.6825,-3.5053,-3.3457,-3.2603,-3.0826,-2.9704,-2.9863,-3.0338,-3.0721,-3.0944,-3.1457,-3.1801,-3.1801,-3.134,-3.0994,-3.075,-3.0214,-2.9902,-2.9902,-2.9687,-2.9785,-3.0254,-2.9861,-2.9861,-3.0254,-3.0215,-3.0449,-3.0898,-3.0898,-3.0898,-3.0898,-3.0898,-3.0898,-3.0898,-3.0898,-3.1016,-3.1191,-3.0976,-3.1152,-3.1523,-3.1523,-3.1387,-3.123,0.0,0.0,0.0,0.0,0.0,0.0,0.0,0.0,0.0,0.0,0.0,0.0,0.0,0.0,0.0,0.0,0.0,0.0,0.0,0.0,0.0,-0.7044,-0.7659,-0.7979,-0.7979,-0.8537,-0.8857,-0.8989,-0.8989,-0.9399,-1.0169,-0.9521,-0.9771,-1.0788,-0.9994,-0.9579,-0.9569,-1.0017,-1.0377,-1.0585,-1.0012,-1.0141,-1.0483,-0.9263,-0.9133,-0.9718,-1.0397,-1.1065,-1.174,-1.2486,0.0,0.0,0.0,0.0,-1.3757,-1.4303,-1.4849,-1.6033,-1.9521,-2.2149,-2.5202,-3.0357,-3.2717,-3.4022,-3.4981,-3.568,-3.6128,-3.6128,-3.696,-3.7688,-3.7613,-3.7513,-3.6873,-3.5086,-3.3968,-3.2737,-3.1021,-2.991,-2.9297,-2.9434,-2.9597,-2.9743,-2.9822,-2.9763,-2.9723,-2.9723,-2.9581,-2.9434,-2.9355,-2.9414,-2.9453,-2.9453,-2.9394,-2.947,-2.9626,-2.9434,-2.9434,-2.957,-2.9922,-3.0293,-3.0664,-3.0664,-3.0742,-3.0898,-3.0898,-3.0898,-3.0898,-3.0898,-3.0898,-3.0898,-3.0898,-3.1094,-3.1406,-3.1406,-3.1406,-3.1406,0.0,0.0,0.0,0.0,0.0,0.0,0.0,0.0,0.0,0.0,-0.3604,-0.3604,0.0,0.0,0.0,0.0,0.0,0.0,-0.5593,0.0,0.0,-0.7437,-0.8013,-0.8335,-0.8335,-0.8644,-0.908,-0.9666,-0.9666,-1.0397,-1.1743,-1.0021,-0.9975,-1.1333,-0.9922,-0.9138,-0.8978,-0.9597,-0.9903,-0.9909,-0.9832,-0.9858,-0.9858,-0.908,-0.8857,-0.9015,-0.9692,-1.0372,-1.104,-1.1715,-1.2369,0.0,0.0,0.0,-1.3138,-1.3733,-1.3952,-1.4878,-1.8774,-2.3533,-2.7745,-2.9013,-3.1286,-3.3345,-3.3972,-3.455,-3.4951,-3.4951,-3.5805,-3.6433,-3.5909,-3.5433,-3.4715,-3.3431,-3.2103,-3.097,-3.0037,-2.8793,-2.8184,-2.8926,-2.9708,-3.0348,-3.0764,-3.0431,-3.0203,-3.0203,-2.9473,-2.8848,-2.8476,-2.8809,-2.9004,-2.9004,-2.8652,-2.8828,-2.957,-2.8828,-2.8828,-2.9626,-2.9629,-2.9687,-2.9746,-2.9746,-3.0176,-3.0898,-3.0898,-3.0898,-3.0898,-3.0898,-3.0898,-3.0898,-3.0898,-3.0918,-3.0976,-3.0976,-3.0976,-3.0976,0.0,0.0,0.0,0.0,0.0,0.0,0.0,0.0,0.0,0.0,0.0,-0.3826,0.0,0.0,0.0,-0.4432,-0.5032,-0.5712,-0.6437,-0.737,-0.7846,-0.7736,-0.8174,-0.8402,-0.8402,-0.9031,-0.951,-0.9795,-1.0192,-1.1282,-1.3028,-1.1785,-1.1497,-1.1943,-1.025,-0.9512,-0.9512,-0.9328,-0.9458,-0.9769,-0.938,-0.9458,-0.9718,-0.9054,-0.8804,-0.891,-0.9766,-1.0154,-1.0413,-1.1652,-1.2182,-1.2369,-1.2774,0.0,0.0,0.0,-1.3529,-1.4564,-1.8116,-2.1662,-2.4837,-2.6869,-2.8847,-3.0683,-3.2164,-3.2918,-3.342,-3.3721,-3.3922,-3.4248,-3.4906,-3.4831,-3.4065,-3.2089,-3.1258,-3.0285,-2.8452,-2.7696,-2.7441,-2.7812,-2.8177,-2.8551,-2.8733,-2.8813,-2.8834,-2.8834,-2.8694,-2.8496,-2.8301,-2.8242,-2.832,-2.8555,-2.793,-2.7988,-2.8848,-2.8242,-2.8359,-2.9199,-2.8965,-2.9101,-2.957,-2.9316,-2.9551,-3.0156,-3.041,-3.0508,-3.0527,-3.0781,-3.0898,-3.0898,-3.0898,-3.0898,-3.0898,-3.0898,-3.0898,-3.0898,0.0,0.0,0.0,0.0,0.0,0.0,0.0,0.0,0.0,0.0,0.0,0.0,0.0,0.0,0.0,0.0,-0.6014,-0.6677,-0.7266,-0.7827,-0.8099,-0.8019,-0.8323,-0.8509,-0.8509,-0.9203,-0.9718,-1.0038,-1.0682,-1.2086,-1.4183,-1.355,-1.3358,-1.3394,-1.1354,-1.0437,-1.0331,-0.9423,-0.9315,-0.9715,-0.907,-0.9106,-0.9484,-0.8975,-0.8858,-0.8991,-0.9752,-1.0021,-1.0238,-1.1477,-1.18,-1.1775,-1.2314,-1.2537,0.0,0.0,0.0,-1.4534,-1.6935,-1.9228,-2.1486,-2.3905,-2.5802,-2.7631,-2.9791,-3.0801,-3.1539,-3.2449,-3.229,-3.239,-3.3646,-3.3872,-3.3073,-3.0715,-3.0314,-2.9498,-2.717,-2.6855,-2.6894,-2.7012,-2.7012,-2.7012,-2.7012,-2.7305,-2.75,-2.75,-2.7793,-2.7969,-2.7969,-2.7676,-2.7637,-2.7949,-2.7344,-2.7324,-2.7969,-2.7773,-2.7988,-2.8594,-2.8398,-2.8633,-2.9238,-2.8906,-2.8945,-2.9277,-2.9922,-3.0195,-3.0234,-3.0703,-3.0898,-3.0898,-3.0898,-3.0898,-3.0898,-3.0898,-3.0898,-3.0898,0.0,0.0,0.0,0.0,0.0,0.0,0.0,0.0,0.0,0.0,0.0,0.0,-0.5046,-0.5697,-0.6135,-0.6135,-0.6701,-0.729,-0.7828,-0.8432,-0.8644,-0.8389,-0.8631,0.0,-0.8791,-0.8817,-0.9484,-1.0737,-1.1238,-1.2786,-1.5303,-1.4818,-1.5239,-1.6276,-1.3623,-1.201,-1.1167,-1.0117,-0.9662,-0.965,-0.9031,-0.8831,-0.8857,-0.8804,-0.8951,-0.9191,-0.9232,-0.9869,-1.0663,-1.0763,-1.1036,-1.1341,-1.1368,-1.161,-1.1864,0.0,0.0,0.0,-1.4765,-1.7157,-1.9654,-1.9815,-2.2108,-2.4805,-2.6767,-2.8004,-2.9245,-3.1098,-3.1461,-3.1461,-3.1537,-3.1562,-3.094,-2.9013,-2.8701,-2.8166,-2.6636,-2.6426,-2.6562,-2.6973,-2.7012,-2.7012,-2.7012,-2.7031,-2.7051,-2.7051,-2.707,-2.709,-2.709,-2.707,-2.7051,-2.709,-2.7031,-2.7031,-2.709,-2.748,-2.7748,-2.7787,-2.8105,-2.832,-2.8359,-2.834,-2.834,-2.8418,-2.9668,-3.0195,-3.0234,-3.0703,-3.0898,-3.0898,-3.0898,-3.0898,-3.0898,-3.0898,-3.0898,-3.0898,0.0,0.0,0.0,0.0,0.0,0.0,0.0,0.0,0.0,0.0,0.0,0.0,0.0,-0.6712,-0.7152,-0.7152,-0.7781,-0.828,-0.8472,-0.8684,-0.8764,-0.8657,-0.8751,-0.8804,-0.8804,-0.9211,-0.9884,-1.0788,-1.1688,-1.3131,-1.5019,-1.5425,-1.5825,-1.6192,-1.4166,-1.3074,-1.2707,-1.1396,-1.0988,-1.1171,-1.0393,-1.0019,-0.9868,-0.9802,-0.9521,-0.9257,-0.9644,-0.9885,-1.0163,-1.0755,-1.094,-1.1004,-1.143,-1.1633,-1.1778,-1.2069,-1.296,-1.3882,-1.3882,-1.5279,-1.6994,-1.7991,-1.9896,-2.1917,-2.3361,-2.5135,-2.6735,-2.7421,-2.8474,-2.9277,-2.9277,-3.0432,-3.0943,-2.9464,-2.8623,-2.7699,-2.6398,-2.559,-2.5176,-2.5332,-2.5352,-2.5352,-2.5352,-2.5859,-2.6468,-2.7329,-2.7132,-2.7348,-2.8116,-2.7192,-2.6738,-2.7012,-2.6484,-2.6328,-2.6602,-2.7356,-2.7728,-2.7728,-2.8086,-2.8301,-2.8301,-2.8301,-2.8301,-2.834,-2.9062,-2.9375,-2.9434,-3.0156,-3.0449,-3.0469,-3.0781,-3.0898,-3.0898,-3.0898,-3.0898,-3.0898,0.0,0.0,0.0,0.0,0.0,0.0,0.0,0.0,-0.5022,-0.5595,0.0,0.0,0.0,0.0,-0.8174,-0.8076,-0.8513,-0.8804,-0.8804,-0.8804,-0.8804,-0.8804,-0.8804,-0.8804,-0.8804,-0.9458,-1.0141,-1.0788,-1.2087,-1.342,-1.4833,-1.5694,-1.6163,-1.6239,-1.4987,-1.4261,-1.3879,-1.2555,-1.2152,-1.2347,-1.1544,-1.1247,-1.1285,-1.1327,-1.0896,-1.0345,-1.0782,-1.0581,-1.0218,-1.0756,-1.0736,-1.0595,-1.1015,-1.1267,-1.1519,-1.2288,-1.279,-1.3163,-1.3439,-1.4052,-1.4914,-1.6078,-1.7445,-1.8925,-2.0482,-2.2215,-2.371,-2.4507,-2.5873,-2.7011,-2.7322,-2.8812,-2.9683,-2.8662,-2.8349,-2.7565,-2.5768,-2.5219,-2.4808,-2.446,-2.4414,-2.4414,-2.4414,-2.4894,-2.5666,-2.6689,-2.6506,-2.6695,-2.7541,-2.6565,-2.5996,-2.6133,-2.5586,-2.5508,-2.5937,-2.666,-2.7168,-2.7461,-2.7871,-2.8164,-2.8301,-2.8301,-2.8301,-2.8301,-2.8594,-2.8789,-2.8984,-2.9687,-2.998,-3.0039,-3.0488,-3.0664,-3.0684,-3.084,-3.0898,-3.0898,0.0,0.0,0.0,0.0,0.0,0.0,0.0,0.0,-0.5661,-0.6019,0.0,0.0,0.0,0.0,0.0,-0.8844,-0.8818,-0.8818,-0.8804,-0.8804,-0.8804,-0.8804,-0.8804,-0.8804,-0.8804,-0.9458,-1.0141,-1.083,-1.2352,-1.3681,-1.4833,-1.5674,-1.6269,-1.6648,-1.623,-1.5579,-1.4648,-1.3539,-1.307,-1.3036,-1.2433,-1.2451,-1.2915,-1.3297,-1.3023,-1.2466,-1.2611,-1.1963,-1.1054,-1.0771,-1.0474,-1.0171,-1.0127,-1.0387,-1.1022,-1.2436,-1.2627,-1.2508,0.0,0.0,0.0,-1.3997,-1.4738,-1.5999,-1.8321,-1.9276,-2.0324,-2.2569,-2.3779,-2.4688,-2.5709,-2.6599,-2.6968,-2.6328,-2.7607,-2.7694,-2.4826,-2.5361,-2.5587,-2.4513,-2.4375,-2.4375,-2.4375,-2.4394,-2.457,-2.5094,-2.5086,-2.5106,-2.5134,-2.5086,-2.4863,-2.4434,-2.4414,-2.4629,-2.5106,-2.5508,-2.6103,-2.7012,-2.7461,-2.7871,-2.8281,-2.8281,-2.8301,-2.8301,-2.8301,-2.8516,-2.8926,-2.9375,-2.9607,-2.9665,-3.0039,-3.0195,-3.0273,-3.0723,-3.0898,-3.0898,0.0,0.0,0.0,0.0,0.0,-0.6018,-0.6018,-0.6182,-0.6604,0.0,0.0,0.0,-0.9211,-0.9438,-0.9446,-0.9124,-0.9098,-0.9004,-0.8818,-0.8804,-0.8804,-0.8804,-0.8804,-0.8804,-0.8804,-0.9458,-1.0291,-1.1314,-1.2502,-1.3681,-1.4805,-1.5332,-1.5664,-1.5751,-1.5644,-1.5438,-1.5163,-1.4542,-1.484,-1.5532,-1.4138,-1.4097,-1.4813,-1.4194,-1.3747,-1.3443,-1.3737,-1.3639,-1.3329,-1.2901,-1.2332,-1.1626,-1.0752,-1.0956,-1.1511,-1.1594,-1.2376,-1.3211,-1.3113,0.0,0.0,0.0,0.0,0.0,-1.5796,-1.7333,-1.8793,-1.9433,-2.0841,-2.2078,-2.2716,-2.3837,-2.4584,-2.4341,-2.5537,-2.621,-2.5395,-2.4504,-2.3786,-2.3496,-2.3452,-2.3452,-2.3452,-2.3769,-2.4391,-2.5369,-2.49,-2.5007,-2.5929,-2.5079,-2.4531,-2.4414,-2.4414,-2.4629,-2.5106,-2.5508,-2.6016,-2.6562,-2.7356,-2.7787,-2.7904,-2.8164,-2.8301,-2.8301,-2.8301,-2.8359,-2.8496,-2.8926,-2.9277,-2.9665,-3.0039,-3.041,-3.0703,-3.084,-3.0898,-3.0898,0.0,0.0,0.0,-0.5937,-0.6439,-0.6754,-0.6625,-0.7081,-0.7672,0.0,0.0,0.0,-1.0828,-1.0783,-1.0478,-0.9953,-0.9911,-0.9702,-0.9206,-0.9058,-0.9086,-0.9407,-0.9281,-0.9451,-0.991,-1.0567,-1.1347,-1.2155,-1.3268,-1.4145,-1.4805,-1.5215,-1.541,-1.541,-1.541,-1.541,-1.541,-1.5381,-1.5791,-1.6367,-1.5352,-1.5649,-1.66,-1.6182,-1.5824,-1.553,-1.5791,-1.5515,-1.4916,-1.433,-1.3591,-1.2694,-1.149,-1.1406,-1.1765,-1.1479,-1.1943,-1.2646,-1.3095,-1.3149,-1.3304,-1.4192,0.0,0.0,-1.4943,-1.6075,-1.71,-1.7286,-1.8459,-1.9634,-2.0321,-2.1413,-2.2302,-2.2637,-2.3209,-2.3902,-2.4824,-2.4471,-2.3878,-2.3193,-2.3101,-2.3101,-2.3101,-2.3379,-2.3885,-2.4798,-2.4391,-2.4459,-2.5206,-2.4371,-2.3842,-2.3842,-2.3842,-2.4102,-2.4531,-2.4961,-2.5508,-2.6133,-2.6797,-2.7226,-2.7402,-2.7832,-2.8027,-2.8047,-2.8223,-2.8301,-2.832,-2.8555,-2.8809,-2.9082,-2.9492,-2.9941,-3.0371,-3.0547,-3.0723,-3.0898,0.0,0.0,-0.675,-0.6821,-0.7185,-0.7382,-0.7057,-0.8051,-0.8874,0.0,-1.0443,-1.1869,-1.2625,-1.2476,-1.2036,-1.1303,-1.1171,-1.0825,-1.0104,-0.9728,-0.9825,-1.0468,-1.0208,-1.0535,-1.1557,-1.2211,-1.2769,-1.3177,-1.4286,-1.4805,-1.4863,-1.5234,-1.541,-1.541,-1.5469,-1.5488,-1.5508,-1.5987,-1.6202,-1.6242,-1.6183,-1.6953,-1.8184,-1.8422,-1.8311,-1.8082,-1.8193,-1.7404,-1.6165,-1.5308,-1.4512,-1.365,-1.2289,-1.1979,-1.2056,-1.1902,-1.1615,-1.172,-1.331,-1.2889,-1.2394,-1.4213,-1.4279,0.0,-1.5013,-1.5323,-1.5586,-1.5948,-1.6645,-1.7459,-1.8322,-1.9219,-2.0141,-2.1134,-2.1001,-2.1485,-2.3447,-2.4495,-2.4547,-2.3087,-2.2925,-2.2984,-2.3023,-2.3023,-2.3198,-2.3691,-2.3711,-2.3711,-2.3711,-2.3315,-2.3101,-2.3101,-2.3101,-2.334,-2.3789,-2.416,-2.4785,-2.5615,-2.6113,-2.6543,-2.6953,-2.7402,-2.7598,-2.7669,-2.8047,-2.8223,-2.8223,-2.8281,-2.832,-2.8398,-2.8769,-2.9219,-2.9687,-3.0059,-3.0488,-3.0898,0.0,-0.6991,-0.7652,-0.8185,-0.9153,-0.9781,-0.9615,-1.0093,-1.0538,-1.0725,-1.215,-1.3229,-1.3401,-1.3678,-1.3695,-1.3271,-1.2929,-1.2589,-1.2207,-1.1765,-1.1598,-1.1737,-1.1699,-1.1754,-1.1986,-1.2643,-1.3195,-1.3651,-1.4419,-1.4961,-1.5293,-1.5371,-1.541,-1.543,-1.5781,-1.5968,-1.5987,-1.6406,-1.6797,-1.709,-1.6738,-1.7578,-1.8965,-1.8359,-1.8508,-1.9022,-1.9058,-1.8625,-1.7845,-1.6369,-1.5755,-1.5208,-1.3011,-1.2995,-1.3623,-1.258,-1.2696,-1.3322,-1.436,-1.4195,-1.3749,-1.3805,-1.4741,0.0,-1.4218,-1.499,-1.5889,-1.5586,-1.5674,-1.5949,-1.6527,-1.7333,-1.8231,-1.9188,-2.016,-2.1061,-2.1792,-2.198,-2.1929,-2.1602,-2.1914,-2.2266,-2.2598,-2.2637,-2.2812,-2.3198,-2.3218,-2.3218,-2.3218,-2.314,-2.3101,-2.3101,-2.3101,-2.334,-2.3789,-2.3867,-2.4336,-2.5195,-2.5644,-2.6094,-2.6523,-2.6953,-2.7148,-2.7168,-2.7598,-2.7845,-2.7812,-2.8164,-2.8496,-2.8809,-2.8887,-2.9394,-3.0078,-3.0176,-3.0488,-3.0898,-0.7529,-0.7951,-0.8539,-0.9459,-1.0206,-1.0831,-1.1162,-1.1617,-1.2014,-1.2218,-1.3605,-1.4716,-1.5097,-1.5359,-1.5249,-1.4684,-1.446,-1.4129,-1.3568,-1.3168,-1.3114,-1.3468,-1.3147,-1.3311,-1.4081,-1.4184,-1.4562,-1.5234,-1.5563,-1.5859,-1.6044,-1.584,-1.5742,-1.5772,-1.6007,-1.6085,-1.6144,-1.6777,-1.7187,-1.7363,-1.7148,-1.7949,-1.9238,-1.8809,-1.918,-1.994,-1.9668,-1.9316,-1.8718,-1.7259,-1.6883,-1.6581,-1.3983,-1.3606,-1.3917,-1.2564,-1.268,-1.3396,-1.3998,-1.3853,-1.3643,-1.4051,-1.4166,0.0,0.0,-1.4676,-1.5275,-1.5683,-1.5566,-1.5469,-1.5703,-1.6107,-1.6573,-1.7032,-1.7874,-1.8596,-1.9002,-2.0179,-2.0805,-2.0292,-2.0644,-2.0977,-2.1191,-2.1621,-2.2148,-2.273,-2.2789,-2.2867,-2.3081,-2.3101,-2.3101,-2.3101,-2.3101,-2.3198,-2.3457,-2.3691,-2.4121,-2.4746,-2.5195,-2.5644,-2.6074,-2.6504,-2.6699,-2.6738,-2.7383,-2.7728,-2.7748,-2.8125,-2.8418,-2.8613,-2.8613,-2.9121,-2.9883,-2.9883,-3.0312,-3.0898,-0.8685,-0.8977,-0.9459,-1.0497,-1.113,-1.1696,-1.24,-1.2991,-1.3447,-1.3607,-1.4935,-1.6075,-1.6643,-1.6785,-1.6587,-1.6044,-1.5776,-1.5432,-1.5044,-1.4525,-1.4511,-1.5118,-1.4643,-1.4902,-1.6085,-1.5801,-1.5985,-1.6707,-1.6707,-1.6707,-1.6687,-1.6367,-1.6222,-1.6222,-1.632,-1.6398,-1.6515,-1.7239,-1.7559,-1.7617,-1.7539,-1.8164,-1.918,-1.9258,-1.9803,-2.0429,-1.9941,-1.9629,-1.9219,-1.793,-1.7773,-1.7662,-1.5116,-1.4562,-1.4564,-1.3115,-1.3099,-1.36,-1.406,-1.3917,-1.3815,-1.4558,-1.4005,-1.3542,0.0,0.0,0.0,-1.5759,-1.5644,-1.541,-1.541,-1.541,-1.5391,-1.5312,-1.5723,-1.6163,-1.6297,-1.8324,-1.9555,-1.8994,-1.9297,-1.9609,-1.9785,-2.0586,-2.1385,-2.2207,-2.2266,-2.2438,-2.2945,-2.2984,-2.3003,-2.3101,-2.3101,-2.3101,-2.3101,-2.3496,-2.3867,-2.4297,-2.4746,-2.5176,-2.5625,-2.6074,-2.6269,-2.6309,-2.7168,-2.7591,-2.7578,-2.8086,-2.8301,-2.8301,-2.8301,-2.8809,-2.9626,-2.9626,-3.0137,-3.0898,-0.8831,-0.9623,-1.0524,-1.1251,-1.2546,-1.3586,-1.3897,-1.4357,-1.4831,-1.5173,-1.636,-1.7051,-1.6746,-1.707,-1.7428,-1.7697,-1.667,-1.6464,-1.7504,-1.6497,-1.5872,-1.5964,-1.6224,-1.6274,-1.6105,-1.6406,-1.659,-1.6707,-1.6707,-1.6707,-1.6707,-1.6648,-1.6629,-1.6648,-1.707,-1.7441,-1.7793,-1.7891,-1.8144,-1.8422,-1.8086,-1.8208,-1.8715,-1.9141,-1.957,-1.9941,-1.9512,-1.957,-1.9648,-1.8359,-1.8188,-1.8224,-1.6431,-1.6633,-1.7301,-1.5986,-1.5693,-1.5891,-1.6736,-1.6652,-1.6129,-1.5111,-1.6109,-1.6803,-1.4714,0.0,-1.5808,-1.5547,0.0,-1.541,-1.541,0.0,0.0,-1.4922,-1.5557,-1.585,-1.5117,-1.5576,-1.6412,-1.7494,-1.7969,-1.8516,-1.9277,-2.0175,-2.084,-2.1307,-2.1346,-2.1697,-2.2539,-2.2578,-2.2711,-2.3081,-2.3101,-2.3101,-2.3101,-2.314,-2.3393,-2.3867,-2.4277,-2.4727,-2.5156,-2.5605,-2.5752,-2.581,-2.6719,-2.709,-2.7148,-2.7969,-2.8301,-2.8301,-2.8301,-2.8809,-2.9626,-2.9626,-3.0137,-3.0898,-0.9084,-0.9936,-1.1097,-1.2261,-1.3426,-1.4473,-1.5506,-1.6438,-1.7021,-1.6945,-1.8054,-1.8789,-1.8559,-1.875,-1.8828,-1.875,-1.8277,-1.7949,-1.8008,-1.75,-1.7187,-1.7187,-1.7148,-1.7129,-1.7187,-1.7129,-1.7227,-1.7447,-1.7447,-1.7447,-1.7428,-1.7227,-1.7109,-1.7109,-1.7305,-1.748,-1.7676,-1.813,-1.8442,-1.8617,-1.8711,-1.8711,-1.8656,-1.9121,-1.9551,-1.9824,-1.916,-1.918,-1.9394,-1.8359,-1.8247,-1.8363,-1.702,-1.6874,-1.701,-1.607,-1.607,-1.6406,-1.6489,-1.6628,-1.641,-1.5386,-1.5432,-1.5525,-1.4661,-1.4744,-1.5147,-1.5672,0.0,0.0,0.0,0.0,0.0,0.0,-1.5293,-1.5469,-1.4863,-1.4941,-1.5352,-1.6133,-1.6387,-1.7031,-1.8418,-1.9102,-1.9727,-2.0372,-2.0703,-2.1113,-2.1697,-2.2246,-2.2598,-2.2773,-2.2964,-2.3101,-2.3101,-2.3101,-2.3359,-2.3789,-2.3965,-2.4414,-2.5125,-2.5254,-2.5488,-2.5732,-2.6387,-2.6777,-2.707,-2.7676,-2.8066,-2.8301,-2.8301,-2.8809,-2.9626,-2.9626,-3.0137,-3.0898,-1.0336,-1.0955,-1.1919,-1.3103,-1.4253,-1.5437,-1.6702,-1.7857,-1.85,-1.8188,-1.9102,-1.9746,-1.9746,-1.9746,-1.9707,-1.9648,-1.9316,-1.8945,-1.8555,-1.832,-1.8086,-1.7852,-1.7891,-1.7891,-1.7832,-1.7773,-1.7812,-1.8008,-1.8008,-1.8008,-1.8008,-1.7695,-1.7559,-1.7559,-1.7676,-1.7734,-1.7773,-1.8496,-1.8773,-1.8812,-1.916,-1.916,-1.8968,-1.9082,-1.9375,-1.9648,-1.887,-1.8812,-1.8984,-1.8262,-1.8247,-1.8437,-1.7562,-1.7219,-1.702,-1.6438,-1.6616,-1.6902,-1.6554,-1.6809,-1.692,-1.6094,-1.5507,-1.5191,-1.5255,-1.5063,-1.5109,-1.5925,-1.5831,0.0,0.0,0.0,-1.5273,-1.4891,0.0,-1.5098,-1.4668,-1.4609,-1.4727,-1.5019,-1.5245,-1.5957,-1.7344,-1.7837,-1.8442,-1.9316,-1.9687,-2.0215,-2.1016,-2.1758,-2.2266,-2.25,-2.2886,-2.3101,-2.3101,-2.3101,-2.3257,-2.3613,-2.373,-2.418,-2.4902,-2.5067,-2.5312,-2.5713,-2.6191,-2.6621,-2.7051,-2.748,-2.7963,-2.8301,-2.8301,-2.8809,-2.9626,-2.9626,-3.0059,-3.0723,-1.308,-1.3111,-1.3214,-1.3517,-1.5273,-1.6804,-1.7285,-1.8052,-1.8598,-1.8578,-1.9023,-1.9316,-1.9316,-1.9316,-1.9629,-2.0488,-1.9375,-1.8968,-1.9805,-1.9046,-1.8227,-1.7441,-1.8574,-1.8652,-1.7455,-1.8184,-1.8364,-1.8008,-1.8008,-1.8008,-1.8008,-1.8008,-1.7988,-1.8008,-1.8383,-1.8559,-1.8598,-1.9082,-1.9258,-1.9277,-1.9277,-1.9512,-1.9785,-1.8929,-1.8926,-1.9258,-1.8754,-1.8617,-1.8559,-1.813,-1.8247,-1.8539,-1.8095,-1.8232,-1.8465,-1.8042,-1.794,-1.794,-1.7954,-1.8232,-1.8348,-1.7525,-1.7589,-1.7667,-1.6831,-1.6636,-1.65,-1.6183,-1.6085,-1.5948,-1.5488,-1.541,-1.5273,-1.4891,-1.4805,0.0,0.0,-1.4133,-1.4133,-1.4153,-1.4874,-1.5605,-1.6105,-1.6523,-1.7116,-1.8008,-1.8086,-1.8828,-2.0527,-2.1016,-2.1619,-2.248,-2.2886,-2.3101,-2.3101,-2.3101,-2.3101,-2.312,-2.3594,-2.4023,-2.4453,-2.4863,-2.5312,-2.5713,-2.6191,-2.6621,-2.7051,-2.748,-2.7963,-2.8301,-2.8301,-2.8809,-2.9626,-2.9626,-2.9844,-3.0293,-1.4147,-1.4944,-1.5515,-1.5289,-1.6524,-1.7812,-1.8535,-1.9375,-2.0117,-2.0703,-2.1406,-2.207,-2.2617,-2.2676,-2.2461,-2.1894,-2.1465,-2.084,-1.998,-1.9902,-1.9414,-1.8227,-1.918,-1.9238,-1.8242,-1.8769,-1.8848,-1.8383,-1.8383,-1.8247,-1.8008,-1.8008,-1.8008,-1.8027,-1.8422,-1.8442,-1.8281,-1.9277,-1.9551,-1.9316,-1.959,-1.9961,-2.0215,-1.9046,-1.9046,-1.957,-1.8539,-1.8364,-1.8578,-1.8442,-1.8305,-1.8242,-1.8344,-1.8286,-1.8203,-1.8047,-1.8169,-1.8383,-1.8383,-1.8695,-1.8867,-1.8008,-1.791,-1.7793,-1.6902,-1.6707,-1.6602,-1.6183,-1.6289,-1.6289,-1.5547,-1.5644,-1.5733,-1.5273,-1.4961,-1.4629,0.0,-1.386,-1.3926,-1.4492,-1.5312,-1.5928,-1.6085,-1.6465,-1.6941,-1.7559,-1.7852,-1.8516,-1.9705,-2.041,-2.1191,-2.207,-2.25,-2.2808,-2.3101,-2.3101,-2.3101,-2.3101,-2.3237,-2.373,-2.4414,-2.457,-2.5039,-2.5693,-2.5898,-2.6367,-2.7031,-2.7168,-2.7656,-2.8301,-2.8301,-2.8476,-2.8789,-2.9411,-3.0019,-3.0684,-1.5838,-1.6857,-1.743,-1.664,-1.7593,-1.8691,-1.9414,-2.0508,-2.1465,-2.2031,-2.3125,-2.4043,-2.459,-2.4512,-2.4082,-2.3262,-2.291,-2.2129,-2.0703,-2.0879,-2.0449,-1.9104,-1.9766,-1.9668,-1.8617,-1.9062,-1.9082,-1.8598,-1.8598,-1.8461,-1.8188,-1.8086,-1.8086,-1.8208,-1.8672,-1.8598,-1.8266,-1.9434,-1.959,-1.9102,-1.9512,-1.9863,-2.0038,-1.8968,-1.9046,-1.9551,-1.8418,-1.8184,-1.8403,-1.8559,-1.8422,-1.8247,-1.852,-1.8555,-1.8437,-1.8247,-1.8383,-1.8637,-1.8792,-1.8965,-1.8926,-1.8344,-1.8188,-1.8013,-1.7311,-1.7155,-1.707,-1.6652,-1.6758,-1.6699,-1.5801,-1.5909,-1.5948,-1.5488,-1.5059,-1.4629,0.0,-1.4016,-1.416,-1.4727,-1.5302,-1.5694,-1.585,-1.6094,-1.6473,-1.7109,-1.7402,-1.8066,-1.9219,-1.9961,-2.082,-2.1855,-2.2305,-2.2672,-2.3081,-2.3101,-2.3101,-2.3101,-2.3101,-2.3471,-2.4199,-2.4355,-2.4824,-2.5508,-2.582,-2.6367,-2.7031,-2.7187,-2.7656,-2.8301,-2.8301,-2.8379,-2.8594,-2.9316,-3.0137,-3.0898,-1.8066,-1.8769,-1.8964,-1.7624,-1.8483,-1.9473,-1.9941,-2.1445,-2.2578,-2.2656,-2.4141,-2.5262,-2.5282,-2.4844,-2.4551,-2.4492,-2.373,-2.2934,-2.2012,-2.1973,-2.1387,-2.0039,-2.0391,-2.0019,-1.8695,-1.9121,-1.9121,-1.8637,-1.8637,-1.8617,-1.8598,-1.8223,-1.8227,-1.8617,-1.9121,-1.9062,-1.8656,-1.9514,-1.9397,-1.8676,-1.9141,-1.9336,-1.9297,-1.8831,-1.8965,-1.9238,-1.834,-1.8008,-1.8066,-1.8442,-1.8578,-1.8598,-1.8598,-1.8945,-1.9199,-1.8754,-1.8656,-1.8754,-1.9199,-1.9023,-1.8695,-1.8676,-1.8656,-1.852,-1.8144,-1.8027,-1.7891,-1.7461,-1.7435,-1.7181,-1.6281,-1.6144,-1.6007,-1.5508,-1.5078,-1.4648,-1.4192,-1.4531,-1.4813,-1.4833,-1.4833,-1.498,-1.5371,-1.541,-1.5751,-1.6629,-1.6707,-1.7447,-1.9199,-1.9668,-2.0508,-2.1855,-2.2266,-2.2652,-2.3081,-2.3101,-2.3101,-2.3101,-2.3101,-2.3379,-2.3809,-2.4219,-2.4648,-2.5165,-2.5996,-2.6621,-2.7051,-2.748,-2.7963,-2.8301,-2.8301,-2.8555,-2.9004,-2.9434,-3.0156,-3.0898,-1.8965,-1.9686,-2.0274,-2.0158,-1.9965,-2.0117,-2.1211,-2.2305,-2.3457,-2.4746,-2.6133,-2.7161,-2.7422,-2.709,-2.6445,-2.544,-2.4902,-2.4082,-2.2847,-2.3125,-2.2578,-2.0917,-2.1309,-2.0937,-1.9609,-2.0019,-1.9863,-1.9121,-1.9121,-1.8965,-1.8598,-1.85,-1.85,-1.8637,-1.9414,-1.9336,-1.8656,-1.9514,-1.9609,-1.916,-1.959,-1.9941,-2.0233,-1.9746,-1.9863,-2.0077,-1.8555,-1.8008,-1.8027,-1.8144,-1.8344,-1.8598,-1.8598,-1.8945,-1.9258,-1.916,-1.9336,-1.9572,-1.9727,-1.9902,-2.0,-1.9668,-1.9355,-1.9004,-1.8539,-1.8188,-1.7891,-1.7461,-1.7637,-1.7578,-1.6719,-1.6816,-1.6829,-1.6046,-1.5302,-1.4774,-1.4629,-1.4707,-1.4902,-1.5215,-1.5254,-1.5293,-1.5391,-1.541,-1.5751,-1.6629,-1.6707,-1.7447,-1.9199,-1.9394,-2.0195,-2.1836,-2.1992,-2.2402,-2.3081,-2.3101,-2.3101,-2.3101,-2.3101,-2.3379,-2.3809,-2.4219,-2.4648,-2.5165,-2.5996,-2.6621,-2.7051,-2.748,-2.7963,-2.8301,-2.8301,-2.875,-2.9453,-2.9883,-3.041,-3.0898,-1.9917,-2.0684,-2.1504,-2.1758,-2.1836,-2.2129,-2.2871,-2.3398,-2.4258,-2.582,-2.6973,-2.7695,-2.7734,-2.7695,-2.7305,-2.6317,-2.5723,-2.4883,-2.3725,-2.375,-2.3184,-2.1814,-2.168,-2.1074,-1.9941,-1.998,-1.9803,-1.9297,-1.9297,-1.9258,-1.9143,-1.9004,-1.9023,-1.9182,-1.967,-1.9648,-1.9163,-1.928,-1.9336,-1.9297,-1.9336,-1.9609,0.0,-1.9727,-1.9785,-1.992,-1.8906,-1.8574,-1.8594,-1.8769,-1.8867,-1.8965,-1.9104,-1.9355,-1.9551,-1.9551,-1.9727,-1.9961,-2.0137,-2.0234,-2.0215,-1.998,-1.9609,-1.918,-1.8695,-1.8286,-1.7949,-1.7715,-1.7852,-1.7812,-1.7129,-1.7227,-1.7148,-1.6465,-1.5957,-1.5566,-1.54,-1.5508,-1.5586,-1.543,-1.5732,-1.581,-1.5449,-1.5586,-1.5977,-1.6648,-1.6882,-1.7676,-1.9199,-1.9297,-2.0078,-2.1836,-2.207,-2.248,-2.3081,-2.3276,-2.3276,-2.3101,-2.3101,-2.3218,-2.3535,-2.4141,-2.4648,-2.5165,-2.6191,-2.6914,-2.7324,-2.7773,-2.8086,-2.8301,-2.8301,-2.8809,-2.9646,-2.9844,-3.0332,-3.0898,-2.0839,-2.1738,-2.2578,-2.2519,-2.3613,-2.4551,-2.4727,-2.4844,-2.5352,-2.6562,-2.7461,-2.7832,-2.7402,-2.7539,-2.7571,-2.7129,-2.622,-2.5362,-2.4648,-2.4141,-2.3516,-2.2715,-2.1756,-2.0859,-2.0019,-1.959,-1.9336,-1.9297,-1.9297,-1.9512,-1.9902,-1.9531,-1.957,-1.9922,-1.998,-1.9941,-1.9785,-1.9007,-1.887,-1.918,-1.887,-1.8987,-1.9375,-1.9434,-1.9453,-1.9453,-1.9453,-1.9375,-1.9336,-1.9707,-1.9629,-1.9434,-1.9805,-1.9961,-2.0,-2.0,-2.0,-2.0078,-2.0507,-2.0293,-2.0,-2.0,-1.9687,-1.9277,-1.8851,-1.8442,-1.8184,-1.8184,-1.8125,-1.7988,-1.7617,-1.7461,-1.7266,-1.6843,-1.6746,-1.657,-1.6242,-1.6484,-1.6414,-1.5654,-1.6239,0.0,-1.5634,-1.5918,-1.6309,-1.6668,-1.7129,-1.791,-1.9141,-1.9258,-2.0059,-2.1738,-2.2207,-2.2672,-2.3257,-2.3574,-2.3574,-2.3257,-2.314,-2.3101,-2.312,-2.3978,-2.4629,-2.5059,-2.6426,-2.7226,-2.7617,-2.8105,-2.8301,-2.8301,-2.8301,-2.8809,-2.9626,-2.9626,-3.0137,-3.0898,-2.1603,-2.2445,-2.293,-2.2578,-2.3867,-2.5312,-2.6387,-2.7148,-2.7812,-2.8398,-2.9219,-2.959,-2.916,-2.8315,-2.7689,-2.7559,-2.6445,-2.5635,-2.546,-2.4699,-2.4082,-2.3594,-2.2422,-2.1367,-2.0507,-2.0019,-1.9629,-1.9297,-1.9297,-1.9512,-1.9922,-1.9844,-1.9844,-1.9941,-2.0293,-2.0096,-1.9394,-1.9238,-1.9004,-1.8773,-1.9397,-1.9727,-1.9844,-2.0195,-2.037,-2.037,-2.037,-1.992,-1.9297,-1.9375,-1.957,-1.9824,-1.9883,-2.0156,-2.0488,-2.0488,-2.0488,-2.0507,-2.0586,-2.0546,-2.0488,-2.0488,-2.0117,-1.9785,-1.9707,-1.9355,-1.9062,-1.9062,-1.8769,-1.8461,-1.8403,-1.7852,-1.7363,-1.7285,-1.6941,-1.6668,-1.659,-1.6648,-1.6648,-1.6492,-1.6609,-1.6629,-1.6492,-1.6531,-1.6609,-1.6687,-1.7129,-1.7793,-1.8676,-1.9102,-1.9922,-2.1268,-2.1777,-2.2695,-2.418,-2.353,-2.353,-2.4134,-2.3432,-2.3101,-2.312,-2.3978,-2.4453,-2.4629,-2.6289,-2.7051,-2.7187,-2.7969,-2.8301,-2.8301,-2.8301,-2.8809,-2.9626,-2.9626,-3.0137,-3.0898,-2.2961,-2.3379,-2.3887,-2.4095,-2.543,-2.6828,-2.7832,-2.8926,-2.9473,-2.8984,-2.8906,-2.8809,-2.8667,-2.8223,-2.7988,-2.7988,-2.7012,-2.6309,-2.6094,-2.5039,-2.4238,-2.3809,-2.2773,-2.1797,-2.0937,-2.0254,-1.9824,-1.9609,-1.9394,-1.9609,-2.0254,-2.0254,-2.0254,-2.0254,-2.0507,-2.037,-1.9979,-1.9707,-1.9629,-1.9648,-1.9844,-2.0059,-2.0273,-2.0527,-2.0605,-2.0605,-2.0605,-2.0331,-1.9979,-1.9979,-2.0078,-2.0254,-2.0254,-2.0429,-2.0605,-2.0605,-2.0605,-2.0605,-2.0605,-2.0605,-2.0605,-2.0605,-2.0234,-1.9922,-1.9922,-1.959,-1.9297,-1.9297,-1.9121,-1.8965,-1.8965,-1.8457,-1.8105,-1.834,-1.8008,-1.7759,-1.8027,-1.7837,-1.7603,-1.7389,-1.7369,-1.7194,-1.6746,-1.7096,-1.7305,-1.709,-1.7461,-1.8086,-1.8926,-1.918,-2.0,-2.1523,-2.1992,-2.2715,-2.3705,-2.3574,-2.3574,-2.3705,-2.3574,-2.3477,-2.3496,-2.4375,-2.4883,-2.5128,-2.6465,-2.7148,-2.7402,-2.8027,-2.8301,-2.8301,-2.8301,-2.8809,-2.9626,-2.9626,-3.0137,-3.0898,-2.4342,-2.4551,-2.5078,-2.583,-2.707,-2.8164,-2.8809,-3.0039,-3.0527,-2.9473,-2.8594,-2.8119,-2.8119,-2.8125,-2.8164,-2.8164,-2.7383,-2.6738,-2.6406,-2.5234,-2.4355,-2.3945,-2.3105,-2.2246,-2.1346,-2.0508,-2.0059,-2.0059,-1.9629,-1.9805,-2.0605,-2.0703,-2.0742,-2.0742,-2.0742,-2.0605,-2.0449,-2.0156,-2.0195,-2.0449,-2.0156,-2.0254,-2.0605,-2.0605,-2.0605,-2.0605,-2.0605,-2.0605,-2.0605,-2.0605,-2.0605,-2.0605,-2.0605,-2.0605,-2.0605,-2.0605,-2.0605,-2.0605,-2.0605,-2.0605,-2.0605,-2.0605,-2.0312,-2.0059,-2.0059,-1.9785,-1.9607,-1.9607,-1.9492,-1.9394,-1.9297,-1.9004,-1.8887,-1.9238,-1.9004,-1.8906,-1.9238,-1.8984,-1.8578,-1.8203,-1.8144,-1.7818,-1.7038,-1.7617,-1.7871,-1.7539,-1.791,-1.8437,-1.9102,-1.9316,-2.0098,-2.1603,-2.2109,-2.2676,-2.3218,-2.3613,-2.3711,-2.351,-2.3809,-2.3926,-2.3945,-2.4727,-2.5254,-2.5644,-2.6602,-2.7305,-2.7832,-2.8164,-2.8301,-2.8301,-2.8301,-2.8809,-2.9626,-2.9626,-3.0137,-3.0898,-2.5391,-2.5898,-2.6348,-2.6816,-2.7949,-2.8828,-2.8906,-3.0039,-3.084,-3.0723,-2.9941,-2.945,-2.945,-2.8452,-2.7787,-2.7787,-2.6934,-2.6426,-2.6387,-2.5527,-2.4805,-2.4375,-2.3491,-2.2652,-2.1836,-2.0997,-2.0546,-2.0546,-2.0078,-2.0098,-2.0625,-2.0977,-2.1132,-2.1132,-2.1132,-2.0723,-2.0,-2.0352,-2.0293,-2.0,-2.0371,-2.0566,-2.0605,-2.0605,-2.0605,-2.0605,-2.0605,-2.0605,-2.0605,-2.0605,-2.0605,-2.0605,-2.0605,-2.0605,-2.0605,-2.0605,-2.0605,-2.0605,-2.0605,-2.0605,-2.0605,-2.0605,-2.0566,-2.0546,-2.0546,-2.0507,-2.0488,-2.0488,-2.0137,-1.9746,-1.9355,-1.9258,-1.9238,-1.9277,-1.9258,-1.9238,-1.9277,-1.9258,-1.9062,-1.8598,-1.8539,-1.8364,-1.793,-1.7969,-1.7988,-1.7949,-1.8305,-1.8578,-1.8656,-1.9397,-2.0117,-2.0703,-2.1504,-2.2519,-2.3711,-2.3769,-2.416,-2.493,-2.4531,-2.4355,-2.4375,-2.4844,-2.5145,-2.5243,-2.6465,-2.748,-2.8242,-2.8281,-2.8301,-2.8301,-2.8301,-2.8809,-2.9626,-2.9626,-3.0137,-3.0898,-2.7495,-2.7207,-2.7441,-2.8379,-2.875,-2.918,-2.998,-3.0547,-3.0898,-3.0898,-3.0117,-2.9626,-2.9626,-2.8652,-2.8047,-2.8047,-2.7266,-2.6758,-2.6758,-2.5449,-2.4609,-2.4414,-2.3549,-2.2828,-2.2266,-2.166,-2.123,-2.0977,-2.0781,-2.0801,-2.0977,-2.1112,-2.1094,-2.084,-2.084,-2.0644,-2.0312,-2.0527,-2.0507,-2.0332,-2.0527,-2.0605,-2.0605,-2.0605,-2.0605,-2.0605,-2.0605,-2.0605,-2.0605,-2.0605,-2.0605,-2.0605,-2.0605,-2.0605,-2.0605,-2.0605,-2.0605,-2.0605,-2.0605,-2.0605,-2.0605,-2.0605,-2.0605,-2.0605,-2.0605,-2.0605,-2.0605,-2.0605,-2.0468,-2.0254,-2.0116,-1.9844,-1.9746,-2.0019,-1.9844,-1.9746,-2.0057,-1.9824,-1.9512,-1.9082,-1.8754,-1.8442,-1.8047,-1.8008,-1.8105,-1.8325,-1.85,-1.8715,-1.9023,-1.959,-2.0234,-2.0937,-2.1562,-2.2383,-2.3443,-2.3672,-2.4082,-2.4668,-2.4766,-2.4805,-2.4824,-2.5273,-2.5742,-2.6289,-2.707,-2.7734,-2.8301,-2.8301,-2.8301,-2.832,-2.8574,-2.9043,-2.9646,-2.9863,-3.0351,-3.0898,-2.8971,-2.8437,-2.8594,-2.9746,-2.9707,-2.9805,-3.0742,-3.0898,-3.0898,-3.0898,-3.0117,-2.9626,-2.9626,-2.8926,-2.8379,-2.8125,-2.7441,-2.6973,-2.6836,-2.5566,-2.4687,-2.4434,-2.3783,-2.3218,-2.2715,-2.2285,-2.1914,-2.158,-2.1444,-2.1327,-2.119,-2.119,-2.1074,-2.0762,-2.0938,-2.0918,-2.0781,-2.0938,-2.0918,-2.0762,-2.0762,-2.0723,-2.0605,-2.0605,-2.0605,-2.0605,-2.0605,-2.0605,-2.0605,-2.0605,-2.0605,-2.0605,-2.0605,-2.0605,-2.0605,-2.0605,-2.0605,-2.0605,-2.0605,-2.0605,-2.0605,-2.0605,-2.0605,-2.0605,-2.0605,-2.0605,-2.0605,-2.0605,-2.0605,-2.0605,-2.0605,-2.0312,-2.0195,-2.0566,-2.0312,-2.0215,-2.0566,-2.0293,-1.9941,-1.9531,-1.9199,-1.8812,-1.8418,-1.8379,-1.8516,-1.8773,-1.8909,-1.9141,-1.9453,-1.9883,-2.0449,-2.1171,-2.166,-2.2347,-2.3208,-2.3711,-2.418,-2.4609,-2.5059,-2.5273,-2.5273,-2.5723,-2.6406,-2.7226,-2.7591,-2.791,-2.8301,-2.8301,-2.8301,-2.834,-2.875,-2.918,-2.9685,-3.0039,-3.0488,-3.0898,-2.945,-2.9551,-2.9824,-3.0723,-3.0859,-3.0879,-3.0898,-3.0898,-3.0898,-3.0898,-3.0117,-2.9626,-2.9626,-2.918,-2.8574,-2.7806,-2.7266,-2.6836,-2.6426,-2.5977,-2.5284,-2.4453,-2.4414,-2.3958,-2.3101,-2.2715,-2.25,-2.25,-2.209,-2.166,-2.119,-2.119,-2.119,-2.121,-2.168,-2.1641,-2.121,-2.168,-2.1621,-2.119,-2.119,-2.0957,-2.0605,-2.0605,-2.0605,-2.0605,-2.0605,-2.0605,-2.0605,-2.0605,-2.0605,-2.0605,-2.0605,-2.0605,-2.0605,-2.0605,-2.0605,-2.0605,-2.0605,-2.0605,-2.0605,-2.0605,-2.0605,-2.0605,-2.0605,-2.0605,-2.0605,-2.0605,-2.0605,-2.0605,-2.0605,-2.0605,-2.0605,-2.0605,-2.0605,-2.0605,-2.0605,-2.0605,-2.0429,-1.9961,-1.9902,-1.9727,-1.9316,-1.9277,-1.9277,-1.9277,-1.9668,-1.9902,-1.9902,-2.0332,-2.0762,-2.1171,-2.166,-2.2347,-2.3208,-2.3984,-2.4629,-2.5106,-2.5508,-2.5674,-2.5693,-2.6191,-2.6855,-2.7708,-2.7728,-2.791,-2.8301,-2.8301,-2.8301,-2.834,-2.875,-2.918,-2.9685,-3.0039,-3.0488,-3.0898,-3.064,-3.0469,-3.0566,-3.084,-3.0898,-3.0898,-3.0898,-3.0898,-3.0898,-3.0898,-3.0644,-3.0234,-2.9629,-2.8926,-2.8379,-2.8125,-2.7441,-2.6953,-2.6836,-2.5859,-2.5156,-2.4863,-2.4297,-2.3867,-2.3594,-2.3164,-2.275,-2.2519,-2.2676,-2.2519,-2.2109,-2.2109,-2.1953,-2.168,-2.1816,-2.1816,-2.1699,-2.1836,-2.1797,-2.166,-2.1307,-2.1112,-2.0996,-2.0684,-2.0605,-2.0605,-2.0605,-2.0605,-2.0605,-2.0605,-2.0605,-2.0605,-2.0605,-2.0605,-2.0605,-2.0605,-2.0605,-2.0605,-2.0605,-2.0605,-2.0605,-2.0605,-2.0605,-2.0605,-2.0605,-2.0605,-2.0703,-2.0957,-2.0781,-2.0605,-2.0605,-2.0605,-2.0605,-2.0605,-2.0605,-2.0605,-2.0605,-2.0605,-2.0449,-1.9961,-1.9922,-1.9746,-1.9336,-1.9297,-1.9414,-1.9687,-1.9844,-1.9922,-1.9922,-2.0625,-2.1094,-2.119,-2.2165,-2.3008,-2.3594,-2.4434,-2.5078,-2.5527,-2.5977,-2.6328,-2.6621,-2.7051,-2.7454,-2.7728,-2.7969,-2.8164,-2.8301,-2.8301,-2.8457,-2.8769,-2.9199,-2.9629,-3.0059,-3.0508,-3.0762,-3.0898,-3.117,-3.0898,-3.0898,-3.0898,-3.0898,-3.0898,-3.0898,-3.0898,-3.0898,-3.0898,-3.0742,-3.0351,-2.9704,-2.8945,-2.8457,-2.8301,-2.7656,-2.7187,-2.7031,-2.6113,-2.541,-2.5125,-2.4394,-2.3945,-2.3789,-2.3315,-2.2964,-2.2754,-2.2808,-2.2773,-2.25,-2.2363,-2.2129,-2.1894,-2.2051,-2.2129,-2.2129,-2.2285,-2.2266,-2.209,-2.1816,-2.158,-2.1445,-2.1172,-2.1094,-2.1075,-2.0879,-2.082,-2.0781,-2.0664,-2.0605,-2.0625,-2.0762,-2.0742,-2.0605,-2.0605,-2.0605,-2.0644,-2.0762,-2.0742,-2.0683,-2.1016,-2.0937,-2.0859,-2.1055,-2.0937,-2.0898,-2.1132,-2.0879,-2.0605,-2.0605,-2.0703,-2.0762,-2.0625,-2.0742,-2.0762,-2.0625,-2.0605,-2.0507,-2.0195,-2.0312,-2.0312,-2.0039,-2.0176,-2.0312,-2.0372,-2.0566,-2.0586,-2.0391,-2.0898,-2.1424,-2.1953,-2.2734,-2.3516,-2.4258,-2.4851,-2.5293,-2.5693,-2.6191,-2.6699,-2.7266,-2.7591,-2.7806,-2.791,-2.8184,-2.8301,-2.8301,-2.8301,-2.8535,-2.8945,-2.9219,-2.9687,-3.0234,-3.0527,-3.0742,-3.0898,-3.117,-3.0898,-3.0898,-3.0898,-3.0898,-3.0898,-3.0898,-3.0898,-3.0898,-3.0898,-3.0488,-3.0039,-2.9609,-2.918,-2.875,-2.832,-2.791,-2.75,-2.709,-2.6641,-2.6016,-2.5243,-2.4707,-2.4258,-2.3848,-2.3398,-2.312,-2.3101,-2.2754,-2.2559,-2.2539,-2.2148,-2.1973,-2.1992,-2.2383,-2.2559,-2.2578,-2.2925,-2.2867,-2.2559,-2.2519,-2.2266,-2.1875,-2.1855,-2.1836,-2.1777,-2.1346,-2.121,-2.1171,-2.084,-2.0703,-2.0762,-2.1152,-2.0996,-2.0683,-2.0664,-2.0644,-2.0703,-2.1093,-2.0957,-2.0899,-2.168,-2.1582,-2.1346,-2.1836,-2.1562,-2.121,-2.1268,-2.0937,-2.0644,-2.0644,-2.0957,-2.1094,-2.0683,-2.0918,-2.1055,-2.0664,-2.0605,-2.0625,-2.0644,-2.0977,-2.121,-2.1229,-2.1641,-2.1738,-2.1307,-2.168,-2.1738,-2.1346,-2.1327,-2.1914,-2.3169,-2.3286,-2.3912,-2.5106,-2.5145,-2.5352,-2.5791,-2.6269,-2.6914,-2.7767,-2.7767,-2.793,-2.8301,-2.8301,-2.8301,-2.8301,-2.8301,-2.8555,-2.8965,-2.8965,-2.9492,-3.0234,-3.0234,-3.0527,-3.0898,-3.117,-3.0898,-3.0898,-3.0898,-3.0898,-3.0898,-3.0898,-3.0898,-3.0898,-3.0898,-3.0488,-3.0039,-2.9609,-2.918,-2.875,-2.832,-2.791,-2.7669,-2.7519,-2.6797,-2.6289,-2.6094,-2.5332,-2.4707,-2.4277,-2.3848,-2.3477,-2.3101,-2.3003,-2.2945,-2.2945,-2.2847,-2.2808,-2.2808,-2.2906,-2.2945,-2.2945,-2.3062,-2.3042,-2.2925,-2.2594,-2.2266,-2.1855,-2.1504,-2.1387,-2.1327,-2.1229,-2.1445,-2.1719,-2.1602,-2.1582,-2.1602,-2.1699,-2.166,-2.1504,-2.1172,-2.1074,-2.1054,-2.1171,-2.1406,-2.1621,-2.1836,-2.1816,-2.1836,-2.2266,-2.1777,-2.1385,-2.207,-2.1602,-2.1074,-2.1074,-2.1132,-2.1094,-2.0683,-2.0703,-2.0723,-2.0625,-2.0605,-2.0684,-2.1035,-2.1132,-2.1327,-2.1699,-2.1816,-2.1973,-2.2187,-2.2012,-2.2129,-2.2676,-2.2715,-2.2852,-2.3144,-2.4102,-2.4812,-2.5106,-2.541,-2.5957,-2.6719,-2.7148,-2.7637,-2.8144,-2.8144,-2.8203,-2.8301,-2.8301,-2.8301,-2.8301,-2.8301,-2.873,-2.9414,-2.9414,-2.9961,-3.0723,-3.0723,-3.0801,-3.0898,-3.1325,-3.0898,-3.0898,-3.0898,-3.0898,-3.0898,-3.0898,-3.0898,-3.0898,-3.0898,-3.0488,-3.0039,-2.9609,-2.918,-2.875,-2.832,-2.8086,-2.7793,-2.7402,-2.6934,-2.6504,-2.6113,-2.543,-2.4863,-2.4434,-2.4004,-2.3574,-2.3101,-2.3101,-2.3101,-2.3101,-2.3101,-2.3101,-2.3101,-2.3101,-2.3101,-2.3101,-2.3101,-2.3101,-2.3081,-2.2847,-2.2656,-2.2441,-2.2146,-2.2068,-2.2029,-2.1853,-2.1973,-2.2148,-2.1953,-2.1894,-2.1914,-2.2109,-2.2031,-2.1875,-2.1836,-2.1639,-2.1582,-2.1717,-2.1855,-2.1934,-2.2129,-2.2324,-2.2519,-2.2711,-2.2285,-2.1953,-2.2422,-2.1992,-2.1523,-2.1523,-2.1523,-2.1387,-2.0937,-2.0879,-2.0801,-2.0625,-2.0605,-2.0742,-2.1132,-2.1366,-2.1699,-2.2129,-2.2344,-2.248,-2.2519,-2.2656,-2.2871,-2.3188,-2.3906,-2.4141,-2.3686,-2.459,-2.5176,-2.5371,-2.582,-2.6465,-2.7324,-2.7559,-2.7891,-2.8301,-2.8301,-2.8301,-2.8301,-2.8301,-2.8398,-2.8574,-2.8574,-2.9082,-2.9844,-2.9648,-3.0117,-3.0859,-3.0644,-3.0703,-3.0898,-3.1441,-3.0898,-3.0898,-3.0898,-3.0898,-3.0898,-3.0898,-3.0898,-3.0898,-3.0898,-3.043,-2.9961,-2.9665,-2.9121,-2.8672,-2.832,-2.8301,-2.7988,-2.7246,-2.709,-2.6699,-2.5908,-2.543,-2.4941,-2.4434,-2.3945,-2.3516,-2.3101,-2.3101,-2.3101,-2.3101,-2.3101,-2.3101,-2.3101,-2.3101,-2.3101,-2.3101,-2.3101,-2.3101,-2.3101,-2.3101,-2.3062,-2.3003,-2.3003,-2.3003,-2.2945,-2.2637,-2.2559,-2.2559,-2.2187,-2.207,-2.2129,-2.25,-2.2363,-2.2148,-2.25,-2.2363,-2.2129,-2.2441,-2.2305,-2.2168,-2.2519,-2.2828,-2.3101,-2.3101,-2.2769,-2.2539,-2.2598,-2.2266,-2.1973,-2.1973,-2.1934,-2.1758,-2.1346,-2.119,-2.1055,-2.084,-2.0742,-2.0859,-2.1327,-2.1758,-2.2168,-2.2656,-2.3027,-2.3101,-2.291,-2.3516,-2.375,-2.3521,-2.4902,-2.5343,-2.4648,-2.5098,-2.5547,-2.5888,-2.6367,-2.6953,-2.7728,-2.7787,-2.7988,-2.8398,-2.8398,-2.8418,-2.8476,-2.8476,-2.8691,-2.9023,-2.9023,-2.9492,-3.0156,-2.9805,-3.0042,-3.0529,-3.0392,-3.0431,-3.0587,-3.1228,-3.0898,-3.0898,-3.0898,-3.0898,-3.0898,-3.0898,-3.0898,-3.0898,-3.0898,-3.0176,-2.9648,-2.9626,-2.8867,-2.8359,-2.8301,-2.8301,-2.8242,-2.8105,-2.7422,-2.6953,-2.6816,-2.6005,-2.5254,-2.4434,-2.3608,-2.3159,-2.3101,-2.3101,-2.3101,-2.3101,-2.3101,-2.3101,-2.3101,-2.3101,-2.3101,-2.3101,-2.3101,-2.3101,-2.3101,-2.3101,-2.2886,-2.2617,-2.2617,-2.2617,-2.2555,-2.2539,-2.2734,-2.2984,-2.2925,-2.2906,-2.2906,-2.2984,-2.2945,-2.2906,-2.2984,-2.2945,-2.2847,-2.2598,-2.2672,-2.2925,-2.2984,-2.3042,-2.3101,-2.3101,-2.2769,-2.2617,-2.2925,-2.2715,-2.2422,-2.2422,-2.2129,-2.1855,-2.1797,-2.1152,-2.0938,-2.1582,-2.1367,-2.1385,-2.2227,-2.2383,-2.2715,-2.3516,-2.3652,-2.3965,-2.4675,-2.4453,-2.4453,-2.4812,-2.5391,-2.5635,-2.5479,-2.6289,-2.6738,-2.6816,-2.7246,-2.7591,-2.7728,-2.8027,-2.8418,-2.8828,-2.8828,-2.9023,-2.9375,-2.9375,-2.9414,-2.9473,-2.9473,-2.9746,-3.0195,-3.0117,-2.9564,-2.8961,-3.0315,-2.9963,-2.8979,-3.117,-3.0898,-3.0898,-3.0898,-3.0898,-3.0898,-3.0898,-3.0898,-3.0898,-3.0898,-3.0312,-2.9824,-2.959,-2.9004,-2.8535,-2.832,-2.8301,-2.8301,-2.8301,-2.748,-2.6914,-2.668,-2.6074,-2.543,-2.4785,-2.3926,-2.3496,-2.3496,-2.3198,-2.3101,-2.3101,-2.3101,-2.3101,-2.3101,-2.3101,-2.3101,-2.3101,-2.3101,-2.3101,-2.3101,-2.3101,-2.2984,-2.2808,-2.2808,-2.2808,-2.2808,-2.2808,-2.2925,-2.3101,-2.3101,-2.3101,-2.3101,-2.3101,-2.3101,-2.3101,-2.3101,-2.3101,-2.3062,-2.2847,-2.2945,-2.3101,-2.3101,-2.3101,-2.3101,-2.3101,-2.2945,-2.2867,-2.3062,-2.2945,-2.2808,-2.2808,-2.25,-2.2305,-2.2582,-2.1877,-2.1504,-2.2129,-2.1855,-2.1894,-2.2754,-2.2852,-2.3184,-2.4043,-2.4121,-2.4297,-2.4687,-2.498,-2.5167,-2.541,-2.6289,-2.668,-2.6426,-2.6816,-2.7129,-2.7363,-2.7559,-2.7826,-2.8008,-2.8437,-2.873,-2.8926,-2.916,-2.9375,-2.9626,-2.9626,-2.9707,-2.9902,-2.9902,-3.0176,-3.0566,-3.0566,-3.0277,-2.9844,-3.0587,-3.0392,-2.9844,-3.1112,-3.0898,-3.0898,-3.0898,-3.0898,-3.0898,-3.0898,-3.0898,-3.0898,-3.0898,-3.0488,-3.0039,-2.9609,-2.9277,-2.8867,-2.834,-2.8379,-2.8398,-2.8301,-2.7578,-2.6973,-2.6562,-2.5918,-2.543,-2.5125,-2.4316,-2.3887,-2.3789,-2.3457,-2.3198,-2.3101,-2.3101,-2.3101,-2.3101,-2.3101,-2.3101,-2.3101,-2.3101,-2.3101,-2.3101,-2.3101,-2.3101,-2.3101,-2.3101,-2.3101,-2.3101,-2.3101,-2.3101,-2.3101,-2.3101,-2.3101,-2.3101,-2.3101,-2.3101,-2.3101,-2.3101,-2.3101,-2.3101,-2.3101,-2.3101,-2.3101,-2.3101,-2.3101,-2.3101,-2.3101,-2.3101,-2.3101,-2.3101,-2.3179,-2.3257,-2.3257,-2.3027,-2.293,-2.3306,-2.2598,-2.2207,-2.2734,-2.2441,-2.25,-2.3403,-2.3437,-2.3686,-2.4492,-2.457,-2.4648,-2.4863,-2.546,-2.5888,-2.5986,-2.707,-2.7559,-2.7324,-2.7226,-2.7383,-2.7865,-2.7812,-2.8027,-2.8437,-2.8769,-2.9023,-2.9219,-2.957,-2.9785,-2.9883,-2.9883,-3.0059,-3.0351,-3.0351,-3.0566,-3.0898,-3.0898,-3.0645,-3.0392,-3.0762,-3.0645,-3.0392,-3.0937,-3.0898,-3.0898,-3.0898,-3.0898,-3.0898,-3.0898,-3.0898,-3.0898,-3.0898,-3.0488,-3.0039,-2.9609,-2.9607,-2.9199,-2.8359,-2.8652,-2.8711,-2.832,-2.7871,-2.7422,-2.6992,-2.5781,-2.5145,-2.5106,-2.4609,-2.418,-2.3789,-2.3769,-2.3535,-2.3101,-2.3101,-2.3101,-2.3101,-2.3101,-2.3101,-2.3101,-2.3101,-2.3101,-2.3101,-2.3101,-2.3101,-2.3101,-2.3101,-2.3101,-2.3101,-2.3101,-2.3101,-2.3101,-2.3101,-2.3101,-2.3101,-2.3101,-2.3101,-2.3101,-2.3101,-2.3101,-2.3101,-2.3101,-2.3101,-2.3101,-2.3101,-2.3101,-2.3101,-2.3101,-2.3101,-2.3101,-2.3101,-2.3457,-2.375,-2.375,-2.3711,-2.3711,-2.373,-2.3027,-2.2754,-2.3574,-2.332,-2.3315,-2.4219,-2.4316,-2.4512,-2.5028,-2.5067,-2.5352,-2.6172,-2.6309,-2.6504,-2.6894,-2.7402,-2.7832,-2.8184,-2.7832,-2.7812,-2.8242,-2.8242,-2.8457,-2.8867,-2.8906,-2.9336,-3.0098,-3.0137,-3.0391,-3.0801,-3.0801,-3.082,-3.084,-3.084,-3.0859,-3.0898,-3.0898,-2.9962,-2.8783,-3.0333,-2.9903,-2.8783,-3.0898,-3.0898,-3.0898,-3.0898,-3.0898,-3.0898,-3.0898,-3.0898,-3.0898,-3.0898,-3.0742,-3.0449,-3.0,-2.9961,-2.9726,-2.9141,-2.8984,-2.8848,-2.8691,-2.8281,-2.7734,-2.7051,-2.6289,-2.5898,-2.5898,-2.5176,-2.4746,-2.4636,-2.4043,-2.3711,-2.3535,-2.3218,-2.3101,-2.3101,-2.3101,-2.3101,-2.3101,-2.3101,-2.3101,-2.3101,-2.3101,-2.3101,-2.3101,-2.3101,-2.3101,-2.3101,-2.3101,-2.3101,-2.3101,-2.3101,-2.3101,-2.314,-2.3457,-2.3315,-2.314,-2.3457,-2.373,-2.3926,-2.3926,-2.3491,-2.3159,-2.3477,-2.3535,-2.3613,-2.3867,-2.3926,-2.3926,-2.3926,-2.4062,-2.418,-2.418,-2.418,-2.4258,-2.4531,-2.4082,-2.4004,-2.4883,-2.4609,-2.4668,-2.5547,-2.5644,-2.5801,-2.623,-2.6269,-2.6406,-2.6758,-2.7031,-2.7246,-2.7422,-2.7832,-2.8125,-2.8281,-2.8144,-2.8125,-2.8301,-2.8301,-2.8379,-2.8535,-2.9062,-2.9492,-2.9824,-3.0371,-3.0723,-3.0898,-3.0898,-3.0898,-3.0898,-3.0898,-3.0898,-3.0898,-3.0898,-3.0509,-3.002,-3.0645,-3.0528,-3.002,-3.0898,-3.0898,-3.0898,-3.0898,-3.0898,-3.0898,-3.0898,-3.0898,-3.0898,-3.0898,-3.0898,-3.0703,-3.0254,-3.0332,-3.0195,-2.9685,-2.9297,-2.9062,-2.8926,-2.8516,-2.791,-2.7051,-2.6738,-2.6465,-2.6191,-2.5723,-2.5399,-2.5106,-2.4336,-2.3926,-2.3769,-2.3296,-2.3101,-2.3101,-2.3237,-2.3296,-2.3296,-2.3296,-2.3296,-2.3296,-2.314,-2.3101,-2.312,-2.3257,-2.3218,-2.312,-2.3257,-2.3218,-2.3101,-2.3101,-2.3179,-2.3398,-2.3691,-2.3672,-2.3549,-2.3906,-2.418,-2.4414,-2.4414,-2.3939,-2.3613,-2.3906,-2.3984,-2.4062,-2.4355,-2.4414,-2.4414,-2.4414,-2.4531,-2.4629,-2.4629,-2.4844,-2.5098,-2.5254,-2.5137,-2.5254,-2.5859,-2.5684,-2.5762,-2.6504,-2.6582,-2.6699,-2.6992,-2.7012,-2.707,-2.7207,-2.75,-2.7787,-2.7851,-2.8144,-2.8301,-2.8301,-2.8301,-2.8359,-2.8496,-2.8496,-2.8555,-2.8711,-2.9414,-2.9844,-3.0,-3.0625,-3.0898,-3.0898,-3.0898,-3.0898,-3.0898,-3.0898,-3.0898,-3.0898,-3.0898,-3.0898,-3.0898,-3.0898,-3.0898,-3.0898,-3.0898,-3.0898,-3.0898,-3.0898,-3.0898,-3.0898,-3.0898,-3.0898,-3.0898,-3.0898,-3.0898,-3.0723,-3.0254,-3.0605,-3.0527,-2.9704,-2.9626,-2.9394,-2.8945,-2.8516,-2.791,-2.7051,-2.7031,-2.6621,-2.5713,-2.6172,-2.5957,-2.5125,-2.4629,-2.4199,-2.3789,-2.3315,-2.3101,-2.312,-2.3594,-2.3789,-2.3789,-2.3789,-2.3789,-2.375,-2.3276,-2.3101,-2.3159,-2.3633,-2.3516,-2.3159,-2.3633,-2.3516,-2.3101,-2.3101,-2.3437,-2.3789,-2.3789,-2.4082,-2.4434,-2.4414,-2.4414,-2.4434,-2.4434,-2.4434,-2.4434,-2.4414,-2.4414,-2.4434,-2.4434,-2.4434,-2.4434,-2.4434,-2.4785,-2.5125,-2.5125,-2.5801,-2.625,-2.5771,-2.6113,-2.6387,-2.6406,-2.6406,-2.6562,-2.6973,-2.7031,-2.7031,-2.7031,-2.7031,-2.7207,-2.7689,-2.7728,-2.7851,-2.8281,-2.8301,-2.8301,-2.8301,-2.8301,-2.8496,-2.8906,-2.8926,-2.9141,-2.957,-3.0,-3.043,-3.0879,-3.0898,-3.0898,-3.0898,-3.0898,-3.0898,-3.0898,-3.0898,-3.0898,-3.0898,-3.0898,-3.0898,-3.0898,-3.0898,-3.0898,-3.0898,-3.0898,-3.0898,-3.0898,-3.0898,-3.0898,-3.0898,-3.0898,-3.0898,-3.0898,-3.0898,-3.0898,-3.084,-3.0703,-3.082,-3.0781,-3.0508,-3.0195,-2.9707,-2.8965,-2.8516,-2.8047,-2.75,-2.748,-2.7207,-2.6641,-2.6465,-2.6113,-2.5527,-2.5098,-2.4805,-2.4668,-2.4238,-2.3978,-2.4043,-2.418,-2.4238,-2.4238,-2.4238,-2.4238,-2.4219,-2.4082,-2.3978,-2.4043,-2.418,-2.4141,-2.4043,-2.418,-2.4141,-2.3978,-2.3978,-2.4121,-2.4238,-2.4238,-2.4746,-2.5273,-2.4961,-2.5098,-2.5362,-2.5723,-2.5801,-2.5644,-2.5019,-2.5117,-2.5284,-2.5284,-2.5801,-2.6152,-2.5859,-2.6133,-2.6426,-2.6426,-2.6641,-2.6777,-2.666,-2.6738,-2.6934,-2.7297,-2.7337,-2.7441,-2.7871,-2.791,-2.791,-2.791,-2.791,-2.7969,-2.8105,-2.8105,-2.8418,-2.916,-2.8906,-2.873,-2.873,-2.9023,-2.9101,-2.8926,-2.8926,-2.9141,-2.957,-3.0,-3.0273,-3.041,-3.0742,-3.0898,-3.0898,-3.0898,-3.0898,-3.0898,-3.0898,-3.0898,-3.0898,-3.0898,-3.0898,-3.0898,-3.0898,-3.0898,-3.0898,-3.0898,-3.0898,-3.0898,-3.0898,-3.0898,-3.0898,-3.0898,-3.0898,-3.0898,-3.0898,-3.0898,-3.0898,-3.0898,-3.0898,-3.0898,-3.0898,-3.0469,-2.9824,-2.8984,-2.8672,-2.8359,-2.793,-2.791,-2.7637,-2.7031,-2.6934,-2.6602,-2.5996,-2.5547,-2.5234,-2.5106,-2.4629,-2.4414,-2.4414,-2.459,-2.4668,-2.4668,-2.4668,-2.4668,-2.4668,-2.4492,-2.4414,-2.4434,-2.4609,-2.457,-2.4434,-2.4609,-2.457,-2.4414,-2.4414,-2.4531,-2.4727,-2.5078,-2.5566,-2.5977,-2.5859,-2.6035,-2.6309,-2.6562,-2.6641,-2.6504,-2.5977,-2.6035,-2.62,-2.62,-2.6641,-2.6934,-2.6699,-2.6836,-2.7012,-2.7012,-2.7148,-2.7285,-2.7285,-2.7402,-2.7617,-2.7871,-2.791,-2.8008,-2.8262,-2.8437,-2.8476,-2.832,-2.8594,-2.8789,-2.8789,-2.8789,-2.9023,-2.9607,-2.9316,-2.918,-2.918,-2.9434,-2.9531,-2.9434,-2.9414,-2.9551,-2.9824,-3.0254,-3.0469,-3.0488,-3.0762,-3.0898,-3.0898,-3.0898,-3.0898,-3.0898,-3.0898,-3.0898,-3.0898,-3.0898,-3.0898,-3.0898,-3.0898,-3.0898,-3.0898,-3.0898,-3.0898,-3.0898,-3.0898,-3.0898,-3.0898,-3.0898,-3.0898,-3.0898,-3.0898,-3.0898,-3.0898,-3.0898,-3.0898,-3.0898,-3.0898,-3.0469,-2.9863,-2.9082,-2.8965,-2.875,-2.8359,-2.832,-2.793,-2.7148,-2.748,-2.7266,-2.6445,-2.6016,-2.5586,-2.5223,-2.4746,-2.4531,-2.4551,-2.4941,-2.5137,-2.5184,-2.5223,-2.5204,-2.5145,-2.4746,-2.457,-2.457,-2.498,-2.4883,-2.459,-2.498,-2.4883,-2.4551,-2.457,-2.4863,-2.538,-2.6172,-2.6445,-2.6523,-2.6894,-2.7012,-2.7031,-2.707,-2.707,-2.709,-2.7129,-2.7129,-2.7109,-2.7031,-2.707,-2.7129,-2.709,-2.7109,-2.7129,-2.7129,-2.7461,-2.7767,-2.7767,-2.8047,-2.8301,-2.8301,-2.832,-2.834,-2.834,-2.8711,-2.8828,-2.8437,-2.9101,-2.959,-2.9685,-2.959,-2.9609,-2.9687,-2.9704,-2.9629,-2.9629,-2.9668,-2.9844,-3.0195,-3.0234,-3.0254,-3.0273,-3.0684,-3.0898,-3.0898,-3.0898,-3.0898,-3.0898,-3.0898,-3.0898,-3.0898,-3.0898,-3.0898,-3.0898,-3.0898,-3.0898,-3.0898,-3.0898,-3.082,-3.0626,-3.0898,-3.0898,-3.0898,-3.0898,-3.0898,-3.0898,-3.0898,-3.0898,-3.0898,-3.0898,-3.0898,-3.0898,-3.0898,-3.0898,-3.0898,-3.0898,-3.0469,-3.0117,-2.9922,-2.9297,-2.8887,-2.8789,-2.8476,-2.8203,-2.8027,-2.7793,-2.7402,-2.6875,-2.6445,-2.6191,-2.6094,-2.5664,-2.5401,-2.5401,-2.5499,-2.5586,-2.5557,-2.5957,-2.5898,-2.5557,-2.5859,-2.5762,-2.5421,-2.5499,-2.5527,-2.5421,-2.5499,-2.5479,-2.546,-2.584,-2.6016,-2.6191,-2.6719,-2.6875,-2.6894,-2.6992,-2.7012,-2.709,-2.7422,-2.7519,-2.7598,-2.793,-2.8008,-2.7832,-2.7168,-2.7539,-2.793,-2.7598,-2.7793,-2.8008,-2.8008,-2.8086,-2.8164,-2.8164,-2.8242,-2.8301,-2.8301,-2.8574,-2.8789,-2.8789,-2.916,-2.9394,-2.9297,-2.9509,-2.9707,-3.0039,-2.9766,-2.9883,-3.0566,-3.0254,-3.0059,-3.0059,-3.041,-3.0469,-3.0195,-3.0566,-3.0742,-3.0742,-3.084,-3.0898,-3.0898,-3.0898,-3.0898,-3.0898,-3.0898,-3.0898,-3.0898,-3.0898,-3.0898,-3.0898,-3.0898,-3.0898,-3.0898,-3.0898,-3.0079,-2.8555,-3.0898,-3.0898,-3.0898,-3.0898,-3.0898,-3.0898,-3.0898,-3.0898,-3.0898,-3.0898,-3.0898,-3.0898,-3.0898,-3.0898,-3.0898,-3.0898,-3.0664,-3.043,-3.0215,-2.959,-2.9141,-2.8926,-2.8516,-2.8301,-2.8301,-2.8066,-2.7754,-2.7324,-2.7109,-2.6797,-2.6387,-2.6152,-2.5888,-2.5693,-2.5908,-2.6055,-2.6074,-2.6504,-2.6562,-2.6317,-2.6602,-2.6543,-2.6298,-2.6298,-2.6298,-2.6298,-2.6298,-2.6298,-2.6387,-2.6602,-2.668,-2.6758,-2.7187,-2.7324,-2.7363,-2.7559,-2.7617,-2.7676,-2.791,-2.8105,-2.832,-2.8535,-2.875,-2.8672,-2.7812,-2.7969,-2.8281,-2.8262,-2.8437,-2.8652,-2.8867,-2.8906,-2.8906,-2.8906,-2.8906,-2.8906,-2.8906,-2.9082,-2.9219,-2.9219,-2.9609,-2.9961,-3.0176,-3.0,-3.0059,-3.0488,-3.0332,-3.041,-3.0859,-3.0664,-3.0527,-3.0527,-3.0762,-3.0781,-3.0527,-3.0762,-3.0898,-3.0898,-3.0898,-3.0898,-3.0898,-3.0898,-3.0898,-3.0898,-3.0898,-3.0898,-3.0898,-3.0898,-3.045,-2.9785,-3.0587,-2.9962,-2.8683,-2.9412,-2.8664,-2.6884,-3.0898,-3.0898,-3.0898,-3.0898,-3.0898,-3.0898,-3.0898,-3.0898,-3.0898,-3.0898,-3.0898,-3.0898,-3.0898,-3.0898,-3.0898,-3.0898,-3.0898,-3.0723,-3.0351,-2.9922,-2.9512,-2.916,-2.8672,-2.8398,-2.8398,-2.832,-2.8125,-2.7826,-2.7748,-2.7356,-2.6602,-2.6523,-2.6309,-2.5927,-2.6328,-2.6504,-2.6523,-2.6953,-2.709,-2.7031,-2.709,-2.709,-2.7012,-2.7012,-2.7012,-2.7012,-2.7012,-2.7012,-2.7031,-2.7109,-2.7129,-2.7207,-2.7637,-2.7826,-2.7904,-2.8184,-2.834,-2.8398,-2.8398,-2.8711,-2.9023,-2.9023,-2.9297,-2.9375,-2.8672,-2.8516,-2.8613,-2.8965,-2.9023,-2.9141,-2.9512,-2.9626,-2.9626,-2.9626,-2.9626,-2.9626,-2.9626,-2.9629,-2.9668,-2.9668,-3.0059,-3.0469,-3.0859,-3.0547,-3.0469,-3.0859,-3.0898,-3.0898,-3.0898,-3.0898,-3.0898,-3.0898,-3.0898,-3.0898,-3.0898,-3.0898,-3.0898,-3.0898,-3.0957,-3.0996,-3.0996,-3.0918,-3.0937,-3.0996,-3.0918,-3.0898,-3.0898,-3.0587,-2.9648,-2.8486,-2.9648,-2.8426,-2.6106,-2.7211,-2.6772,-2.542,-3.0898,-3.0898,-3.0898,-3.0898,-3.0898,-3.0898,-3.0898,-3.0898,-3.0898,-3.0898,-3.0898,-3.0898,-3.0898,-3.0898,-3.0898,-3.0898,-3.0898,-3.0859,-3.0801,-3.0371,-3.0078,-3.0019,-2.9258,-2.8828,-2.8828,-2.8476,-2.8262,-2.8203,-2.7904,-2.7669,-2.7532,-2.7109,-2.6894,-2.6855,-2.6914,-2.6934,-2.6953,-2.7402,-2.7363,-2.7051,-2.7422,-2.7344,-2.7012,-2.7012,-2.7012,-2.7012,-2.7012,-2.7012,-2.707,-2.7461,-2.763,-2.7708,-2.8066,-2.8203,-2.8223,-2.8281,-2.8555,-2.8828,-2.8828,-2.9141,-2.9492,-2.9492,-2.9531,-2.9607,-2.9434,-2.9394,-2.9414,-2.9473,-2.9492,-2.9492,-2.9607,-2.9626,-2.9626,-2.9626,-2.9626,-2.9626,-2.9626,-2.9883,-3.0117,-3.0117,-3.0508,-3.082,-3.0879,-3.084,-3.082,-3.0879,-3.0898,-3.0898,-3.0898,-3.0898,-3.0898,-3.0898,-3.0898,-3.0898,-3.0898,-3.0898,-3.0898,-3.0898,-3.1269,-3.1426,-3.1426,-3.1055,-3.1094,-3.1406,-3.1055,-3.0898,-3.0762,-2.9353,-2.8605,-2.8289,-2.7134,-2.6409,-2.5863,-2.4655,-2.4271,-2.407,-3.125,-3.1055,-3.0898,-3.0898,-3.0898,-3.0898,-3.0898,-3.1094,-3.1152,-3.0918,-3.1094,-3.1152,-3.0918,-3.0898,-3.0898,-3.0898,-3.0898,-3.0898,-3.0898,-3.0449,-3.0195,-3.0195,-2.9609,-2.916,-2.8926,-2.8965,-2.8769,-2.8301,-2.8105,-2.7891,-2.7708,-2.748,-2.7246,-2.7031,-2.7266,-2.7383,-2.7402,-2.7832,-2.791,-2.7754,-2.793,-2.791,-2.7734,-2.7734,-2.7734,-2.7734,-2.7734,-2.7734,-2.7754,-2.7949,-2.8008,-2.8086,-2.8516,-2.8633,-2.8691,-2.8945,-2.9141,-2.9277,-2.9277,-2.959,-2.9922,-2.9922,-3.0117,-3.0312,-3.0312,-3.0312,-3.0234,-2.998,-2.9922,-3.0,-3.0254,-3.0312,-3.0312,-3.0312,-3.0312,-3.0312,-3.0312,-3.0469,-3.0586,-3.0586,-3.0762,-3.0898,-3.0898,-3.0898,-3.0898,-3.0898,-3.0898,-3.0898,-3.0898,-3.0898,-3.0898,-3.0898,-3.0898,-3.0898,-3.0898,-3.0898,-3.1016,-3.125,-3.1426,-3.1523,-3.1523,-3.1582,-3.1699,-3.1855,-3.1426,-3.0738,-2.9789,-2.8815,-2.7331,-2.5757,-2.5924,-2.5436,-2.4502,-2.303,-2.2532,-2.2561]},{"header":{"parameterUnit":"m.s-1","parameterCategory":1,"la1":30.6,"la2":28.766,"lo1":-90.7593,"lo2":-88.6598,"dy":0.0162,"dx":0.0183,"nx":116,"ny":114,"refTime":"2023-10-05T06:00:00:Z","depth":0,"parameterNumber":3,"parameterNumberName":"V-component_of_WINDS"},"data":[0.0,0.0,0.0,0.0,0.0,0.0,0.0,0.0,0.0,0.0,0.0,0.0,0.0,0.0,0.0,0.0,0.0,0.0,0.0,0.0,0.0,0.0,0.0,0.0,0.0,0.0,0.0,0.0,0.0,0.0,0.0,0.0,0.0,0.0,0.0,0.0,0.0,0.0,0.0,0.0,0.0,0.0,0.0,0.0,0.0,0.0,0.0,0.0,0.0,0.0,0.0,0.0,0.0,0.0,0.0,0.0,0.0,0.0,0.0,0.0,0.0,0.0,0.0,0.0,0.0,0.0,0.0,0.0,0.0,0.0,0.0,0.0,0.0,0.0,0.0,0.0,0.0,0.0,0.0,0.0,0.0,0.0,0.0,0.0,0.0,0.0,0.0,0.0,0.0,0.0,0.0,0.0,0.0,0.0,0.0,0.0,0.0,0.0,0.0,0.0,0.0,0.0,0.0,0.0,0.0,0.0,0.0,0.0,0.0,0.0,0.0,0.0,0.0,0.0,0.0,0.0,0.0,0.0,0.0,0.0,0.0,0.0,0.0,0.0,0.0,0.0,0.0,0.0,0.0,0.0,0.0,0.0,0.0,0.0,0.0,0.0,0.0,0.0,0.0,0.0,0.0,0.0,0.0,0.0,0.0,0.0,0.0,0.0,0.0,0.0,0.0,0.0,0.0,0.0,0.0,0.0,0.0,0.0,0.0,0.0,0.0,0.0,0.0,0.0,0.0,0.0,0.0,0.0,0.0,0.0,0.0,0.0,0.0,0.0,0.0,0.0,0.0,0.0,0.0,0.0,0.0,0.0,0.0,0.0,0.0,0.0,0.0,0.0,0.0,0.0,0.0,0.0,0.0,0.0,0.0,0.0,0.0,0.0,0.0,0.0,0.0,0.0,0.0,0.0,0.0,0.0,0.0,0.0,0.0,0.0,0.0,0.0,0.0,0.0,0.0,0.0,0.0,0.0,0.0,0.0,0.0,0.0,0.0,0.0,0.0,0.0,0.0,0.0,0.0,0.0,0.0,0.0,0.0,0.0,0.0,0.0,0.0,0.0,0.0,0.0,0.0,0.0,0.0,0.0,0.0,0.0,0.0,0.0,0.0,0.0,0.0,0.0,0.0,0.0,0.0,0.0,0.0,0.0,0.0,0.0,0.0,0.0,0.0,0.0,0.0,0.0,0.0,0.0,0.0,0.0,0.0,0.0,0.0,0.0,0.0,0.0,0.0,0.0,0.0,0.0,0.0,0.0,0.0,0.0,0.0,0.0,0.0,0.0,0.0,0.0,0.0,0.0,0.0,0.0,0.0,0.0,0.0,0.0,0.0,0.0,0.0,0.0,0.0,0.0,0.0,0.0,0.0,0.0,0.0,0.0,0.0,0.0,0.0,0.0,0.0,0.0,0.0,0.0,0.0,0.0,0.0,0.0,0.0,0.0,0.0,0.0,0.0,0.0,0.0,0.0,0.0,0.0,0.0,0.0,0.0,0.0,0.0,0.0,0.0,0.0,0.0,0.0,0.0,0.0,0.0,0.0,0.0,0.0,0.0,0.0,0.0,0.0,0.0,0.0,0.0,0.0,0.0,0.0,0.0,0.0,0.0,0.0,0.0,0.0,0.0,0.0,0.0,0.0,0.0,0.0,0.0,0.0,0.0,0.0,0.0,0.0,0.0,0.0,0.0,0.0,0.0,0.0,0.0,0.0,0.0,0.0,0.0,0.0,0.0,0.0,0.0,0.0,0.0,0.0,0.0,0.0,0.0,0.0,0.0,0.0,0.0,0.0,0.0,0.0,0.0,0.0,0.0,0.0,0.0,0.0,0.0,0.0,0.0,0.0,0.0,0.0,0.0,0.0,0.0,0.0,0.0,0.0,0.0,0.0,0.0,0.0,0.0,0.0,0.0,0.0,0.0,0.0,0.0,0.0,0.0,0.0,0.0,0.0,0.0,0.0,0.0,0.0,0.0,0.0,0.0,0.0,0.0,0.0,0.0,0.0,0.0,0.0,0.0,0.0,0.0,0.0,0.0,0.0,0.0,0.0,0.0,0.0,0.0,0.0,0.0,0.0,0.0,0.0,0.0,0.0,0.0,0.0,0.0,0.0,0.0,0.0,0.0,0.0,0.0,0.0,0.0,0.0,0.0,0.0,0.0,0.0,0.0,0.0,0.0,0.0,0.0,0.0,0.0,0.0,0.0,0.0,0.0,0.0,0.0,0.0,0.0,0.0,0.0,0.0,0.0,0.0,0.0,0.0,0.0,0.0,0.0,0.0,0.0,0.0,0.0,0.0,0.0,0.0,0.0,0.0,0.0,0.0,0.0,0.0,0.0,0.0,0.0,0.0,0.0,0.0,0.0,0.0,0.0,0.0,0.0,0.0,0.0,0.0,0.0,0.0,0.0,0.0,0.0,0.0,0.0,0.0,0.0,0.0,0.0,0.0,0.0,0.0,0.0,0.0,0.0,0.0,0.0,0.0,0.0,0.0,0.0,0.0,0.0,0.0,0.0,0.0,0.0,0.0,0.0,0.0,0.0,0.0,0.0,0.0,0.0,0.0,0.0,0.0,0.0,0.0,0.0,0.0,0.0,0.0,0.0,0.0,0.0,0.0,0.0,0.0,0.0,0.0,0.0,0.0,0.0,0.0,0.0,0.0,0.0,0.0,0.0,0.0,0.0,0.0,0.0,0.0,0.0,0.0,0.0,0.0,0.0,0.0,0.0,0.0,0.0,0.0,0.0,0.0,0.0,0.0,0.0,0.0,0.0,0.0,0.0,0.0,0.0,0.0,0.0,0.0,0.0,0.0,0.0,0.0,0.0,0.0,0.0,0.0,0.0,0.0,0.0,0.0,0.0,0.0,0.0,0.0,0.0,0.0,0.0,0.0,0.0,0.0,0.0,0.0,0.0,0.0,0.0,0.0,0.0,0.0,0.0,0.0,0.0,0.0,0.0,0.0,0.0,0.0,0.0,0.0,0.0,0.0,0.0,0.0,0.0,0.0,0.0,0.0,0.0,0.0,0.0,0.0,0.0,0.0,0.0,0.0,0.0,0.0,0.0,0.0,0.0,0.0,0.0,0.0,0.0,0.0,0.0,0.0,0.0,0.0,0.0,0.0,0.0,0.0,0.0,0.0,0.0,0.0,0.0,0.0,0.0,0.0,0.0,0.0,0.0,0.0,0.0,0.0,0.0,0.0,0.0,0.0,0.0,0.0,0.0,0.0,0.0,0.0,0.0,0.0,0.0,0.0,0.0,0.0,0.0,0.0,0.0,0.0,0.0,0.0,0.0,0.0,0.0,0.0,0.0,0.0,0.0,0.0,0.0,0.0,0.0,0.0,0.0,0.0,0.0,0.0,0.0,0.0,0.0,0.0,0.0,0.0,0.0,0.0,0.0,0.0,0.0,0.0,0.0,0.0,0.0,0.0,0.0,0.0,0.0,0.0,0.0,0.0,0.0,0.0,0.0,0.0,0.0,0.0,0.0,0.0,0.0,0.0,0.0,0.0,0.0,0.0,0.0,0.0,0.0,0.0,0.0,0.0,0.0,0.0,0.0,0.0,0.0,0.0,0.0,0.0,0.0,0.0,0.0,0.0,0.0,0.0,0.0,0.0,0.0,0.0,0.0,0.0,0.0,0.0,0.0,0.0,0.0,0.0,0.0,0.0,0.0,0.0,0.0,0.0,0.0,0.0,0.0,0.0,0.0,0.0,0.0,0.0,0.0,0.0,0.0,0.0,0.0,0.0,0.0,0.0,0.0,0.0,0.0,0.0,0.0,0.0,0.0,0.0,0.0,0.0,0.0,0.0,0.0,0.0,0.0,0.0,0.0,0.0,0.0,0.0,0.0,0.0,0.0,0.0,0.0,0.0,0.0,0.0,0.0,0.0,0.0,0.0,0.0,0.0,0.0,0.0,0.0,0.0,0.0,0.0,0.0,0.0,0.0,0.0,0.0,0.0,0.0,0.0,0.0,0.0,0.0,0.0,0.0,0.0,0.0,0.0,0.0,0.0,0.0,0.0,0.0,0.0,0.0,0.0,0.0,0.0,0.0,0.0,0.0,0.0,0.0,0.0,0.0,0.0,0.0,0.0,0.0,0.0,0.0,0.0,0.0,0.0,0.0,0.0,0.0,0.0,0.0,0.0,0.0,0.0,0.0,0.0,0.0,0.0,0.0,0.0,0.0,0.0,0.0,0.0,0.0,0.0,0.0,0.0,0.0,0.0,0.0,0.0,0.0,0.0,0.0,0.0,0.0,0.0,0.0,0.0,0.0,0.0,0.0,0.0,0.0,0.0,0.0,0.0,0.0,0.0,0.0,0.0,0.0,0.0,0.0,0.0,0.0,0.0,0.0,0.0,0.0,0.0,0.0,0.0,0.0,0.0,0.0,0.0,0.0,0.0,0.0,0.0,0.0,0.0,0.0,0.0,0.0,0.0,0.0,0.0,0.0,0.0,0.0,0.0,0.0,0.0,0.0,0.0,0.0,0.0,0.0,0.0,0.0,0.0,0.0,0.0,0.0,0.0,0.0,0.0,0.0,0.0,0.0,0.0,0.0,0.0,0.0,0.0,0.0,0.0,0.0,0.0,0.0,0.0,0.0,0.0,0.0,0.0,0.0,0.0,0.0,0.0,0.0,0.0,0.0,0.0,0.0,0.0,0.0,0.0,0.0,0.0,0.0,0.0,0.0,0.0,0.0,0.0,0.0,0.0,0.0,0.0,0.0,0.0,0.0,0.0,0.0,0.0,0.0,0.0,0.0,0.0,0.0,0.0,0.0,0.0,0.0,0.0,0.0,0.0,0.0,0.0,0.0,0.0,0.0,0.0,0.0,0.0,0.0,0.0,0.0,0.0,0.0,0.0,0.0,0.0,0.0,0.0,0.0,0.0,0.0,0.0,0.0,0.0,0.0,0.0,0.0,0.0,0.0,0.0,0.0,0.0,0.0,0.0,0.0,0.0,0.0,0.0,0.0,0.0,0.0,0.0,0.0,0.0,0.0,0.0,0.0,0.0,0.0,0.0,0.0,0.0,0.0,0.0,0.0,0.0,0.0,0.0,0.0,0.0,0.0,0.0,0.0,0.0,0.0,0.0,0.0,0.0,0.0,0.0,0.0,0.0,0.0,0.0,0.0,0.0,0.0,0.0,0.0,0.0,0.0,0.0,0.0,0.0,0.0,0.0,0.0,0.0,0.0,0.0,0.0,0.0,0.0,0.0,0.0,0.0,0.0,0.0,0.0,0.0,0.0,0.0,0.0,0.0,0.0,0.0,0.0,0.0,0.0,0.0,0.0,0.0,0.0,0.0,0.0,0.0,0.0,0.0,0.0,0.0,0.0,0.0,0.0,0.0,0.0,0.0,0.0,0.0,0.0,0.0,0.0,0.0,0.0,0.0,0.0,0.0,0.0,0.0,0.0,0.0,0.0,0.0,0.0,0.0,0.0,0.0,0.0,0.0,0.0,0.0,0.0,0.0,0.0,0.0,0.0,0.0,0.0,0.0,0.0,0.0,0.0,0.0,0.0,0.0,0.0,0.0,0.0,0.0,0.0,0.0,0.0,0.0,0.0,0.0,0.0,0.0,0.0,0.0,0.0,0.0,0.0,0.0,0.0,0.0,0.0,0.0,0.0,0.0,0.0,0.0,0.0,0.0,0.0,0.0,0.0,0.0,0.0,0.0,0.0,0.0,0.0,0.0,0.0,0.0,0.0,0.0,0.0,0.0,0.0,0.0,0.0,0.0,0.0,0.0,0.0,0.0,0.0,0.0,0.0,0.0,0.0,0.0,0.0,0.0,0.0,0.0,0.0,0.0,0.0,0.0,0.0,0.0,0.0,0.0,0.0,0.0,0.0,0.0,0.0,0.0,0.0,0.0,0.0,0.0,0.0,0.0,0.0,0.0,0.0,0.0,0.0,0.0,0.0,0.0,0.0,0.0,0.0,0.0,0.0,0.0,0.0,0.0,0.0,0.0,0.0,0.0,0.0,0.0,0.0,0.0,0.0,0.0,0.0,0.0,0.0,0.0,0.0,0.0,0.0,0.0,0.0,0.0,0.0,0.0,0.0,0.0,0.0,0.0,0.0,0.0,0.0,0.0,0.0,0.0,0.0,0.0,0.0,0.0,2.5688,2.4066,0.0,0.0,0.0,0.0,0.0,0.0,0.0,0.0,0.0,0.0,0.0,0.0,0.0,0.0,0.0,0.0,0.0,0.0,0.0,0.0,0.0,0.0,0.0,0.0,0.0,0.0,0.0,0.0,0.0,0.0,0.0,0.0,0.0,0.0,0.0,0.0,0.0,2.2219,2.2081,2.2194,2.2547,2.3193,2.3851,2.4554,0.0,0.0,0.0,0.0,0.0,0.0,0.0,0.0,0.0,0.0,0.0,0.0,0.0,0.0,0.0,0.0,0.0,0.0,0.0,0.0,0.0,0.0,0.0,0.0,0.0,0.0,0.0,0.0,0.0,0.0,0.0,0.0,0.0,0.0,0.0,0.0,0.0,0.0,0.0,0.0,0.0,0.0,0.0,0.0,0.0,0.0,0.0,0.0,0.0,0.0,0.0,0.0,0.0,0.0,0.0,0.0,0.0,0.0,0.0,0.0,0.0,0.0,0.0,0.0,0.0,0.0,0.0,0.0,0.0,0.0,2.7426,2.5692,0.0,0.0,0.0,0.0,0.0,0.0,0.0,0.0,0.0,0.0,0.0,0.0,0.0,0.0,0.0,0.0,0.0,0.0,0.0,0.0,0.0,0.0,0.0,1.8843,1.9268,1.9938,2.0614,2.0909,0.0,0.0,0.0,0.0,0.0,0.0,2.1917,2.1826,2.1702,2.1481,2.1564,2.1915,2.2485,2.2886,2.3703,2.4831,2.4713,0.0,0.0,0.0,0.0,0.0,0.0,0.0,0.0,0.0,0.0,0.0,0.0,0.0,0.0,0.0,0.0,0.0,0.0,0.0,0.0,0.0,0.0,0.0,0.0,0.0,0.0,0.0,0.0,0.0,0.0,0.0,0.0,0.0,0.0,0.0,0.0,0.0,0.0,0.0,0.0,0.0,0.0,0.0,0.0,0.0,0.0,0.0,0.0,0.0,0.0,0.0,0.0,0.0,0.0,0.0,0.0,0.0,0.0,0.0,0.0,0.0,0.0,0.0,3.2576,3.3398,3.4062,3.3906,3.375,3.3359,3.011,2.8191,2.7371,2.7293,0.0,0.0,0.0,0.0,0.0,0.0,0.0,0.0,0.0,0.0,0.0,0.0,0.0,0.0,0.0,0.0,0.0,0.0,0.0,1.8774,1.8993,1.9061,1.912,1.9252,1.9331,1.9577,1.9999,0.0,0.0,0.0,0.0,0.0,2.1971,2.157,2.1377,2.1325,2.1895,2.2798,2.401,2.4715,2.5692,2.6807,2.4953,2.4902,2.6169,0.0,0.0,0.0,0.0,0.0,0.0,0.0,0.0,0.0,0.0,0.0,0.0,0.0,0.0,0.0,0.0,0.0,0.0,0.0,0.0,0.0,0.0,0.0,0.0,0.0,0.0,0.0,0.0,0.0,0.0,0.0,0.0,0.0,0.0,0.0,0.0,0.0,0.0,0.0,0.0,0.0,2.5205,2.5031,0.0,0.0,0.0,0.0,0.0,0.0,0.0,0.0,0.0,0.0,0.0,0.0,0.0,3.2605,3.3351,3.5065,3.5661,3.5151,3.6013,3.6584,3.6758,3.6016,3.6836,3.8789,3.6797,0.0,2.9257,2.9165,0.0,0.0,0.0,0.0,0.0,0.0,0.0,0.0,0.0,0.0,0.0,0.0,0.0,0.0,0.0,0.0,0.0,0.0,0.0,0.0,0.0,1.939,1.9894,2.0305,2.1361,2.1845,2.1438,2.1667,0.0,0.0,0.0,2.0416,2.0707,2.0513,2.0935,2.2089,2.3091,2.4219,2.5447,2.5769,2.63,2.7028,2.6253,2.5946,2.6,2.5721,0.0,0.0,0.0,0.0,0.0,0.0,0.0,0.0,0.0,0.0,0.0,0.0,0.0,0.0,0.0,0.0,0.0,0.0,0.0,0.0,0.0,0.0,0.0,0.0,0.0,0.0,0.0,0.0,0.0,0.0,0.0,0.0,0.0,0.0,0.0,0.0,0.0,0.0,0.0,2.6625,2.7393,2.6343,2.7924,2.8372,0.0,0.0,0.0,0.0,0.0,0.0,0.0,0.0,0.0,3.2931,3.4378,3.5311,3.5697,3.7445,3.837,3.8555,3.9466,4.024,4.0844,4.0454,4.0931,4.1992,4.1211,3.9062,3.5976,3.3936,3.2102,3.0507,0.0,0.0,0.0,0.0,2.9126,2.968,0.0,0.0,0.0,0.0,0.0,0.0,0.0,0.0,0.0,0.0,0.0,0.0,1.9396,2.0303,2.1124,2.1823,2.3141,2.3448,2.2448,2.2399,2.1867,2.0712,2.0215,2.0037,2.0217,2.0707,2.1864,2.3691,2.4837,2.5982,2.713,2.713,2.7542,2.8286,2.8227,2.7651,2.671,2.6458,2.5928,2.5264,0.0,0.0,0.0,0.0,0.0,0.0,0.0,0.0,0.0,0.0,0.0,0.0,0.0,0.0,0.0,0.0,0.0,0.0,0.0,0.0,0.0,0.0,0.0,0.0,0.0,0.0,0.0,0.0,0.0,0.0,0.0,0.0,0.0,0.0,0.0,0.0,0.0,2.8425,2.9214,2.7538,2.9922,3.0592,0.0,0.0,0.0,0.0,0.0,0.0,3.3441,3.4791,3.5827,3.6651,3.8065,3.8821,3.8821,4.0482,4.1571,4.202,4.2692,4.3467,4.4187,4.4418,4.4565,4.4596,4.4596,4.3898,4.2497,3.8552,3.5934,3.4297,3.3377,3.2669,3.2215,3.2781,3.3163,3.3636,0.0,0.0,0.0,0.0,0.0,0.0,0.0,0.0,0.0,0.0,0.0,2.0115,2.1395,2.2154,2.2813,2.3443,2.3053,2.2495,2.1813,2.0572,1.9834,1.978,2.0337,2.0946,2.1575,2.3409,2.5023,2.6393,2.7106,2.8124,2.9439,2.9439,3.0394,3.2064,3.0871,3.0028,2.9364,2.7487,2.7192,2.7825,2.5877,0.0,0.0,0.0,0.0,0.0,0.0,0.0,0.0,0.0,0.0,0.0,0.0,0.0,0.0,0.0,0.0,0.0,0.0,0.0,0.0,0.0,0.0,0.0,0.0,0.0,0.0,0.0,0.0,0.0,0.0,0.0,0.0,0.0,0.0,0.0,0.0,0.0,0.0,2.8138,3.1433,0.0,0.0,0.0,0.0,3.3376,3.5316,3.6841,3.7753,3.9364,4.0654,4.1506,4.3532,4.4598,4.4598,4.5889,4.6205,4.5551,4.5596,4.5681,4.581,4.6623,4.7012,4.7017,4.7017,4.7033,4.6715,4.1754,3.8672,3.7031,3.6133,3.5781,3.5742,3.5781,3.6328,3.7031,0.0,0.0,0.0,0.0,0.0,0.0,0.0,0.0,1.8565,1.9258,2.0288,2.1335,2.2254,2.367,2.4657,2.4866,2.5488,2.5146,2.3498,2.3058,2.2415,2.1411,2.134,2.1844,2.2892,2.4448,2.6123,2.7889,2.8936,3.0133,3.148,3.148,3.2045,3.3093,3.2609,3.2314,3.1914,2.9509,2.7895,2.6849,2.5872,2.5267,0.0,0.0,0.0,0.0,0.0,0.0,0.0,0.0,0.0,0.0,0.0,0.0,0.0,0.0,0.0,0.0,0.0,0.0,0.0,0.0,0.0,0.0,0.0,0.0,0.0,0.0,0.0,0.0,0.0,0.0,0.0,0.0,0.0,0.0,0.0,0.0,0.0,3.4465,3.7437,0.0,3.471,3.5315,3.6257,3.7095,3.8312,4.0041,4.2339,4.375,4.4839,4.5618,4.6553,4.6819,4.6278,4.6428,4.6633,4.6877,4.663,4.6846,4.7442,4.7753,4.7961,4.804,4.804,4.8068,4.7989,4.6183,4.3831,4.1328,4.0469,3.9805,3.9414,3.9922,4.0312,4.0664,0.0,0.0,0.0,0.0,0.0,0.0,0.0,1.8482,1.8757,1.9342,2.0761,2.2053,2.2977,2.4805,2.6123,2.6572,2.6782,2.6206,2.4515,2.3932,2.3167,2.2144,2.2486,2.34,2.4896,2.6452,2.8128,2.9924,3.1001,3.1958,3.2856,3.2856,3.3215,3.3814,3.3604,3.3578,3.3626,3.1677,2.9672,2.7788,2.6902,2.6778,2.6862,0.0,0.0,0.0,0.0,0.0,0.0,0.0,0.0,0.0,0.0,0.0,0.0,0.0,0.0,0.0,0.0,0.0,0.0,0.0,0.0,0.0,0.0,0.0,0.0,0.0,0.0,0.0,0.0,0.0,0.0,0.0,0.0,0.0,0.0,3.5789,3.8304,3.898,4.1567,4.2157,3.9294,3.9601,4.0361,4.1183,4.2111,4.3681,4.6065,4.6902,4.7636,4.8347,4.8722,4.8611,4.807,4.7878,4.7758,4.772,4.748,4.7639,4.827,4.8279,4.8523,4.8987,4.8723,4.8716,4.886,4.8549,4.7198,4.5249,4.4403,4.3588,4.2925,4.3515,4.3711,4.375,0.0,0.0,0.0,0.0,0.0,0.0,1.8644,1.8498,1.8396,1.8869,2.0568,2.2286,2.3676,2.5538,2.7171,2.8487,2.6782,2.5322,2.4664,2.2832,2.1754,2.1814,2.3648,2.5615,2.7645,2.9564,3.121,3.2527,3.3185,3.3514,3.3514,3.3514,3.3873,3.4503,3.3844,3.3903,3.4475,3.3782,3.261,3.1067,2.9178,2.939,3.0447,0.0,0.0,0.0,0.0,0.0,0.0,0.0,0.0,0.0,0.0,0.0,0.0,0.0,0.0,0.0,0.0,0.0,0.0,0.0,0.0,0.0,0.0,0.0,0.0,0.0,0.0,0.0,0.0,0.0,0.0,0.0,0.0,0.0,3.5769,3.8372,4.0569,4.1373,4.3403,4.3938,4.1711,4.328,4.4802,4.5546,4.6815,4.7904,4.872,4.8756,4.9017,4.9676,5.008,5.0223,5.0079,5.0461,4.9875,4.8294,4.8271,4.8271,4.8309,4.8329,4.8954,5.0012,4.9236,4.9179,4.9598,4.8747,4.8425,4.8453,4.7684,4.6862,4.6132,4.6246,4.6289,4.6172,0.0,0.0,0.0,0.0,0.0,0.0,1.874,1.8874,1.9073,1.9414,2.1585,2.3396,2.4282,2.6564,2.8188,2.8577,2.6782,2.5501,2.5322,2.349,2.3041,2.4477,2.5525,2.72,2.9654,3.0673,3.1869,3.3215,3.3395,3.3754,3.4234,3.4234,3.4562,3.522,3.504,3.504,3.519,3.4991,3.4666,3.4129,3.2034,3.0933,3.0436,0.0,0.0,0.0,0.0,0.0,0.0,0.0,0.0,0.0,0.0,0.0,0.0,0.0,0.0,0.0,0.0,0.0,0.0,0.0,0.0,0.0,0.0,0.0,0.0,0.0,0.0,0.0,0.0,0.0,0.0,0.0,3.7187,3.9681,3.9681,4.2252,4.4823,4.665,4.8342,4.8951,4.7767,4.8184,4.8375,4.8065,4.8377,4.8896,4.9597,4.9624,4.9705,4.9834,4.9959,4.9944,4.9819,4.9576,4.9786,5.0451,5.0159,5.0335,5.0877,5.0892,5.1065,5.138,5.113,5.1116,5.1216,5.0393,4.967,4.9037,4.7759,4.7128,4.682,4.6225,4.6001,4.5962,0.0,0.0,0.0,0.0,0.0,0.0,1.8754,1.9201,1.9471,1.939,2.1605,2.3396,2.3829,2.5682,2.7051,2.732,2.5764,2.4777,2.4777,2.3969,2.4238,2.5944,2.72,2.8936,3.13,3.2287,3.3275,3.4352,3.4352,3.4532,3.4921,3.4921,3.513,3.5519,3.5519,3.5519,3.5519,3.5519,3.5507,3.5431,3.4455,3.3859,3.3338,3.1355,3.1348,3.2038,2.9562,2.9682,3.065,2.8185,0.0,0.0,0.0,0.0,0.0,0.0,0.0,0.0,0.0,0.0,0.0,0.0,0.0,0.0,0.0,0.0,0.0,0.0,0.0,0.0,0.0,0.0,0.0,0.0,4.1264,4.3978,4.5229,4.638,4.7902,5.0135,5.0879,5.115,5.1014,5.0744,5.0371,4.9965,4.9627,4.9641,5.0026,4.9747,4.9689,4.995,4.9977,5.0082,5.0283,5.0014,5.0301,5.1123,5.0915,5.1193,5.1929,5.1593,5.1697,5.2128,5.179,5.1753,5.1835,5.1021,5.0417,4.9788,0.0,0.0,0.0,0.0,4.6113,4.6385,0.0,0.0,0.0,0.0,0.0,0.0,1.8854,1.9425,1.9624,1.9024,2.1099,2.2629,2.2542,2.3644,2.4634,2.5315,2.4148,2.346,2.358,2.4216,2.5292,2.6871,2.8813,3.0731,3.2677,3.3963,3.4891,3.5519,3.5519,3.5519,3.5519,3.5519,3.5519,3.5519,3.5519,3.5549,3.5609,3.5609,3.5669,3.5764,3.6442,3.7038,3.7202,3.4005,3.4599,3.6735,3.3882,3.286,3.2581,3.085,0.0,0.0,0.0,0.0,0.0,0.0,0.0,0.0,0.0,0.0,0.0,0.0,0.0,0.0,0.0,0.0,0.0,0.0,0.0,0.0,0.0,0.0,0.0,0.0,4.5621,4.8118,5.105,5.0242,5.0109,5.2198,5.186,5.1725,5.2367,5.1758,5.132,5.132,5.0642,5.0202,5.0202,4.9593,0.0,0.0,0.0,5.0363,5.0981,5.0981,5.0962,5.0914,5.0914,5.1271,5.2004,5.125,5.1534,5.2549,5.1806,5.1703,5.1995,5.1184,5.0763,5.053,4.9354,4.7961,4.6522,4.6203,4.6507,4.6978,0.0,0.0,0.0,0.0,0.0,0.0,1.9165,1.9423,1.9462,1.9317,2.1105,2.1843,2.0452,2.1953,2.3332,2.3939,2.2802,2.2503,2.352,2.4216,2.592,2.8903,3.0402,3.2078,3.4053,3.4891,3.537,3.5519,3.5519,3.5519,3.5519,3.5519,3.5519,3.5519,3.5519,3.5789,3.6297,3.6297,3.6596,3.7045,3.7184,3.6715,3.5922,3.589,3.5886,3.5699,3.3912,3.4793,3.6331,3.3333,3.2913,3.3212,3.0791,2.8357,0.0,0.0,0.0,0.0,0.0,0.0,0.0,0.0,0.0,0.0,0.0,0.0,0.0,0.0,0.0,0.0,0.0,0.0,0.0,4.495,4.7501,5.0059,5.2707,5.2064,5.1823,5.3112,5.3145,5.3112,5.3247,5.257,5.2097,5.2097,5.142,5.1014,5.1014,5.0879,5.057,5.0113,5.0113,5.0138,5.023,5.023,5.0511,5.1079,5.1079,0.0,5.2059,5.1914,5.2287,5.3077,5.2893,5.286,5.2887,5.2075,5.1139,5.0073,4.8824,4.7755,4.691,4.7111,4.6894,4.6512,0.0,0.0,0.0,0.0,0.0,0.0,1.8812,1.9482,1.9801,1.9371,2.0773,2.1412,2.0314,2.1096,2.1814,2.2143,2.1582,2.2161,2.4455,2.5242,2.7081,3.0404,3.1809,3.3305,3.4951,3.534,3.5519,3.5519,3.5519,3.5519,3.5519,3.5519,3.5669,3.5998,3.5998,3.6178,3.6507,3.6806,3.6956,3.6956,3.6956,3.677,3.6561,3.7419,3.7519,3.7188,3.6875,3.7483,3.8115,3.6093,3.5352,3.4942,3.2911,3.0837,2.8869,0.0,0.0,0.0,0.0,0.0,0.0,0.0,0.0,0.0,0.0,0.0,0.0,0.0,0.0,3.8771,4.0024,0.0,4.5853,4.8174,4.9957,5.1597,5.3247,5.3041,5.2904,5.3416,5.3518,5.3518,5.3518,5.3145,5.2909,5.2909,5.2198,5.1758,5.1758,5.142,5.0879,5.0101,5.0473,5.0459,5.0039,5.0039,5.0626,5.1682,5.1332,5.1679,5.2687,5.233,5.2522,5.3181,5.2803,5.2872,5.3151,5.2344,5.1383,5.0343,4.9316,4.8621,4.8169,4.7515,4.7239,4.7252,0.0,0.0,0.0,0.0,0.0,0.0,0.0,1.9439,1.9913,1.9139,2.0265,2.0874,2.0122,2.0279,2.0471,2.0498,2.0753,2.2235,2.5388,2.6365,2.825,3.1541,3.2976,3.4262,3.5489,3.5519,3.5519,3.5519,3.5639,3.5699,3.5699,3.5818,3.6148,3.6656,3.6656,3.6746,3.6896,3.7375,3.7375,3.7045,3.6896,3.7075,3.7485,3.8434,3.8843,3.8964,3.9639,3.9334,3.8497,3.8058,3.6884,3.543,3.4404,3.3223,3.1804,2.9523,2.9142,0.0,0.0,0.0,0.0,0.0,0.0,0.0,0.0,3.3223,3.5397,3.6947,3.9999,4.3014,4.5066,4.7158,4.9156,5.1083,5.1864,5.2539,5.3382,5.3314,5.328,5.3484,5.3518,5.3518,5.3518,5.3518,5.3518,5.3518,5.2909,5.2536,5.2536,5.1995,5.1319,5.0541,5.1116,5.1082,5.0304,5.0304,5.0921,5.2084,5.1464,5.1877,5.3085,5.2337,5.2465,5.3183,5.2591,5.2644,5.313,5.2491,5.1756,5.0986,5.0345,4.9934,4.9565,4.7972,4.7701,4.806,0.0,0.0,0.0,0.0,0.0,0.0,0.0,0.0,1.8951,1.8536,1.9712,1.9843,1.7881,1.881,1.9616,1.9804,2.0889,2.2739,2.5412,2.6792,2.8943,3.2228,3.3664,3.4711,3.5489,3.5519,3.5519,3.5519,3.6088,3.6387,3.6387,3.6956,3.7225,3.7315,3.7315,3.7644,3.8182,3.8242,3.8601,3.902,3.8422,3.7853,3.7485,3.8434,3.8814,3.8853,3.9064,3.8251,3.7134,3.7719,3.6884,3.5701,3.6231,3.5396,3.3757,3.152,2.9524,2.8252,2.9304,3.0456,3.1649,3.291,3.2891,3.3776,0.0,3.9819,4.076,4.2719,4.5114,4.7138,4.829,4.9796,5.115,5.2029,5.2063,5.2283,5.3348,5.2662,5.2418,5.3382,5.3518,5.3518,5.3518,5.3518,5.3518,5.3518,5.3416,5.3382,5.3382,5.3281,5.2875,5.2097,5.2131,5.1826,5.105,5.1082,5.1148,5.1312,5.1244,5.1651,5.2374,5.1645,5.2012,5.3207,5.3097,5.3124,5.3167,5.3093,5.2601,5.1867,5.1777,5.1287,5.0504,4.9165,4.8294,4.7783,0.0,0.0,0.0,0.0,0.0,0.0,0.0,0.0,1.879,1.8403,1.9594,2.0065,1.8945,1.9483,2.0107,2.0574,2.0555,2.2127,2.592,2.7077,2.9239,3.2916,3.4352,3.522,3.5489,3.5519,3.5519,3.5519,3.5789,3.6118,3.6477,3.6357,3.6896,3.7973,3.7584,3.7764,3.8422,3.8811,3.8931,3.8751,3.8093,3.8163,3.8552,3.7359,3.6906,3.695,3.7526,3.7009,0.0,3.5487,3.5148,3.5013,3.5351,3.5035,3.409,3.1955,3.1791,3.2575,3.3695,3.3647,3.3532,3.4501,3.6109,3.7789,3.9076,4.109,4.3085,4.4818,4.7429,4.9684,5.0524,5.1698,5.2438,5.2128,5.2497,5.28,5.2592,5.233,5.2135,5.2132,5.2164,5.2536,5.3416,5.3518,5.3518,5.3518,5.3518,5.3518,5.3518,5.3518,5.3145,5.2334,5.2739,5.2638,5.186,5.186,5.2097,5.2536,5.2063,5.2259,5.299,5.2204,5.2131,5.2666,5.263,5.2834,5.3185,5.2736,5.2631,5.2637,5.216,5.1793,5.1373,5.0376,4.9787,4.9547,0.0,0.0,0.0,0.0,0.0,0.0,0.0,0.0,0.0,0.0,1.9432,2.0365,2.0376,2.0431,2.0686,2.1169,2.0561,2.1721,2.547,2.6697,2.8862,3.2287,3.4053,3.504,3.522,3.54,3.5519,3.5519,3.5699,3.6028,3.6477,3.6178,3.6776,3.8093,3.7614,3.7764,3.8422,3.8931,3.8983,3.865,3.7777,3.7922,3.8465,3.5925,3.4697,3.4406,3.5238,3.4776,3.366,3.276,3.2848,3.3334,3.3578,3.3891,3.3912,3.2486,3.3628,3.5358,3.5358,3.5366,3.5603,3.6656,3.9215,4.1307,4.0624,4.2573,4.5042,4.6792,4.8781,5.0619,5.1773,5.2564,5.2733,5.1765,5.2424,5.28,5.1993,5.1724,5.1463,5.1252,5.0813,5.1116,5.2435,5.2942,5.3281,5.3484,5.3518,5.3518,5.3518,5.3518,5.3247,5.2638,5.3213,5.3213,5.2638,5.2638,5.2909,5.3484,5.2909,5.2942,5.3484,5.2869,5.2498,5.2285,5.2227,5.2594,5.3147,5.2414,5.2531,5.313,5.2564,5.2344,5.227,5.1683,5.1169,5.0805,0.0,0.0,0.0,0.0,0.0,0.0,0.0,0.0,0.0,0.0,0.0,2.0418,2.1447,2.1213,2.0975,2.1007,2.1158,2.1849,2.331,2.5447,2.756,2.9651,3.2168,3.3873,3.4533,3.516,3.5519,3.5519,3.6148,3.6477,3.6507,3.7075,3.7375,3.7434,3.7434,3.7764,3.8392,3.8422,3.8879,3.9437,3.7986,3.7086,3.6352,3.4197,3.2473,3.1331,3.2148,3.1041,2.9314,2.9973,3.0224,3.0384,3.1278,3.2436,3.3474,3.3673,3.422,3.4296,3.228,3.4343,3.7519,3.9621,4.1626,4.351,4.526,4.6098,4.7223,4.9744,4.9512,4.956,5.1865,5.2094,5.1691,5.0966,5.146,5.1921,5.1921,5.0702,5.0122,5.1088,4.9932,4.9357,5.0135,5.1488,5.2672,5.345,5.3518,5.3518,5.3518,5.3518,5.3484,5.345,5.3484,5.3484,5.345,5.345,5.3484,5.3518,5.3484,5.3484,5.3517,5.3413,5.2991,5.2285,5.2227,5.2594,5.3147,5.2414,5.2531,5.3203,5.3167,5.3188,5.3188,5.313,5.216,5.0802,0.0,0.0,0.0,0.0,0.0,0.0,0.0,0.0,0.0,0.0,0.0,0.0,0.0,0.0,0.0,0.0,2.0783,2.1207,2.3165,2.4814,2.6485,2.821,3.0342,3.1839,3.2497,3.3185,3.3724,3.4173,3.4382,3.4951,3.5818,3.5579,3.6148,3.7375,3.6985,3.7135,3.7768,3.8318,3.8409,3.8083,3.6661,3.5992,3.5422,3.1754,2.9779,2.8758,0.0,2.7571,2.8094,2.735,2.7756,2.8563,2.858,2.944,3.0788,3.242,3.2512,3.2526,3.4411,3.6549,3.8729,4.056,4.2514,4.439,4.5839,4.6615,4.7183,4.7609,4.7278,4.6966,4.7321,4.7852,4.8323,4.8515,5.0055,5.1397,5.1855,5.1657,5.0993,4.99,4.9729,4.9424,4.8714,5.0439,5.1894,5.2638,5.3213,5.3518,5.3518,5.3957,5.4025,5.3518,5.3957,5.3991,5.3518,5.3518,5.3518,5.3518,5.3518,5.3518,5.3484,5.3479,5.3304,5.3064,5.2529,5.2389,5.2579,5.2289,5.2292,5.2531,5.3002,5.3203,5.3203,5.3203,5.2858,5.2417,0.0,0.0,0.0,0.0,0.0,0.0,0.0,0.0,0.0,0.0,0.0,0.0,0.0,0.0,0.0,0.0,0.0,2.0734,2.2213,2.3499,2.4774,2.6015,2.781,2.9086,2.9717,3.0402,3.0941,3.1419,3.1419,3.1958,3.3036,3.2587,3.3185,3.4592,3.4412,3.4711,3.5342,3.6074,3.6073,3.5564,3.4305,3.357,3.2794,2.9103,2.7259,0.0,2.4391,2.4669,2.5849,2.5087,2.5663,2.6718,2.6697,2.8339,3.047,3.1384,3.2241,3.3625,3.702,3.8928,4.0577,4.3301,4.4805,4.5934,4.7129,4.6959,4.6533,4.6345,4.5411,4.4614,4.4405,4.462,4.512,4.5949,4.7377,4.9105,5.1116,5.0869,5.0393,5.0207,4.9898,4.9526,4.9123,5.034,5.1522,5.2232,5.3281,5.389,5.389,5.46,5.4769,5.4296,5.4769,5.4769,5.4296,5.4025,5.3754,5.3518,5.3788,5.3754,5.3518,5.3518,5.3518,5.345,5.2638,5.2448,5.2666,5.2361,5.2334,5.2626,5.338,5.3644,5.3726,5.3946,5.3885,5.3592,0.0,0.0,0.0,0.0,0.0,0.0,0.0,0.0,0.0,0.0,0.0,0.0,0.0,0.0,0.0,0.0,0.0,0.0,2.0543,2.165,2.2585,2.3215,2.4697,2.5811,2.6471,2.713,2.749,2.7495,2.7495,2.7854,2.8487,2.8487,2.8846,2.9532,3.0103,3.0702,3.1387,3.1918,3.2137,3.2056,3.1177,3.0054,2.8633,2.6371,2.5043,2.4271,2.2835,2.2452,2.2711,2.3279,2.4179,2.5165,2.5997,2.9158,3.2299,3.099,3.3616,3.7408,3.9836,4.1243,4.3116,4.7494,4.8105,4.7924,4.8879,4.7136,4.5403,4.5917,4.3961,4.2315,4.2845,4.2302,4.2165,4.3443,4.3941,4.5625,4.9949,4.8877,4.879,5.19,5.0509,4.983,5.115,5.1352,5.1691,5.2367,5.3754,5.46,5.4634,5.5378,5.575,5.5681,5.575,5.575,5.5681,5.5006,5.4296,5.3619,5.4262,5.4228,5.3551,5.3518,5.3518,5.345,5.2706,5.2723,5.3307,5.2641,5.2701,5.3305,5.4118,5.4456,5.4555,5.5291,5.5075,5.4363,0.0,0.0,0.0,0.0,0.0,0.0,0.0,0.0,0.0,0.0,0.0,0.0,0.0,0.0,0.0,0.0,0.0,0.0,2.1282,2.2085,2.2484,2.2346,2.3626,2.4503,2.4875,2.5549,2.5955,2.6123,2.6123,2.6452,2.7111,2.7111,2.7495,2.8124,2.8274,2.8604,2.9083,2.9852,3.0009,2.9697,2.8926,2.8089,2.7046,2.4809,2.3832,2.3545,2.2632,2.2103,2.2139,2.3819,2.6134,2.8496,2.9535,3.0874,3.2481,3.4535,3.7188,4.0043,4.2579,4.4515,4.6243,4.7963,4.765,4.692,4.6829,4.5782,4.4396,4.2386,4.0229,3.8278,3.6965,3.7748,3.9273,4.1361,4.4875,4.8243,5.0813,5.2528,5.3126,5.2042,5.2671,5.2875,5.2097,5.3044,5.3822,5.3991,5.4363,5.4837,5.5412,5.6122,5.6292,5.575,5.6258,5.6258,5.5716,5.5513,5.5344,5.5107,5.4769,5.4499,5.4296,5.3754,5.3518,5.3484,5.3281,5.2941,5.2624,5.2984,5.2899,5.2608,5.3341,5.3989,5.4506,5.4713,5.4984,5.517,0.0,0.0,0.0,0.0,0.0,0.0,0.0,0.0,0.0,0.0,0.0,0.0,0.0,0.0,0.0,0.0,0.0,0.0,0.0,2.169,2.2049,2.1827,2.2352,2.2695,2.2867,2.3224,2.3476,2.36,2.36,2.3814,2.4264,2.4478,2.4823,2.5273,2.5771,2.6116,2.6349,2.7061,2.7048,0.0,0.0,2.5439,2.4628,2.3376,2.2936,2.2868,2.2448,2.3209,2.479,2.7034,2.9124,3.1044,3.2395,3.4262,3.6398,3.8587,4.0818,4.3171,4.566,4.7257,4.8299,4.8796,4.7845,4.6433,4.4964,4.3516,4.1628,3.8518,3.6906,3.545,3.3411,3.4488,3.6504,3.8992,4.2664,4.6566,5.0499,5.2803,5.4071,5.3992,5.4623,5.4871,5.4329,5.4769,5.548,5.6461,5.5919,5.575,5.6156,5.6867,5.7103,5.6697,5.707,5.6934,5.619,5.6494,5.6359,5.5681,5.5615,5.5209,5.4566,5.416,5.3822,5.3518,5.3518,5.3247,5.2874,5.3265,5.3217,5.2901,5.3589,5.4169,5.4614,5.5287,5.5583,5.5614,0.0,0.0,0.0,0.0,0.0,0.0,0.0,0.0,0.0,0.0,1.8842,0.0,0.0,0.0,0.0,0.0,0.0,0.0,0.0,0.0,2.1761,2.1761,2.1384,2.1134,2.1071,2.1071,2.1039,2.0991,2.0991,2.1097,2.1268,2.1667,2.1963,2.2164,2.3109,2.3546,2.3638,2.3987,2.3867,2.3391,2.3197,2.2767,2.2313,0.0,2.2313,2.2279,2.2223,2.448,2.7951,3.0763,3.2431,3.3687,3.5343,3.8547,4.1847,4.276,4.4403,4.6407,4.8798,4.9553,4.9761,4.9875,4.8464,4.6287,4.344,4.0961,3.8287,3.4775,3.3943,3.3226,3.1264,3.2237,3.4223,3.6995,3.9714,4.3573,4.971,5.1688,5.3521,5.6277,5.6219,5.6258,5.69,5.6461,5.69,5.8727,5.778,5.7137,5.7239,5.7746,5.8084,5.8186,5.8084,5.7746,5.7103,5.7712,5.734,5.6021,5.6562,5.6122,5.4871,5.4668,5.4262,5.3653,5.3551,5.3518,5.3518,5.3518,5.3518,5.3551,5.42,5.4575,5.4909,5.6232,5.6418,5.6066,0.0,0.0,0.0,0.0,0.0,0.0,0.0,0.0,0.0,0.0,1.9172,1.8706,0.0,0.0,0.0,0.0,0.0,0.0,0.0,0.0,0.0,2.2512,2.2226,2.1901,2.1491,2.1491,2.1337,2.0991,2.0991,2.1023,2.1069,2.1134,2.1198,2.1243,2.1405,2.1682,2.1968,2.1471,2.1728,2.2469,2.1826,2.1854,2.2313,2.2313,0.0,0.0,2.1853,2.2848,2.513,3.0066,3.4499,3.8399,4.037,4.2402,4.4384,4.6346,4.7612,4.8866,5.1117,5.1592,5.1358,5.1028,4.9161,4.6388,4.2423,3.9789,3.6965,3.2673,3.1281,3.0414,2.9064,3.0807,3.3608,3.7251,4.1243,4.5381,4.9649,5.3016,5.5118,5.5355,5.6627,5.7577,5.7679,5.8152,5.8355,5.8084,5.8423,5.8896,5.9505,5.9066,5.9099,5.9708,5.9133,5.8761,5.8626,5.8761,5.8389,5.7509,5.7036,5.6664,5.6393,5.5141,5.4532,5.4363,5.3754,5.3518,5.3518,5.3518,5.3518,5.3484,5.3651,5.4454,5.5552,5.5808,5.6639,5.7528,0.0,0.0,0.0,0.0,0.0,0.0,0.0,1.8639,1.9046,2.0392,2.0129,1.9796,1.9771,1.9296,1.9102,0.0,0.0,0.0,0.0,0.0,0.0,2.2328,2.2203,2.2134,2.2186,2.2172,2.2022,2.1675,0.0,2.1554,2.1322,2.1569,2.1554,2.1322,2.1569,2.1566,2.1387,2.1019,2.0948,2.1062,2.0724,2.1042,2.1718,2.1718,0.0,0.0,2.2482,2.3695,2.578,2.9566,3.403,3.8581,4.2334,4.506,4.709,4.8173,4.9289,5.0473,5.1928,5.2505,5.2367,5.0985,4.8574,4.5243,4.0054,3.7178,3.4303,2.977,2.9194,2.912,2.7818,2.9802,3.2471,3.5089,3.8287,4.2197,4.7285,5.0448,5.2941,5.4972,5.6787,5.8051,5.8457,5.8795,5.9201,5.9641,5.9607,5.9573,5.9539,5.9573,5.9742,6.008,5.9776,5.9573,5.9573,5.9201,5.8829,5.8457,5.7712,5.7171,5.6799,5.6055,5.5547,5.5141,5.4397,5.4059,5.4025,5.3653,5.3518,5.3518,5.3518,5.3913,5.4606,5.4999,5.5836,5.6804,0.0,0.0,0.0,0.0,0.0,0.0,0.0,1.891,1.943,2.094,2.1015,2.0875,2.0813,1.9911,1.9268,0.0,0.0,0.0,0.0,0.0,0.0,0.0,0.0,0.0,2.2554,0.0,0.0,2.2167,2.2084,0.0,0.0,0.0,0.0,0.0,2.1815,2.1651,2.0919,2.0784,2.0433,0.0,0.0,2.023,2.0953,0.0,0.0,0.0,0.0,2.4068,2.5947,2.8669,3.207,3.5949,4.0722,4.4891,4.8037,4.7868,4.9323,5.115,5.186,5.2773,5.2942,5.0676,4.7767,4.3944,3.8115,3.4776,3.1732,2.7571,2.7656,2.8187,2.7114,2.896,3.1281,3.3283,3.5512,3.9061,4.5037,4.777,5.056,5.4382,5.6437,5.7931,5.8893,5.9167,5.9742,6.096,6.0622,6.0114,5.9539,6.0047,6.0419,6.0588,6.0452,6.0351,6.0351,5.9607,5.9167,5.8998,5.8254,5.7577,5.7036,5.6867,5.6494,5.5919,5.4972,5.46,5.4532,5.3788,5.3518,5.3518,5.3518,5.3584,5.3816,5.4391,5.5173,5.6031,0.0,0.0,0.0,0.0,0.0,0.0,0.0,1.891,1.9647,2.1739,2.1334,2.1149,2.1774,2.0968,2.0083,0.0,0.0,0.0,0.0,0.0,0.0,0.0,0.0,0.0,0.0,0.0,0.0,2.1653,2.1416,0.0,0.0,0.0,0.0,0.0,0.0,2.0873,2.0082,1.9384,0.0,0.0,0.0,0.0,0.0,0.0,0.0,0.0,0.0,2.1529,2.2341,2.6573,2.8789,3.0262,3.3423,3.9276,4.4857,4.4147,4.6921,5.0371,5.1116,5.2401,5.2942,5.0676,4.739,4.3328,3.8014,3.402,3.0514,2.7334,2.6793,2.6909,2.6897,2.8161,3.0379,3.3985,3.6429,3.966,4.4714,4.7802,5.0505,5.3089,5.5137,5.7038,5.8819,5.9607,6.0047,6.0216,6.0825,6.1163,6.1095,6.1163,6.1501,6.2144,6.1535,6.1197,6.1197,6.0419,5.9674,5.8998,5.8254,5.7848,5.778,5.7103,5.6765,5.663,5.5209,5.46,5.4532,5.3788,5.3518,5.3518,5.3518,5.3913,5.4513,5.4575,5.553,5.6809,0.0,0.0,0.0,0.0,0.0,0.0,1.8822,1.891,1.9681,2.181,2.1416,2.1394,2.2646,2.1524,2.0367,1.9559,0.0,0.0,0.0,0.0,0.0,0.0,0.0,0.0,0.0,0.0,2.1278,2.0636,2.0531,0.0,0.0,0.0,0.0,0.0,0.0,2.0061,1.9283,1.8538,0.0,0.0,0.0,0.0,0.0,0.0,0.0,0.0,0.0,0.0,2.1461,2.3241,2.5236,2.6996,2.73,3.1596,3.7178,4.0434,4.3978,4.7327,4.9864,5.1319,5.1691,4.9898,4.6278,4.1948,3.7178,3.322,2.9803,2.7232,2.6691,2.686,2.7338,2.7885,2.9374,3.2701,3.2873,3.4472,3.9871,4.1776,4.4301,4.8925,5.1817,5.4554,5.7356,5.8885,6.023,6.1395,6.1772,6.1941,6.1941,6.1941,6.2076,6.2381,6.211,6.1941,6.1941,6.1197,6.0419,5.9674,5.893,5.8321,5.7881,5.7577,5.7442,5.7374,5.5919,5.5513,5.5784,5.416,5.3754,5.4126,5.3687,5.3651,5.3946,5.3946,5.4606,5.5588,0.0,0.0,0.0,0.0,0.0,1.8489,1.895,1.8936,1.9578,2.1481,2.1263,2.1434,2.286,2.1674,2.06,2.0158,1.966,0.0,0.0,0.0,0.0,0.0,0.0,0.0,0.0,0.0,2.0587,1.9933,1.9775,1.9575,0.0,0.0,1.9575,1.936,0.0,0.0,0.0,0.0,0.0,0.0,0.0,0.0,0.0,0.0,0.0,0.0,0.0,0.0,0.0,0.0,0.0,2.4154,2.3342,2.5744,2.9973,3.5498,4.0054,4.391,4.6955,4.8984,4.9866,4.8409,4.479,4.0527,3.6265,3.2219,2.8856,2.6793,2.6353,2.6522,2.7046,2.7565,2.8651,3.1006,3.0636,3.1652,3.6248,3.7761,4.0325,4.5536,4.8439,5.1675,5.597,5.8815,6.0791,6.1803,6.2223,6.2381,6.2381,6.2381,6.2279,6.2076,6.2076,6.2076,6.2076,6.1129,6.0554,6.0452,5.9268,5.8524,5.822,5.7983,5.7881,5.7814,5.6562,5.6325,5.6664,5.4634,5.4126,5.4532,5.3788,5.3518,5.3518,5.3518,5.4115,5.5008,0.0,0.0,0.0,0.0,0.0,0.0,1.9217,1.9064,1.9395,2.0728,2.0909,2.1276,2.2212,2.1417,2.0926,2.1254,2.0245,0.0,0.0,0.0,0.0,0.0,0.0,0.0,0.0,0.0,2.0519,1.9795,1.9201,1.8538,1.785,1.8572,1.8504,1.785,0.0,0.0,0.0,0.0,0.0,0.0,0.0,0.0,1.7817,0.0,0.0,0.0,0.0,0.0,0.0,0.0,0.0,0.0,0.0,2.2868,2.4357,2.889,3.4923,4.0468,4.1982,4.5094,4.7567,4.6109,4.2895,3.9131,3.5351,3.1055,2.7384,2.5931,2.5592,2.5592,2.5642,2.6978,2.8346,2.909,3.1102,3.327,3.5236,3.7868,4.0714,4.3869,4.5442,4.8727,5.51,5.9738,6.1877,6.0745,6.1716,6.2381,6.2381,6.2381,6.2076,6.1332,6.1332,6.1332,6.1332,5.981,5.981,6.1264,5.8998,5.8287,5.8964,5.822,5.7881,5.7848,5.7103,5.6799,5.6697,5.5175,5.4566,5.4532,5.3788,5.3518,5.3518,5.3518,5.4457,5.5674,0.0,0.0,0.0,0.0,0.0,0.0,0.0,1.8758,1.9095,2.0276,2.002,2.0388,2.2096,2.1065,2.0538,2.1237,2.0251,0.0,0.0,0.0,0.0,0.0,0.0,0.0,0.0,1.954,1.9524,1.9957,1.9255,1.9176,1.9636,1.9327,1.9174,1.9143,1.8633,1.8284,0.0,0.0,0.0,0.0,0.0,1.7783,1.7783,0.0,0.0,0.0,0.0,0.0,0.0,0.0,0.0,0.0,0.0,0.0,0.0,2.4966,2.9567,3.4573,3.7043,3.9005,4.0054,3.9073,3.6772,3.4053,3.1379,2.8822,2.6623,2.5151,2.5236,2.5744,2.6251,2.6791,2.8214,3.1523,3.1401,3.2006,3.5197,3.7062,3.9495,4.3234,4.7996,5.2766,5.7372,5.8675,5.9942,6.1723,6.215,6.2381,6.2381,6.2381,6.2042,6.1332,6.1772,6.1806,6.1298,6.0825,6.0554,6.0452,5.9235,5.8524,5.8254,5.8017,5.7881,5.7848,5.7103,5.7103,5.7442,5.5953,5.5649,5.5987,5.4735,5.4566,5.4938,5.4431,5.4873,5.5689,0.0,0.0,0.0,0.0,0.0,0.0,0.0,1.8669,1.8884,1.9651,1.9429,1.9878,2.1632,2.0744,2.0351,2.1278,2.034,0.0,0.0,0.0,0.0,0.0,0.0,0.0,1.9828,1.9314,1.9391,2.013,1.9874,1.9935,2.0312,2.0212,1.9954,1.9587,1.9059,1.8633,0.0,0.0,0.0,0.0,1.7625,1.7783,1.7783,0.0,0.0,0.0,0.0,0.0,0.0,0.0,0.0,0.0,0.0,0.0,0.0,0.0,2.5473,2.8958,3.2239,3.4066,3.5001,3.4472,3.2882,3.0973,2.8991,2.7182,2.5523,2.4338,2.4661,2.5338,2.5794,2.6216,2.757,3.0871,3.0548,3.1167,3.4819,3.6755,3.942,4.3689,4.9712,5.4335,5.6483,5.841,6.0133,6.1602,6.215,6.2279,6.2009,6.2245,6.1907,6.0892,6.1298,6.1298,6.0858,6.0283,6.0047,6.008,5.9066,5.849,5.8321,5.8017,5.7881,5.7848,5.7408,5.7476,0.0,5.663,5.6393,5.6697,5.548,5.5141,5.5243,5.4769,5.5074,5.5686,0.0,0.0,0.0,0.0,0.0,0.0,0.0,1.8816,1.8752,1.901,1.9154,1.967,2.0847,2.0408,2.0379,2.1317,0.0,0.0,0.0,0.0,0.0,0.0,0.0,0.0,2.0155,1.988,1.998,2.0545,2.105,2.0919,2.0221,2.1234,2.0906,1.9458,1.9704,1.9379,0.0,0.0,0.0,0.0,1.7816,1.7839,0.0,0.0,0.0,0.0,0.0,0.0,0.0,0.0,0.0,0.0,0.0,0.0,0.0,0.0,0.0,0.0,0.0,3.0059,3.165,3.1616,3.0581,2.921,2.7756,2.5845,0.0,2.3545,2.4,2.4541,2.4711,2.5557,2.674,2.8241,2.9211,3.0992,3.4345,3.7339,4.0862,4.5434,5.0878,5.4079,5.3579,5.8793,6.1803,6.0828,6.1756,6.211,6.14,6.2009,6.1704,6.0216,6.0148,6.0114,6.0114,5.8693,5.866,6.0013,5.8558,5.8254,5.893,5.822,5.7881,5.7881,5.7881,5.7848,5.7746,5.7137,5.6867,5.6731,5.6055,5.5378,5.4735,5.4735,5.5209,5.5788,0.0,0.0,0.0,0.0,0.0,0.0,0.0,0.0,0.0,0.0,1.9376,1.9636,1.9917,1.9996,2.004,0.0,0.0,0.0,0.0,0.0,0.0,0.0,0.0,0.0,2.0975,2.0139,2.0528,2.2163,2.2085,2.2058,2.2074,2.2536,2.2057,2.0809,2.0323,1.9531,0.0,0.0,0.0,0.0,1.8121,1.7982,0.0,0.0,0.0,0.0,1.7805,1.7963,0.0,0.0,0.0,0.0,0.0,0.0,0.0,0.0,2.2415,2.2767,2.3632,0.0,2.5354,2.4797,2.4797,2.4729,0.0,2.3646,2.3628,2.3444,2.4,2.5015,2.6725,2.6851,2.7925,3.1549,3.1955,3.2825,3.5673,4.1698,4.7066,5.0287,5.4374,5.6987,5.7094,5.902,6.0758,6.1883,6.2263,6.2313,6.2144,6.2313,6.1975,6.1061,6.0419,6.0114,6.0114,5.9201,5.893,5.9268,5.8321,5.7983,5.8152,5.7983,5.7881,5.7881,5.7881,5.7577,5.7103,5.7476,5.7306,5.6799,5.663,5.6427,5.6292,5.6292,5.6393,5.6533,0.0,0.0,0.0,0.0,0.0,0.0,0.0,0.0,0.0,0.0,0.0,1.9193,1.9552,1.9792,0.0,0.0,0.0,0.0,0.0,0.0,0.0,0.0,0.0,2.0233,2.1039,2.0848,2.1325,2.2527,2.2697,2.2697,2.2527,2.3189,2.2611,2.1039,2.0156,1.9415,0.0,0.0,0.0,1.8225,1.8313,0.0,0.0,0.0,0.0,0.0,1.7783,1.802,0.0,1.9169,1.9731,2.0318,0.0,0.0,0.0,0.0,2.2313,2.2313,2.2313,2.3105,2.3797,2.341,2.3628,2.3797,2.341,2.3342,2.341,2.341,2.4255,2.5473,2.7029,2.7156,2.8196,3.1777,3.2474,3.4125,3.8592,4.3941,4.872,5.2188,5.5134,5.7506,5.921,6.0289,6.1321,6.2308,6.2381,6.2245,6.1907,6.2212,6.1873,6.0791,6.0317,5.9945,5.9607,5.8863,5.849,5.849,5.8084,5.7881,5.7881,5.7881,5.7881,5.7881,5.7881,5.7476,5.6867,5.7577,5.7273,5.6325,5.6664,5.6393,5.5818,5.619,5.6292,5.633,0.0,0.0,0.0,0.0,0.0,0.0,0.0,0.0,0.0,0.0,0.0,0.0,0.0,0.0,0.0,0.0,0.0,0.0,0.0,0.0,0.0,0.0,2.0087,2.0644,2.104,2.1624,2.2054,2.2377,2.327,2.3308,2.2496,2.3736,2.319,2.1089,1.9998,1.9389,0.0,0.0,1.878,1.8323,1.8584,0.0,0.0,0.0,0.0,0.0,0.0,0.0,0.0,1.9439,2.035,2.1268,2.1779,0.0,0.0,0.0,0.0,0.0,2.2719,2.3951,2.5033,2.4347,2.4365,2.455,2.455,2.3995,2.3538,2.3834,2.4898,2.6083,2.7044,2.7473,2.8532,3.117,3.2734,3.6009,4.2778,4.5694,4.8715,5.2901,5.508,5.7261,5.9961,6.1327,6.2042,6.2042,6.2042,6.1772,6.1163,6.1704,6.14,5.9979,5.9945,5.9573,5.8863,5.822,5.7881,5.7881,5.7881,5.7881,5.7881,5.778,5.778,5.7881,5.7645,5.7205,5.6697,5.7306,5.6765,5.5649,5.6461,5.5886,5.4702,5.5683,5.5818,5.5687,0.0,0.0,0.0,0.0,0.0,0.0,0.0,0.0,0.0,0.0,0.0,0.0,0.0,0.0,0.0,0.0,0.0,0.0,0.0,0.0,0.0,2.0002,2.0102,2.0795,2.2211,2.1803,2.1942,2.2652,2.4407,2.456,2.3255,2.5261,2.4906,2.2602,2.1027,2.0311,2.0242,1.9554,1.9117,1.8869,1.8905,0.0,0.0,0.0,0.0,0.0,0.0,0.0,0.0,1.8087,1.8675,1.9423,2.0128,0.0,0.0,0.0,0.0,0.0,2.4578,2.6657,2.7433,2.3801,2.3836,2.4744,2.4744,2.4182,2.4132,2.5848,2.6353,2.7178,2.929,2.9695,3.0648,3.3425,3.6374,4.0982,4.8762,4.9684,5.0985,5.4848,5.6933,5.8157,5.8291,5.9633,6.0452,6.0452,6.0452,6.0385,6.0283,6.0385,6.0047,5.9201,5.9167,5.8829,5.8084,5.7949,5.7881,5.7881,5.7881,5.7881,5.7881,5.7239,5.7306,5.7814,5.6596,5.5987,5.5886,5.6021,5.5547,5.4905,5.6258,5.5886,5.4837,5.6833,5.6359,5.5179,0.0,0.0,0.0,0.0,0.0,0.0,0.0,0.0,0.0,0.0,0.0,0.0,0.0,0.0,0.0,0.0,0.0,0.0,0.0,0.0,2.0576,2.0759,2.0988,2.1402,2.1965,2.2889,2.3495,2.3671,2.5365,2.5642,2.4609,2.4677,2.4017,2.2689,2.1669,2.0951,2.0474,2.0107,1.9583,1.9019,0.0,0.0,0.0,0.0,0.0,0.0,0.0,0.0,0.0,0.0,1.8606,1.9113,2.0297,0.0,0.0,0.0,0.0,0.0,2.353,2.5497,2.6818,2.4867,2.662,2.8625,2.7844,2.7077,2.6836,2.7745,2.7956,2.8567,3.0393,3.1343,3.3246,3.7491,4.033,4.3747,4.8776,4.9789,5.1366,5.5114,5.6624,5.7836,5.8991,5.9708,6.0114,6.0114,6.0114,6.0114,6.0114,6.0114,5.9776,5.9032,5.9032,5.866,5.7881,5.7476,5.7306,5.7306,5.69,5.6934,5.7273,5.6562,5.6833,5.7814,5.6359,5.5681,5.5681,5.5681,5.504,5.416,5.5649,5.531,5.4228,5.6055,5.6539,5.6642,0.0,0.0,0.0,0.0,0.0,0.0,0.0,0.0,0.0,0.0,0.0,0.0,0.0,0.0,0.0,0.0,0.0,0.0,0.0,2.0225,2.0924,2.1175,2.1885,2.2282,2.2319,2.3991,2.4932,2.5015,2.6319,2.6571,2.581,2.423,2.3289,2.2864,2.2347,2.1694,2.1061,2.0878,2.0237,1.9357,0.0,0.0,0.0,0.0,0.0,0.0,0.0,0.0,0.0,0.0,0.0,0.0,0.0,0.0,0.0,2.1945,2.2209,2.24,2.282,2.4481,2.6148,2.6393,2.8963,3.1297,3.0963,3.0171,2.9738,3.0535,3.0784,3.1047,3.1779,3.3547,3.6352,4.0994,4.3866,4.6352,4.8715,5.0047,5.1946,5.521,5.6062,5.7205,5.9396,5.9573,5.9505,5.9336,5.9471,5.9438,5.9099,5.9235,5.8998,5.8254,5.8254,5.7983,5.7374,5.6664,5.6461,5.6799,5.6055,5.6021,5.6528,5.5784,5.6156,5.7306,5.5852,5.531,5.5446,5.5277,5.4532,5.3653,5.4938,5.4871,5.4126,5.4905,5.6133,5.7486,0.0,0.0,0.0,0.0,0.0,0.0,0.0,0.0,0.0,0.0,0.0,0.0,0.0,0.0,0.0,0.0,0.0,0.0,0.0,2.0821,2.1443,2.0866,2.2292,2.3618,2.4711,2.4618,2.5182,2.6522,2.7317,2.7295,2.6507,2.5253,2.4462,2.4051,2.3263,2.2896,2.2786,2.2024,2.1208,2.0376,2.0393,0.0,0.0,0.0,0.0,0.0,0.0,0.0,0.0,0.0,0.0,0.0,0.0,0.0,2.1258,2.1547,2.1974,2.268,2.4364,2.5867,2.7197,2.7923,2.8404,2.9462,3.247,3.205,3.1931,3.5054,3.5846,3.5588,3.4306,3.7064,4.0242,4.2439,4.636,4.9847,5.1885,5.2812,5.4027,5.5922,5.6171,5.6696,5.7944,5.8051,5.778,5.7103,5.7679,5.7442,5.6122,5.6664,5.6697,5.5952,5.5918,5.5919,5.5886,5.5141,5.5446,5.6799,5.6055,5.5715,5.5749,5.5006,5.5108,5.5784,5.4296,5.4059,5.4634,5.3957,5.3619,5.3585,5.4363,5.504,5.5377,5.4126,5.4561,5.5891,0.0,0.0,0.0,0.0,0.0,0.0,0.0,0.0,0.0,0.0,0.0,0.0,0.0,0.0,0.0,0.0,0.0,0.0,0.0,2.0372,2.1024,2.1115,2.197,2.3242,2.4953,2.5134,2.5473,2.6015,2.6498,2.6532,2.6132,2.5207,2.4603,2.419,2.3896,2.3492,2.2969,2.2685,2.2061,2.1253,2.0731,2.0616,0.0,0.0,0.0,0.0,0.0,0.0,0.0,0.0,1.8504,1.9012,1.9778,2.0555,2.1245,2.1518,2.1735,2.199,2.2696,2.4715,2.6851,2.7822,2.9179,3.0814,3.2965,3.3665,3.4454,3.6529,3.7336,3.7492,3.6937,3.9066,4.1511,4.3441,4.6764,4.9644,5.1246,5.2861,5.4136,5.4815,5.5484,5.581,5.5558,5.5521,5.5165,5.4262,5.5019,5.5288,5.4719,5.56,5.6021,5.5716,5.5681,5.5681,5.5681,5.4972,5.4871,5.5412,5.4668,5.4566,5.5006,5.4262,5.4566,5.5649,5.416,5.3923,5.4532,5.3788,5.3518,5.3551,5.3822,5.4668,5.5614,5.5074,5.5518,5.6372,0.0,0.0,0.0,0.0,0.0,0.0,0.0,0.0,0.0,0.0,0.0,0.0,0.0,0.0,0.0,0.0,0.0,0.0,1.9279,2.0034,2.0613,2.0903,2.1718,2.2847,2.4377,2.4922,2.5483,2.6125,2.6051,2.5884,2.5542,2.4924,2.4455,2.419,2.419,2.3896,2.3373,2.3373,2.2905,2.2134,2.1538,2.151,0.0,0.0,0.0,0.0,0.0,0.0,0.0,0.0,1.8847,1.9384,2.0149,2.0658,2.1033,2.1324,2.1562,2.1678,2.1552,2.3544,2.5953,2.711,2.9119,3.1469,3.3907,3.5441,3.692,3.8876,3.914,3.9187,3.9652,4.091,4.2342,4.3758,4.7179,4.9749,5.0039,5.2357,5.395,5.3613,5.4865,5.54,5.4685,5.432,5.3738,5.2819,5.3591,5.3902,5.3404,5.4613,5.5243,5.5006,5.5006,5.5006,5.5006,5.4499,5.4262,5.4262,5.3754,5.3754,5.4228,5.3721,5.4059,5.4972,5.3957,5.3788,5.4194,5.3721,5.3518,5.3518,5.3754,5.4465,5.5378,5.558,5.5886,5.6122,0.0,0.0,0.0,0.0,0.0,0.0,0.0,0.0,0.0,0.0,0.0,0.0,0.0,0.0,0.0,0.0,0.0,0.0,1.9331,2.0042,2.0394,2.0128,2.1614,2.2665,2.3082,2.3871,2.5224,2.7175,2.6309,2.5506,2.4797,2.4407,2.419,2.419,2.419,2.419,2.419,2.419,2.3749,2.3006,2.3006,2.2538,2.1812,0.0,0.0,0.0,0.0,0.0,0.0,0.0,1.9624,2.0137,2.0953,2.0899,2.0588,2.0909,2.1486,2.1894,2.1428,2.2763,2.4646,2.5988,2.8,3.0849,3.5459,3.7428,3.9249,4.2638,4.1773,4.0902,4.2422,4.2838,4.3019,4.3277,4.7918,5.0744,4.8588,5.1669,5.3689,5.2605,5.4394,5.5647,5.5647,5.4689,5.3733,5.3008,5.3634,5.3437,5.1951,5.3574,5.4262,5.3518,5.3518,5.3518,5.3518,5.3518,5.3518,5.3518,5.3518,5.3518,5.3518,5.3518,5.3518,5.3518,5.3518,5.3518,5.3518,5.3518,5.3518,5.3585,5.4296,5.4566,5.4668,5.5446,5.5243,5.46,0.0,0.0,0.0,0.0,0.0,0.0,0.0,0.0,0.0,0.0,0.0,0.0,0.0,0.0,0.0,0.0,0.0,0.0,1.9527,1.9729,2.0003,2.0366,2.0653,2.1385,2.264,2.3475,2.442,2.5509,2.4753,2.4364,2.4381,2.4847,2.475,2.4226,2.4787,2.475,2.419,2.419,2.4043,2.3786,2.3226,2.3199,2.3428,0.0,0.0,0.0,0.0,0.0,0.0,0.0,0.0,0.0,2.1123,2.1559,2.1868,2.1199,2.1222,2.1463,2.1339,2.3213,2.5735,2.7813,3.07,3.3904,3.7075,3.8116,3.945,4.3249,4.314,4.2599,4.3051,4.3559,4.3935,4.3998,4.738,4.9684,4.88,5.1529,5.3294,5.2216,5.333,5.3852,5.3119,5.2104,5.1064,5.0097,5.0955,5.1307,5.0887,5.2722,5.3721,5.3518,5.3518,5.3518,5.3518,5.3518,5.3518,5.3518,5.3518,5.3518,5.3518,5.3518,5.3518,5.3518,5.3518,5.3518,5.3518,5.3518,5.3822,5.4228,5.3923,5.4126,5.4668,5.5446,5.5243,5.4668,0.0,0.0,0.0,0.0,0.0,0.0,0.0,0.0,0.0,0.0,2.0308,2.0308,0.0,0.0,0.0,0.0,0.0,0.0,0.0,1.9589,1.9729,2.0013,2.0178,2.1007,2.2659,2.3478,2.4122,2.4552,2.4122,2.3945,2.4006,2.4957,2.5057,2.4517,2.547,2.5448,2.4667,2.4521,2.4288,2.3959,2.3485,2.3558,2.3979,0.0,0.0,0.0,0.0,0.0,0.0,0.0,0.0,0.0,2.1651,2.179,2.1891,2.1488,2.1252,2.1289,2.2319,2.4277,2.6795,3.0095,3.3126,3.6061,3.8931,4.0187,4.1654,4.4855,4.4515,4.3858,4.4366,4.4366,4.4407,4.4646,4.7203,4.8977,4.8488,5.0992,5.2627,5.1993,5.2835,5.3246,5.2592,5.1594,5.0741,5.0055,5.0627,5.1005,5.1005,5.2592,5.3518,5.3518,5.3518,5.3518,5.3518,5.3518,5.3518,5.3518,5.3518,5.3518,5.3518,5.3518,5.3518,5.3518,5.3518,5.3518,5.3518,5.3518,5.3754,5.416,5.3991,5.4397,5.5141,5.5886,5.5683,5.5108,0.0,0.0,0.0,0.0,0.0,0.0,0.0,0.0,0.0,0.0,2.0308,2.0308,0.0,0.0,0.0,0.0,0.0,0.0,0.0,1.9616,1.9527,1.9323,2.0152,2.1318,2.2859,2.3749,2.419,2.419,2.419,2.4026,2.3721,2.4923,2.5267,2.4852,2.6045,2.6098,2.5291,2.4925,2.436,2.3721,2.3721,2.3721,2.3753,2.4056,0.0,0.0,0.0,0.0,0.0,0.0,0.0,0.0,2.2313,2.1771,2.1263,2.1774,2.1357,2.1315,2.3887,2.5531,2.7649,3.2407,3.528,3.7764,4.0935,4.303,4.4825,4.6591,4.5633,4.4855,4.6022,4.5214,4.4586,4.5185,4.7272,4.8528,4.7907,5.0166,5.1864,5.193,5.2668,5.3214,5.3281,5.225,5.1579,5.1579,5.1684,5.1789,5.1688,5.277,5.3382,5.3382,5.3348,5.3382,5.3518,5.3382,5.3382,5.3518,5.345,5.345,5.3518,5.3518,5.3518,5.3518,5.3518,5.3518,5.3518,5.3518,5.3551,5.3653,5.4262,5.4938,5.5683,5.6359,5.6156,5.5478,0.0,0.0,0.0,0.0,0.0,0.0,0.0,0.0,0.0,0.0,0.0,0.0,0.0,0.0,0.0,0.0,0.0,0.0,0.0,1.9756,1.9625,1.9294,2.0747,2.1702,2.2069,2.3456,2.419,2.419,2.419,2.4026,2.3721,2.5497,2.5486,2.4057,2.58,2.5805,2.4437,2.4091,2.3866,2.3721,2.3721,2.3721,2.3753,2.4056,2.4161,0.0,0.0,0.0,0.0,0.0,0.0,0.0,2.2313,2.2267,2.2117,2.1424,2.1178,2.1663,2.3996,2.5202,2.7171,3.2886,3.7349,4.0905,4.318,4.4018,4.4287,4.4157,4.5053,4.5813,4.5574,4.5274,4.5125,4.5274,4.7043,4.8364,4.8205,5.0004,5.1563,5.2135,5.1261,5.0819,5.1418,5.0007,4.9066,4.9066,5.0275,5.0766,5.0171,5.1698,5.257,5.257,5.1995,5.23,5.3484,5.23,5.23,5.3484,5.2875,5.2875,5.3518,5.3518,5.3518,5.3518,5.3518,5.3518,5.3518,5.3518,5.3856,5.4329,5.389,5.4194,5.4871,5.5006,5.46,5.4059,0.0,0.0,0.0,0.0,0.0,0.0,0.0,0.0,0.0,0.0,0.0,0.0,0.0,0.0,0.0,0.0,0.0,0.0,0.0,0.0,1.9663,1.9294,2.0894,2.1812,2.1812,2.3391,2.419,2.419,2.419,2.4026,2.3721,2.5288,2.5596,2.4899,2.6092,2.6135,2.5307,2.4599,2.3959,2.3488,2.3621,2.3599,2.3522,2.4006,2.4112,2.3878,2.3362,0.0,0.0,0.0,0.0,0.0,0.0,0.0,2.2079,2.1842,2.132,2.1491,2.4572,2.5959,2.8128,3.4743,3.8631,4.1354,4.3,4.3629,4.3708,4.3349,4.4605,4.5723,4.5364,4.5304,4.535,4.5475,4.7049,4.834,4.845,5.0059,5.132,5.1725,5.0994,5.0627,5.0994,5.0219,4.9678,4.9678,5.0522,5.0826,5.0426,5.1294,5.1792,5.1792,5.142,5.1589,5.2401,5.1591,5.1591,5.2401,5.2334,5.2739,5.3518,5.3518,5.3518,5.3518,5.3518,5.3518,5.3518,5.3518,5.3721,5.4025,5.3653,5.3957,5.46,5.46,5.4363,5.4093,0.0,0.0,0.0,0.0,0.0,0.0,0.0,0.0,0.0,0.0,0.0,0.0,0.0,0.0,0.0,0.0,0.0,0.0,0.0,0.0,0.0,1.9551,2.1115,2.1996,2.1996,2.3456,2.417,2.4122,2.4122,2.4091,2.403,2.4965,2.5538,2.5805,2.6206,2.6319,2.6114,2.5107,2.4154,2.3294,2.3588,2.3533,2.334,2.3976,2.4026,2.3753,2.3421,2.3069,2.2733,2.2467,0.0,0.0,0.0,0.0,2.1804,2.229,2.1504,2.1325,2.5099,2.7352,3.0101,3.6178,3.899,4.0546,4.1782,4.2521,4.2961,4.2961,4.4047,4.4915,4.4825,4.4706,4.473,4.511,4.6539,4.7745,4.8228,4.9656,5.0744,5.098,5.075,5.0619,5.0754,5.0653,5.0586,5.0586,5.085,5.098,5.0845,5.0947,5.1014,5.1014,5.0913,5.0914,5.1185,5.098,5.098,5.1217,5.1826,5.2469,5.3112,5.3112,5.3247,5.3518,5.3518,5.3518,5.3518,5.3518,5.3518,5.3518,5.3518,5.3856,5.4397,5.4397,5.4397,5.4397,0.0,0.0,0.0,0.0,0.0,0.0,0.0,0.0,0.0,0.0,2.0308,2.0308,0.0,0.0,0.0,0.0,0.0,0.0,2.0784,0.0,0.0,2.0364,2.1942,2.2822,2.2822,2.3749,2.4046,2.3774,2.3774,2.4273,2.5255,2.5357,2.5081,2.4584,2.527,2.5191,2.4501,2.4055,2.3761,2.3631,2.3664,2.3653,2.3653,2.4046,2.417,2.4112,2.3764,2.3432,2.3081,2.2746,2.2487,0.0,0.0,0.0,2.2137,2.1819,2.1587,2.2005,2.4688,2.8996,3.3066,3.4653,3.7285,3.9738,4.0487,4.1175,4.1654,4.1654,4.2671,4.3419,4.289,4.2321,4.2206,4.2983,4.3983,4.5167,4.6586,4.7684,4.8815,5.0101,4.8957,4.8332,4.8994,4.8464,4.8101,4.8101,4.9417,4.9965,4.9323,4.9898,5.0236,5.0236,4.9627,4.9932,5.1217,4.9932,4.9932,5.1185,5.1319,5.142,5.1522,5.1522,5.2266,5.3518,5.3518,5.3518,5.3518,5.3518,5.3518,5.3518,5.3518,5.3551,5.3653,5.3653,5.3653,5.3653,0.0,0.0,0.0,0.0,0.0,0.0,0.0,0.0,0.0,0.0,0.0,2.1696,0.0,0.0,0.0,2.1541,2.1369,2.1318,2.1559,2.1713,2.1629,2.1253,2.2382,2.3006,2.3006,2.3605,2.3837,2.3721,2.3511,2.4263,2.5847,2.6009,2.6521,2.7222,2.6442,2.6135,2.6135,2.462,2.3858,2.3732,2.3888,2.3858,2.3753,2.4056,2.419,2.4234,2.4324,2.3995,2.3457,2.3435,2.3032,2.2487,2.2349,0.0,0.0,0.0,2.1809,2.2214,2.4934,2.7789,3.0603,3.318,3.4994,3.6567,3.8332,3.923,3.9828,4.0187,4.0427,4.0816,4.1692,4.1602,4.1879,4.3266,4.3822,4.4689,4.6429,4.7019,4.753,4.8173,4.7597,4.7283,4.7584,4.7718,4.7751,4.7751,4.8834,4.9357,4.9018,4.8917,4.9052,4.9458,4.8376,4.8477,4.9965,4.8917,4.912,5.0574,5.0168,5.0405,5.1217,5.0777,5.1183,5.2232,5.2672,5.2841,5.2875,5.3315,5.3518,5.3518,5.3518,5.3518,5.3518,5.3518,5.3518,5.3518,0.0,0.0,0.0,0.0,0.0,0.0,0.0,0.0,0.0,0.0,0.0,0.0,0.0,0.0,0.0,0.0,2.2248,2.2099,2.1954,2.2258,2.2326,2.2106,2.2868,2.3299,2.3299,2.3664,2.3753,2.3577,2.3507,2.4441,2.6258,2.6809,2.8164,3.0083,2.819,2.7458,2.754,2.5627,2.4667,2.4428,2.4258,2.4036,2.3847,2.4085,2.4337,2.4537,2.4917,2.4726,2.4341,2.4474,2.3928,2.311,2.2917,2.2617,0.0,0.0,0.0,2.2327,2.4526,2.6104,2.7875,3.0943,3.2583,3.397,3.614,3.7282,3.809,3.8756,3.8482,3.8601,4.0098,4.0367,4.1024,4.2962,4.3293,4.4042,4.6241,4.6515,4.6583,4.6786,4.6786,4.6786,4.6786,4.7293,4.7631,4.7631,4.8139,4.8443,4.8443,4.7936,4.7868,4.8409,4.7361,4.7327,4.8443,4.8105,4.8477,4.9526,4.9187,4.9593,5.0642,5.0067,5.0135,5.071,5.1826,5.23,5.2367,5.3179,5.3518,5.3518,5.3518,5.3518,5.3518,5.3518,5.3518,5.3518,0.0,0.0,0.0,0.0,0.0,0.0,0.0,0.0,0.0,0.0,0.0,0.0,2.2528,2.2331,2.2215,2.2215,2.2092,2.1946,2.1801,2.3245,2.3749,2.2969,2.3712,0.0,2.4153,2.4143,2.3847,2.3224,2.3895,2.5094,2.6708,2.7868,2.9588,3.1602,3.0066,2.8553,2.7212,2.6702,2.6455,2.6334,2.4814,2.418,2.417,2.419,2.4677,2.5338,2.5364,2.5626,2.5983,2.5984,2.5231,2.4322,2.4309,2.3543,2.2669,0.0,0.0,0.0,2.2736,2.4847,2.7051,2.7273,3.029,3.3446,3.426,3.5523,3.6683,3.7391,3.7494,3.7494,3.7584,3.7614,3.8378,4.0769,4.118,4.2254,4.5332,4.5771,4.6007,4.6718,4.6786,4.6786,4.6786,4.6819,4.6853,4.6853,4.6887,4.6921,4.6921,4.6887,4.6853,4.6921,4.6819,4.6819,4.6921,4.7597,4.7939,4.8007,4.868,4.9052,4.912,4.9086,4.9086,4.9221,5.1386,5.23,5.2367,5.3179,5.3518,5.3518,5.3518,5.3518,5.3518,5.3518,5.3518,5.3518,0.0,0.0,0.0,0.0,0.0,0.0,0.0,0.0,0.0,0.0,0.0,0.0,0.0,2.3798,2.367,2.367,2.3511,2.3382,2.3355,2.3859,2.408,2.3786,2.4043,2.419,2.419,2.3996,2.3642,2.32,2.3766,2.4695,2.6015,2.7402,2.8476,2.9211,2.9207,2.8856,2.8208,2.6054,2.5422,2.5769,2.419,2.3966,2.4577,2.4646,2.4965,2.5521,2.6586,2.6706,2.6476,2.6789,2.6249,2.5458,2.5227,2.4875,2.4417,2.375,2.332,2.3103,2.3103,2.3984,2.5195,2.6548,2.8414,3.0236,3.1356,3.2757,3.3838,3.409,3.4542,3.4891,3.4891,3.6267,3.7873,3.9279,3.9944,4.0873,4.2555,4.3228,4.3606,4.3876,4.391,4.391,4.391,4.479,4.5159,4.4597,4.5946,4.6544,4.5993,4.6047,4.6312,4.6786,4.5872,4.5602,4.6075,4.7263,4.7906,4.7906,4.8646,4.9018,4.9018,4.9018,4.9018,4.9086,5.0338,5.0879,5.098,5.2232,5.2739,5.2773,5.3315,5.3518,5.3518,5.3518,5.3518,5.3518,0.0,0.0,0.0,0.0,0.0,0.0,0.0,0.0,2.5248,2.5367,0.0,0.0,0.0,0.0,2.4698,2.4401,2.4294,2.419,2.419,2.419,2.419,2.419,2.419,2.419,2.419,2.3858,2.3533,2.32,2.3916,2.4717,2.5626,2.7114,2.7925,2.8197,2.8485,2.8681,2.8695,2.647,2.584,2.618,2.4615,2.4537,2.542,2.5743,2.6225,2.695,2.7996,2.8114,2.779,2.7838,2.7343,2.6642,2.6429,2.6068,2.5572,2.4646,2.3991,2.3565,2.3454,2.3502,2.3983,2.5605,2.6864,2.7992,2.9387,3.0647,3.168,3.2155,3.2527,3.2913,3.3366,3.4719,3.633,3.8122,3.884,3.9734,4.1337,4.1765,4.2011,4.226,4.2286,4.2286,4.2286,4.3227,4.3682,4.334,4.4774,4.5433,4.4833,4.4875,4.5026,4.5263,4.4316,4.4181,4.4925,4.6177,4.7056,4.7564,4.8274,4.8781,4.9018,4.9018,4.9018,4.9018,4.9526,4.9864,5.0202,5.142,5.1928,5.2029,5.2807,5.3112,5.3145,5.3416,5.3518,5.3518,0.0,0.0,0.0,0.0,0.0,0.0,0.0,0.0,2.5272,2.6072,0.0,0.0,0.0,0.0,0.0,2.43,2.4226,2.4226,2.419,2.419,2.419,2.419,2.419,2.419,2.419,2.3858,2.3533,2.3224,2.4439,2.5197,2.5626,2.708,2.818,2.8908,2.8112,2.8032,2.8442,2.7991,2.7869,2.7798,2.6139,2.5957,2.6775,2.7414,2.8493,2.9548,2.9529,2.9797,3.0063,2.9294,2.8487,2.7849,2.7824,2.7059,2.6045,2.5357,2.4649,2.3963,0.0,0.0,0.0,2.4305,2.5591,2.7026,2.8484,2.9401,3.0346,3.1787,3.1628,3.167,3.3054,3.2846,3.3602,3.7167,3.7738,3.8736,4.1728,4.1588,4.1449,4.2139,4.2219,4.2219,4.2219,4.2252,4.2557,4.3247,4.3341,4.3375,4.3314,4.3341,4.3064,4.232,4.2286,4.2658,4.3375,4.4181,4.5326,4.6786,4.7564,4.8274,4.8984,4.8984,4.9018,4.9018,4.9018,4.939,5.0101,5.0879,5.1151,5.1252,5.2029,5.23,5.2435,5.3213,5.3518,5.3518,0.0,0.0,0.0,0.0,0.0,2.4948,2.4948,2.4908,2.5083,0.0,0.0,0.0,2.6284,2.6287,2.5952,2.5154,2.5081,2.4824,2.4226,2.419,2.419,2.419,2.419,2.419,2.419,2.3858,2.3809,2.3989,2.4669,2.5197,2.5642,2.6556,2.7131,2.7351,2.7097,2.708,2.7146,2.6507,2.719,2.8459,2.5838,2.6304,2.8532,2.7709,2.8107,2.916,2.9712,3.0015,3.0026,2.9233,2.9053,2.9049,2.8759,2.8263,2.7619,2.6905,2.6166,2.5447,2.4793,0.0,0.0,0.0,0.0,0.0,2.6419,2.7538,2.8596,2.9015,2.9421,2.9973,3.091,3.0995,3.1751,3.4362,3.6051,3.7345,3.8186,3.9501,4.0482,4.0696,4.0722,4.0722,4.0722,4.117,4.1305,4.0895,4.1957,4.2347,4.1697,4.2259,4.2489,4.2286,4.2286,4.2658,4.3375,4.4181,4.506,4.6007,4.7263,4.8007,4.821,4.8781,4.9018,4.9018,4.9018,4.912,4.9357,5.0101,5.071,5.1252,5.2029,5.2672,5.3179,5.3416,5.3518,5.3518,0.0,0.0,0.0,2.4847,2.5125,2.5205,2.4834,2.5317,2.5797,0.0,0.0,0.0,2.6633,2.6356,2.6016,2.5677,2.5652,2.5523,2.5207,2.4887,2.4627,2.4506,2.4178,2.407,2.4223,2.3944,2.406,2.4581,2.502,2.5388,2.5642,2.6353,2.6691,2.6691,2.6691,2.6691,2.6691,2.6573,2.7283,2.8349,2.659,2.7589,3.0101,2.9573,3.0076,3.1148,3.1585,3.1635,3.136,3.0298,2.9651,2.9281,2.8893,2.859,2.8317,2.7886,2.7222,2.6513,2.577,2.5259,2.4956,2.4958,0.0,0.0,2.6013,2.6753,2.7499,2.7798,2.8021,2.8501,2.9498,2.954,3.0002,3.1883,3.377,3.5519,3.7064,3.8136,3.9061,3.9969,4.0113,4.0113,4.0113,4.0493,4.065,4.0467,4.1305,4.1627,4.1133,4.1271,4.1399,4.1399,4.1399,4.1745,4.2489,4.3234,4.4181,4.5263,4.6413,4.7158,4.7462,4.8206,4.8545,4.8578,4.8883,4.9018,4.9052,4.9458,4.9898,5.0371,5.1082,5.186,5.2604,5.2909,5.3213,5.3518,0.0,0.0,2.476,2.47,2.5369,2.5638,2.4918,2.5927,2.6812,0.0,2.7205,2.7297,2.6998,2.6378,2.6109,2.6308,2.6237,2.6296,2.6582,2.5847,2.5266,2.4964,2.4269,2.4086,2.4436,2.416,2.44,2.5112,2.5444,2.5642,2.5744,2.6387,2.6691,2.6691,2.6793,2.6826,2.686,2.7621,2.7993,2.806,2.7959,2.9364,3.1495,3.1989,3.2949,3.4007,3.3948,3.3701,3.3143,3.1648,3.0254,2.9107,2.869,2.8567,2.8576,2.8557,2.8041,2.7361,2.6624,2.6135,2.5768,2.5707,2.6028,0.0,2.6603,2.6741,2.6996,2.7553,2.7229,2.7273,2.8622,2.8359,2.8433,2.9835,3.1209,3.3322,3.6982,3.7095,3.7529,3.9488,3.9808,3.991,3.9977,3.9977,4.0282,4.1035,4.1068,4.1068,4.1068,4.0485,4.0113,4.0113,4.0113,4.0426,4.1204,4.1847,4.2929,4.4479,4.5229,4.5974,4.6684,4.7462,4.78,4.7804,4.8578,4.8883,4.8883,4.8984,4.9052,4.9187,4.983,5.0608,5.142,5.2063,5.2807,5.3518,0.0,2.4084,2.4456,2.42,2.4644,2.499,2.4887,2.5623,2.6413,2.7053,2.8027,2.8613,2.8576,2.8921,2.8956,2.8378,2.7805,2.7231,2.6632,2.589,2.545,2.5387,2.5232,2.5207,2.527,2.4948,2.5147,2.5878,2.5682,2.5913,2.6488,2.6623,2.6691,2.6725,2.7334,2.7587,2.7621,2.8416,2.9093,2.96,2.8991,3.0446,3.2848,3.1799,3.23,3.3535,3.3515,3.3087,3.2359,3.1113,3.0508,3.0173,2.9569,2.9533,2.9722,2.9457,2.9024,2.857,2.8107,2.7488,2.6839,2.6238,2.6799,0.0,2.6461,2.6974,2.7452,2.6996,2.6809,2.7009,2.7848,2.7538,2.761,2.899,2.9609,3.0932,3.3961,3.578,3.6951,3.7415,3.7956,3.8565,3.914,3.9208,3.9512,4.0282,4.0316,4.0316,4.0316,4.018,4.0113,4.0113,4.0113,4.0426,4.1204,4.1339,4.2151,4.3639,4.4418,4.5196,4.594,4.6684,4.7022,4.7056,4.78,4.8108,4.8173,4.8781,4.9357,4.9898,5.0033,5.0913,5.2097,5.2266,5.2807,5.3518,2.388,2.4113,2.4367,2.4403,2.4946,2.5362,2.5218,2.617,2.7063,2.7442,2.8523,2.9196,2.9001,2.9349,2.945,2.9212,2.8844,2.8572,2.8367,2.7606,2.7112,2.6938,2.6225,2.6054,2.6623,2.6124,2.6407,2.7553,2.7369,2.7469,2.7859,2.7435,2.7266,2.7249,2.7655,2.779,2.7891,2.9059,2.977,3.0074,2.9702,3.1089,3.3322,3.2577,3.322,3.445,3.4066,3.3457,3.2584,3.0897,3.0614,3.0779,3.0158,3.003,3.0275,3.0903,3.0517,2.9739,2.8941,2.8881,2.8764,2.765,2.803,0.0,0.0,2.7457,2.7486,2.73,2.6962,2.6793,2.7199,2.7007,2.7045,2.7725,2.8259,2.9189,3.1008,3.3173,3.4711,3.5059,3.5757,3.6332,3.6705,3.7449,3.8362,3.9469,3.9571,3.9706,4.0079,4.0113,4.0113,4.0113,4.0113,4.0282,4.0629,4.1035,4.1779,4.2861,4.3639,4.4418,4.5162,4.5906,4.6244,4.6312,4.7428,4.7906,4.7939,4.8714,4.9221,4.956,4.956,5.0439,5.1758,5.1758,5.2503,5.3518,2.4274,2.4251,2.4403,2.4655,2.5446,2.5964,2.5852,2.7084,2.8035,2.8132,2.8997,2.9453,2.9046,2.9145,2.9393,2.9781,2.9438,2.9487,3.0255,2.9292,2.8556,2.8283,2.7252,2.7023,2.779,2.7368,2.7757,2.901,2.901,2.901,2.8976,2.8349,2.8027,2.8027,2.8196,2.8331,2.8534,2.9785,3.0412,3.0514,3.0378,3.1461,3.322,3.3355,3.4213,3.5295,3.4539,3.3998,3.3288,3.1055,3.0784,3.1298,3.0568,3.036,3.0619,3.1859,3.1527,3.0547,2.9561,3.0102,3.0579,2.8882,2.9198,2.963,0.0,0.0,0.0,2.7572,2.7097,2.6691,2.6691,2.6691,2.6657,2.6522,2.7232,2.7925,2.8299,3.0049,3.1677,3.2651,3.3423,3.3964,3.4269,3.5656,3.7134,3.8464,3.8565,3.8962,3.9842,3.991,3.9943,4.0113,4.0113,4.0113,4.0113,4.0696,4.1339,4.2083,4.2861,4.3606,4.4384,4.5162,4.55,4.5568,4.7056,4.7669,4.7767,4.8646,4.9018,4.9018,4.9018,4.9898,5.1185,5.1185,5.2198,5.3518,2.4346,2.4507,2.4644,2.4406,2.5302,2.6308,2.6983,2.7801,2.8567,2.9225,2.9743,2.9758,2.9077,2.9567,3.0262,3.0963,2.9166,2.8879,3.0938,2.9084,2.7912,2.786,2.8386,2.8402,2.7824,2.8416,2.8807,2.901,2.901,2.901,2.901,2.8908,2.8874,2.8908,2.9567,3.0209,3.0818,3.0987,3.1427,3.1989,3.1326,3.1616,3.2496,3.3152,3.3897,3.4539,3.3795,3.3897,3.4032,3.1799,3.1582,3.1967,3.0903,3.0795,3.1052,3.0872,3.0716,3.0526,3.0115,3.0829,3.115,2.895,2.9746,3.0391,2.7967,0.0,2.7589,2.6928,0.0,2.6691,2.6691,0.0,0.0,2.5845,2.6877,2.7384,2.6184,2.6776,2.8142,3.0224,3.1123,3.207,3.3389,3.4856,3.6096,3.6998,3.7066,3.7675,3.9039,3.9106,3.9436,4.0079,4.0113,4.0113,4.0113,4.018,4.062,4.1339,4.2049,4.2828,4.3572,4.435,4.4716,4.4818,4.6278,4.6921,4.7022,4.8443,4.9018,4.9018,4.9018,4.9898,5.1185,5.1185,5.2198,5.3518,2.5044,2.5223,2.5673,2.622,2.6565,2.7078,2.8117,2.9655,3.0627,3.0491,3.1749,3.2544,3.2226,3.2476,3.2611,3.2476,3.1576,3.1089,3.119,3.0311,2.977,2.977,2.9702,2.9668,2.977,2.9668,2.9837,3.0296,3.0296,3.0296,3.0262,2.9837,2.9634,2.9634,2.9973,3.0277,3.0615,3.1481,3.2022,3.2327,3.2408,3.2408,3.2395,3.3119,3.3863,3.4336,3.3186,3.322,3.3592,3.1799,3.1684,3.2292,3.2094,3.1818,3.1657,3.2232,3.1882,3.1182,3.0607,3.1108,3.1356,2.9555,2.9883,3.0143,2.8391,2.773,2.7467,2.7351,0.0,0.0,0.0,0.0,0.0,0.0,2.6488,2.6793,2.5744,2.5879,2.659,2.7943,2.8383,2.9499,3.1901,3.3085,3.4167,3.5374,3.5859,3.6569,3.7675,3.8531,3.914,3.9445,3.9876,4.0113,4.0113,4.0113,4.046,4.1204,4.1508,4.2286,4.3409,4.3741,4.4147,4.4682,4.5703,4.638,4.6887,4.7936,4.8612,4.9018,4.9018,4.9898,5.1185,5.1185,5.2198,5.3518,2.6157,2.6285,2.6848,2.794,2.7898,2.8066,2.9148,3.1007,3.2124,3.1582,3.3085,3.4201,3.4201,3.4201,3.4134,3.4032,3.3457,3.2814,3.2138,3.1732,3.1326,3.092,3.0987,3.0987,3.0886,3.0784,3.0852,3.119,3.119,3.119,3.119,3.0649,3.0412,3.0412,3.0615,3.0717,3.0784,3.2036,3.2598,3.2666,3.3186,3.3186,3.2936,3.3051,3.3558,3.4032,3.2767,3.2666,3.2882,3.163,3.1684,3.234,3.2513,3.2298,3.2094,3.279,3.2349,3.1538,3.0971,3.1366,3.1572,3.0109,3.0108,3.0138,2.8918,2.818,2.7755,2.7792,2.735,0.0,0.0,0.0,2.6454,2.5728,0.0,2.615,2.5406,2.5304,2.5507,2.6015,2.6471,2.7638,3.004,3.0973,3.2022,3.3457,3.41,3.5013,3.64,3.7686,3.8565,3.8971,3.974,4.0113,4.0113,4.0113,4.0383,4.0899,4.1102,4.188,4.3132,4.3308,4.3842,4.4649,4.5365,4.6109,4.6853,4.7597,4.8311,4.9018,4.9018,4.9898,5.1185,5.1185,5.2063,5.3213,2.7734,2.772,2.8017,2.8824,2.8953,2.9179,2.9939,3.1345,3.2293,3.2259,3.2949,3.3457,3.3457,3.3457,3.3998,3.5397,3.3558,3.2936,3.4303,3.3072,3.165,3.0209,3.2171,3.2307,3.0156,3.1495,3.1887,3.119,3.119,3.119,3.119,3.119,3.1157,3.119,3.1921,3.2226,3.2293,3.3051,3.3355,3.3389,3.3389,3.3795,3.4269,3.2869,3.278,3.3355,3.2564,3.2327,3.2226,3.1481,3.1684,3.2192,3.1501,3.1738,3.2144,3.1486,3.123,3.123,3.1176,3.1738,3.1941,3.0431,3.062,3.0755,2.9299,2.896,2.8723,2.7959,2.779,2.7553,2.6826,2.6691,2.6454,2.5728,2.5642,0.0,0.0,2.4541,2.4541,2.4575,2.5828,2.7029,2.7824,2.8619,2.9721,3.119,3.1326,3.2611,3.5464,3.64,3.754,3.8937,3.974,4.0113,4.0113,4.0113,4.0113,4.0146,4.0865,4.161,4.2354,4.3064,4.3842,4.4649,4.5365,4.6109,4.6853,4.7597,4.8311,4.9018,4.9018,4.9898,5.1185,5.1185,5.1691,5.2469,2.9995,3.0304,3.0368,3.0088,3.0276,3.0852,3.2104,3.3558,3.4844,3.5859,3.7077,3.8227,3.9174,3.9276,3.8903,3.7922,3.7178,3.6096,3.4607,3.4472,3.3626,3.165,3.322,3.3322,3.1596,3.251,3.2645,3.1921,3.1921,3.1684,3.119,3.119,3.119,3.1224,3.1989,3.2022,3.1664,3.3389,3.3863,3.3457,3.3931,3.4573,3.5013,3.3072,3.3072,3.3897,3.2192,3.1887,3.2259,3.2022,3.1785,3.1596,3.1853,3.1752,3.1529,3.1258,3.1549,3.1921,3.1921,3.2462,3.2679,3.119,3.1021,3.0818,2.9348,2.901,2.8755,2.7959,2.8213,2.8213,2.6928,2.7097,2.7181,2.6454,2.5913,2.5338,0.0,2.4068,2.412,2.5101,2.6522,2.7519,2.779,2.8518,2.9416,3.0412,3.092,3.207,3.4044,3.5351,3.6705,3.8227,3.8971,3.9605,4.0113,4.0113,4.0113,4.0113,4.035,4.1102,4.2286,4.2557,4.3369,4.4615,4.4857,4.5669,4.6819,4.7056,4.7902,4.9018,4.9018,4.9323,4.9864,5.0813,5.1995,5.3145,3.1168,3.1871,3.2185,3.1544,3.1739,3.2374,3.3626,3.552,3.7178,3.8159,4.0054,4.1644,4.2591,4.2455,4.1711,4.029,3.9681,3.8328,3.5859,3.6163,3.5419,3.3173,3.4235,3.4066,3.2327,3.3017,3.3051,3.2293,3.2293,3.2056,3.1582,3.1326,3.1326,3.1616,3.2341,3.2293,3.1718,3.366,3.3931,3.3085,3.3795,3.4404,3.4619,3.2936,3.3072,3.3863,3.1901,3.1495,3.1955,3.2226,3.1989,3.1684,3.2158,3.2138,3.1935,3.1684,3.1921,3.2361,3.2632,3.2848,3.278,3.1853,3.1582,3.1278,3.0059,2.9788,2.9567,2.877,2.9025,2.8924,2.7368,2.7486,2.7553,2.6826,2.6082,2.5338,0.0,2.4338,2.4526,2.5507,2.6438,2.7114,2.7384,2.7875,2.8604,2.9634,3.0142,3.1292,3.3288,3.4573,3.6062,3.7855,3.8633,3.9368,4.0079,4.0113,4.0113,4.0113,4.0113,4.0756,4.1914,4.2185,4.2997,4.4181,4.4722,4.5669,4.6819,4.709,4.7902,4.9018,4.9018,4.9154,4.9526,5.0777,5.2198,5.3518,3.1292,3.251,3.3434,3.3233,3.3345,3.3728,3.4539,3.7144,3.9106,3.9242,4.1813,4.3646,4.368,4.3031,4.2523,4.2422,4.1102,3.9623,3.8125,3.8058,3.7043,3.4709,3.5318,3.4675,3.2462,3.3119,3.3119,3.2361,3.2361,3.2327,3.2293,3.1562,3.165,3.2327,3.3119,3.3017,3.2395,3.3884,3.3681,3.2429,3.3152,3.3491,3.3423,3.2699,3.2848,3.3322,3.1765,3.119,3.1292,3.2022,3.2259,3.2293,3.2293,3.2814,3.3254,3.2564,3.2395,3.2564,3.3254,3.2949,3.2462,3.2429,3.2395,3.2158,3.1427,3.1224,3.0987,3.0243,3.0123,2.9683,2.8128,2.7891,2.7655,2.686,2.6116,2.5372,2.4643,2.5169,2.5592,2.5626,2.5626,2.5947,2.6623,2.6691,2.7351,2.8874,2.901,3.0296,3.3254,3.4066,3.552,3.7855,3.8565,3.9334,4.0079,4.0113,4.0113,4.0113,4.0113,4.0493,4.1238,4.1948,4.2692,4.3477,4.5026,4.6109,4.6853,4.7597,4.8311,4.9018,4.9018,4.9458,5.0236,5.098,5.2232,5.3518,3.2848,3.4011,3.5204,3.572,3.4931,3.4844,3.6738,3.8633,4.0629,4.2861,4.5263,4.6925,4.7496,4.6921,4.5805,4.4175,4.3132,4.1711,3.9673,4.0054,3.9106,3.6321,3.6907,3.6265,3.3964,3.4675,3.4404,3.3119,3.3119,3.2848,3.2293,3.2124,3.2124,3.2361,3.3626,3.3491,3.2395,3.3884,3.3964,3.3186,3.3931,3.4539,3.4957,3.4201,3.4404,3.4687,3.2138,3.119,3.1224,3.1427,3.1853,3.2293,3.2293,3.2814,3.3355,3.3186,3.3491,3.3986,3.4167,3.4472,3.4641,3.4066,3.3525,3.2916,3.2192,3.1582,3.0987,3.0243,3.0548,3.0446,2.8958,2.9127,2.9075,2.7722,2.6438,2.5525,2.5338,2.5473,2.5812,2.6353,2.642,2.6488,2.6657,2.6691,2.7351,2.8874,2.901,3.0296,3.3254,3.3592,3.4979,3.7821,3.8091,3.8802,4.0079,4.0113,4.0113,4.0113,4.0113,4.0493,4.1238,4.1948,4.2692,4.3477,4.5026,4.6109,4.6853,4.7597,4.8311,4.9018,4.9018,4.9796,5.1014,5.1758,5.2672,5.3518,3.4238,3.5825,3.7246,3.7686,3.7821,3.8328,3.9614,4.0527,4.2016,4.4722,4.6718,4.797,4.8037,4.797,4.7293,4.5698,4.4553,4.3098,4.1196,4.1136,4.0155,3.7879,3.755,3.6502,3.4539,3.4607,3.4213,3.3423,3.3423,3.3355,3.3241,3.2916,3.2949,3.3309,3.4155,3.4032,3.3275,3.3478,3.3491,3.3423,3.3491,3.3964,0.0,3.4167,3.4269,3.4416,3.2747,3.2171,3.2205,3.251,3.2679,3.2848,3.3173,3.3525,3.3863,3.3863,3.4167,3.4573,3.4878,3.5047,3.5013,3.4607,3.3964,3.322,3.2462,3.1752,3.1089,3.0683,3.092,3.0852,2.9668,2.9837,2.9702,2.8518,2.7638,2.6962,2.6607,2.686,2.6996,2.6725,2.7317,2.7453,2.6759,2.6996,2.7672,2.8908,2.9314,3.0615,3.3254,3.3423,3.4776,3.7821,3.8227,3.8937,4.0079,4.0417,4.0417,4.0113,4.0113,4.0316,4.0764,4.1813,4.2692,4.3477,4.5365,4.6616,4.7327,4.8105,4.8646,4.9018,4.9018,4.9898,5.1219,5.1691,5.2536,5.3518,3.5644,3.7652,3.9106,3.9005,4.0899,4.2523,4.2828,4.3031,4.391,4.6007,4.7564,4.8206,4.7462,4.7699,4.7635,4.6989,4.5529,4.4039,4.2692,4.1813,4.073,3.9343,3.7777,3.622,3.4675,3.3931,3.3491,3.3423,3.3423,3.3795,3.4472,3.3829,3.3897,3.4506,3.4607,3.4539,3.4269,3.3004,3.2767,3.322,3.2767,3.297,3.3558,3.366,3.3694,3.3694,3.3694,3.3558,3.3491,3.4134,3.3998,3.366,3.4303,3.4573,3.4641,3.4641,3.4641,3.4776,3.543,3.5148,3.4641,3.4641,3.41,3.3389,3.2733,3.2022,3.1495,3.1495,3.1393,3.1157,3.0514,3.0243,2.9905,2.9247,2.9077,2.8773,2.806,2.8552,2.8502,2.7182,2.8197,0.0,2.7148,2.7571,2.8247,2.8942,2.9668,3.1021,3.3152,3.3355,3.4742,3.7652,3.8464,3.9368,4.0383,4.0832,4.0832,4.0383,4.018,4.0113,4.0146,4.1636,4.2658,4.3403,4.5771,4.7158,4.7834,4.868,4.9018,4.9018,4.9018,4.9898,5.1185,5.1185,5.2198,5.3518,3.7324,3.8777,3.9715,3.9106,4.1339,4.3842,4.5703,4.7022,4.8173,4.9187,5.0608,5.1251,5.0507,4.892,4.7838,4.7733,4.5805,4.4513,4.4209,4.2888,4.1711,4.0865,3.8836,3.7009,3.543,3.4675,3.3998,3.3423,3.3423,3.3795,3.4506,3.437,3.437,3.4539,3.5148,3.4721,3.3592,3.3322,3.2916,3.2598,3.3681,3.4167,3.437,3.4979,3.5194,3.5194,3.5194,3.4416,3.3423,3.3558,3.3897,3.4336,3.4438,3.4912,3.5397,3.5397,3.5397,3.543,3.5566,3.5498,3.5397,3.5397,3.4844,3.4269,3.4134,3.3525,3.3017,3.3017,3.251,3.2056,3.1955,3.092,3.0074,2.9939,2.9416,2.8942,2.8807,2.8908,2.8908,2.8637,2.884,2.8874,2.8637,2.8705,2.884,2.8976,2.9668,3.0818,3.2429,3.3085,3.4506,3.6931,3.7719,3.9309,4.188,4.0857,4.0857,4.1907,4.0688,4.0113,4.0146,4.1636,4.2354,4.2658,4.5534,4.6853,4.709,4.8443,4.9018,4.9018,4.9018,4.9898,5.1185,5.1185,5.2198,5.3518,3.9471,4.0493,4.1373,4.1839,4.4045,4.635,4.8206,5.0101,5.1048,5.0202,5.0067,4.9898,4.9528,4.8883,4.8477,4.8477,4.6786,4.5568,4.5196,4.3369,4.1982,4.1238,3.9445,3.7753,3.6265,3.5081,3.4336,3.3964,3.3592,3.3964,3.5081,3.5081,3.5081,3.5081,3.543,3.5194,3.4518,3.4134,3.3998,3.4032,3.437,3.4742,3.5115,3.5464,3.56,3.56,3.56,3.5126,3.4518,3.4518,3.4776,3.5081,3.5081,3.5295,3.56,3.56,3.56,3.56,3.56,3.56,3.56,3.56,3.5047,3.4506,3.4506,3.3931,3.3423,3.3423,3.3119,3.2848,3.2848,3.1968,3.136,3.1765,3.119,3.0838,3.1224,3.0973,3.0567,3.0194,3.0161,2.9856,2.9077,2.9687,2.9973,2.96,3.0243,3.1326,3.278,3.322,3.4641,3.728,3.8091,3.9343,4.1162,4.0832,4.0832,4.1162,4.0832,4.0663,4.0696,4.2219,4.3098,4.3633,4.5838,4.7022,4.7462,4.8545,4.9018,4.9018,4.9018,4.9898,5.1185,5.1185,5.2198,5.3518,4.1741,4.2523,4.3436,4.4852,4.6887,4.8781,4.9898,5.2029,5.2875,5.1048,4.9526,4.8582,4.8582,4.8714,4.8781,4.8781,4.7428,4.6312,4.5737,4.3707,4.2185,4.1474,4.002,3.8531,3.7066,3.552,3.4742,3.4742,3.3998,3.4303,3.56,3.5769,3.5836,3.5836,3.5836,3.569,3.5329,3.4912,3.4979,3.5329,3.4912,3.5081,3.56,3.56,3.56,3.56,3.56,3.56,3.56,3.56,3.56,3.56,3.56,3.56,3.56,3.56,3.56,3.56,3.56,3.56,3.56,3.56,3.5182,3.4742,3.4742,3.4269,3.3875,3.3875,3.3761,3.3592,3.3423,3.2916,3.2713,3.3322,3.2916,3.2747,3.3322,3.2882,3.2259,3.1529,3.1427,3.0939,2.9585,3.0514,3.0954,3.0378,3.1021,3.1935,3.3085,3.3457,3.481,3.7324,3.8294,3.9276,4.0316,4.0899,4.1068,4.0823,4.1238,4.1441,4.1474,4.2828,4.3741,4.4418,4.6075,4.7293,4.8206,4.8781,4.9018,4.9018,4.9018,4.9898,5.1185,5.1185,5.2198,5.3518,4.3978,4.4857,4.5635,4.6447,4.8409,4.9932,5.0067,5.2029,5.3416,5.3213,5.186,5.0881,5.0881,4.9156,4.8007,4.8007,4.665,4.5771,4.5703,4.4215,4.2963,4.2219,4.079,3.9334,3.7821,3.6276,3.5498,3.5498,3.4776,3.481,3.5633,3.6332,3.6694,3.6694,3.6694,3.5893,3.4641,3.525,3.5148,3.4641,3.5284,3.5532,3.56,3.56,3.56,3.56,3.56,3.56,3.56,3.56,3.56,3.56,3.56,3.56,3.56,3.56,3.56,3.56,3.56,3.56,3.56,3.56,3.5532,3.5498,3.5498,3.543,3.5397,3.5397,3.4878,3.4201,3.3525,3.3355,3.3322,3.3389,3.3355,3.3322,3.3389,3.3355,3.3017,3.2293,3.2192,3.1887,3.1055,3.1123,3.1157,3.1089,3.1785,3.2259,3.2395,3.3681,3.4844,3.5769,3.7246,3.9005,4.1068,4.117,4.1847,4.3071,4.2489,4.2185,4.2219,4.3031,4.3443,4.3612,4.5838,4.7597,4.8917,4.8984,4.9018,4.9018,4.9018,4.9898,5.1185,5.1185,5.2198,5.3518,4.6911,4.7124,4.753,4.9154,4.9796,5.0541,5.1928,5.2909,5.3518,5.3518,5.2164,5.1185,5.1185,4.9627,4.8578,4.8578,4.7225,4.6346,4.6346,4.4079,4.2625,4.2286,4.0891,3.9639,3.8565,3.7516,3.6772,3.6332,3.5994,3.6028,3.6332,3.666,3.6535,3.6096,3.6096,3.5757,3.5182,3.5464,3.543,3.5216,3.5464,3.56,3.56,3.56,3.56,3.56,3.56,3.56,3.56,3.56,3.56,3.56,3.56,3.56,3.56,3.56,3.56,3.56,3.56,3.56,3.56,3.56,3.56,3.56,3.56,3.56,3.56,3.56,3.5363,3.5081,3.4754,3.437,3.4201,3.4675,3.437,3.4201,3.4653,3.4336,3.3795,3.3051,3.2564,3.2022,3.1258,3.119,3.136,3.1819,3.2124,3.2496,3.2949,3.3931,3.5047,3.6265,3.7347,3.8768,4.0502,4.1001,4.1711,4.2726,4.2895,4.2963,4.2997,4.3775,4.4587,4.5534,4.6887,4.8037,4.9018,4.9018,4.9018,4.9052,4.9492,5.0304,5.1219,5.1725,5.257,5.3518,4.9306,4.9255,4.9526,5.1522,5.1454,5.1623,5.3247,5.3518,5.3518,5.3518,5.2164,5.1185,5.1185,5.0101,4.9154,4.8714,4.753,4.6718,4.6481,4.4282,4.276,4.232,4.1297,4.0316,3.9343,3.8599,3.7956,3.7472,3.7235,3.7032,3.6795,3.6795,3.6502,3.596,3.6174,3.614,3.5994,3.6174,3.614,3.596,3.596,3.5802,3.56,3.56,3.56,3.56,3.56,3.56,3.56,3.56,3.56,3.56,3.56,3.56,3.56,3.56,3.56,3.56,3.56,3.56,3.56,3.56,3.56,3.56,3.56,3.56,3.56,3.56,3.56,3.56,3.56,3.5182,3.4979,3.5532,3.5182,3.5013,3.5532,3.5148,3.4539,3.3829,3.3254,3.2666,3.1901,3.1833,3.207,3.2598,3.2835,3.3152,3.3694,3.4438,3.5419,3.6761,3.7516,3.8608,4.0096,4.1068,4.188,4.2625,4.3403,4.3775,4.3775,4.4553,4.5737,4.7158,4.7669,4.8342,4.9018,4.9018,4.9018,4.9086,4.9796,5.0541,5.1286,5.2029,5.2807,5.3518,5.0881,5.1183,5.1657,5.3213,5.345,5.3484,5.3518,5.3518,5.3518,5.3518,5.2164,5.1185,5.1185,5.0541,4.9492,4.8041,4.7225,4.6481,4.5771,4.4993,4.3904,4.2354,4.2286,4.1602,4.0113,3.9343,3.8971,3.8971,3.8261,3.7516,3.6795,3.6795,3.6795,3.6829,3.755,3.7483,3.6829,3.755,3.7449,3.6795,3.6795,3.6299,3.56,3.56,3.56,3.56,3.56,3.56,3.56,3.56,3.56,3.56,3.56,3.56,3.56,3.56,3.56,3.56,3.56,3.56,3.56,3.56,3.56,3.56,3.56,3.56,3.56,3.56,3.56,3.56,3.56,3.56,3.56,3.56,3.56,3.56,3.56,3.56,3.5295,3.4573,3.4472,3.4167,3.3457,3.3389,3.3389,3.3389,3.4066,3.4472,3.4472,3.5216,3.596,3.6761,3.7516,3.8608,4.0096,4.1542,4.2658,4.3375,4.4181,4.4581,4.4615,4.5365,4.6515,4.7872,4.7906,4.8342,4.9018,4.9018,4.9018,4.9086,4.9796,5.0541,5.1286,5.2029,5.2807,5.3518,5.2539,5.2773,5.2942,5.3416,5.3518,5.3518,5.3518,5.3518,5.3518,5.3518,5.3078,5.2367,5.1319,5.0101,4.9154,4.8714,4.753,4.6684,4.6481,4.479,4.3572,4.3064,4.2083,4.1339,4.0865,4.0121,3.9503,3.9005,3.9276,3.9005,3.8294,3.8294,3.8024,3.755,3.7787,3.7787,3.7584,3.7821,3.7753,3.7516,3.6998,3.666,3.6366,3.5825,3.56,3.56,3.56,3.56,3.56,3.56,3.56,3.56,3.56,3.56,3.56,3.56,3.56,3.56,3.56,3.56,3.56,3.56,3.56,3.56,3.56,3.56,3.5769,3.6299,3.5994,3.56,3.56,3.56,3.56,3.56,3.56,3.56,3.56,3.56,3.5329,3.4573,3.4506,3.4201,3.3491,3.3423,3.3626,3.41,3.437,3.4506,3.4506,3.5723,3.6535,3.6795,3.8488,3.9851,4.0865,4.232,4.3436,4.4215,4.4993,4.5602,4.6109,4.6853,4.7432,4.7906,4.8443,4.8781,4.9018,4.9018,4.9289,4.983,5.0574,5.1319,5.2063,5.2841,5.3281,5.3518,5.3314,5.3518,5.3518,5.3518,5.3518,5.3518,5.3518,5.3518,5.3518,5.3518,5.3247,5.257,5.132,5.0135,4.9289,4.9018,4.7902,4.709,4.6819,4.5229,4.4012,4.3409,4.2252,4.1474,4.1204,4.0485,3.9876,3.9411,3.9605,3.9445,3.8971,3.8734,3.8328,3.7922,3.8193,3.8328,3.8328,3.8599,3.8565,3.8261,3.7787,3.7472,3.7144,3.6671,3.6445,3.6411,3.6163,3.6062,3.5994,3.5701,3.56,3.5633,3.596,3.5836,3.56,3.56,3.56,3.5667,3.596,3.5836,3.5735,3.6309,3.6265,3.6129,3.6377,3.6265,3.6197,3.6694,3.6163,3.56,3.56,3.5859,3.596,3.5633,3.5836,3.596,3.5633,3.56,3.543,3.4979,3.5182,3.5182,3.4709,3.4945,3.5182,3.5374,3.5622,3.5656,3.5407,3.6288,3.7202,3.8024,3.9377,4.073,4.2016,4.2936,4.3809,4.4615,4.5365,4.6244,4.7225,4.7669,4.8041,4.8342,4.8815,4.9018,4.9018,4.9018,4.9424,5.0135,5.0608,5.142,5.2367,5.2875,5.3247,5.3518,5.3314,5.3518,5.3518,5.3518,5.3518,5.3518,5.3518,5.3518,5.3518,5.3518,5.2807,5.2029,5.1285,5.0541,4.9796,4.9052,4.8342,4.7631,4.6921,4.6143,4.506,4.3612,4.2794,4.2016,4.1305,4.0527,4.0146,4.0113,3.9411,3.9073,3.9039,3.8362,3.8058,3.8091,3.8768,3.9073,3.9106,3.9808,3.9706,3.9073,3.9005,3.8565,3.7889,3.7855,3.7821,3.7719,3.7066,3.6829,3.6761,3.6005,3.5769,3.587,3.6637,3.6366,3.5735,3.5701,3.5667,3.5859,3.6626,3.6299,3.6107,3.755,3.7381,3.7066,3.7821,3.7347,3.6829,3.6931,3.6265,3.5667,3.5667,3.6299,3.6535,3.5735,3.6231,3.6468,3.5701,3.56,3.5633,3.5667,3.6332,3.6829,3.6863,3.7483,3.7652,3.6998,3.755,3.7652,3.7066,3.7032,3.7956,4.0028,4.0231,4.1313,4.3375,4.3443,4.391,4.4784,4.55,4.6616,4.7973,4.7973,4.8376,4.9018,4.9018,4.9018,4.9018,4.9018,4.9458,5.0168,5.0168,5.1082,5.2367,5.2367,5.2875,5.3518,5.3314,5.3518,5.3518,5.3518,5.3518,5.3518,5.3518,5.3518,5.3518,5.3518,5.2807,5.2029,5.1285,5.0541,4.9796,4.9052,4.8342,4.7804,4.7665,4.6413,4.5534,4.5196,4.3876,4.2794,4.2049,4.1305,4.0663,4.0113,3.9943,3.9842,3.9842,3.9673,3.9605,3.9605,3.9774,3.9842,3.9842,4.0045,4.0011,3.9808,3.9233,3.8565,3.7855,3.7246,3.7043,3.7032,3.6863,3.7144,3.7618,3.7415,3.7381,3.7415,3.7584,3.7516,3.7246,3.6671,3.6502,3.6558,3.6761,3.7077,3.7449,3.7821,3.7787,3.7821,3.8565,3.7719,3.7134,3.8227,3.7415,3.6502,3.6502,3.6694,3.6535,3.5735,3.5769,3.5802,3.5633,3.56,3.5825,3.6434,3.6694,3.7032,3.7584,3.7787,3.8058,3.843,3.8125,3.8328,3.9276,3.9343,3.958,4.0087,4.1745,4.2868,4.3375,4.4012,4.4959,4.6278,4.7022,4.7868,4.8748,4.8748,4.8849,4.9018,4.9018,4.9018,4.9018,4.9018,4.9763,5.0947,5.0947,5.1894,5.3213,5.3213,5.3348,5.3518,5.3179,5.3518,5.3518,5.3518,5.3518,5.3518,5.3518,5.3518,5.3518,5.3518,5.2807,5.2029,5.1285,5.0541,4.9796,4.9052,4.8646,4.8139,4.7462,4.665,4.5906,4.5229,4.4045,4.3064,4.232,4.1576,4.0832,4.0113,4.0113,4.0113,4.0113,4.0113,4.0113,4.0113,4.0113,4.0113,4.0113,4.0113,4.0113,4.0079,3.9673,3.9242,3.887,3.8454,3.8319,3.8251,3.7946,3.8058,3.8362,3.8024,3.7922,3.7956,3.8294,3.8159,3.7889,3.7821,3.7574,3.7381,3.7709,3.7855,3.799,3.8328,3.8667,3.9005,3.9436,3.8599,3.8024,3.8836,3.8091,3.728,3.728,3.728,3.7043,3.6265,3.6163,3.6028,3.5633,3.56,3.5926,3.6694,3.71,3.7584,3.8328,3.87,3.8937,3.9005,3.9242,3.9614,4.0062,4.1407,4.1813,4.1128,4.2591,4.3606,4.3944,4.4722,4.5838,4.7327,4.7733,4.8308,4.9018,4.9018,4.9018,4.9018,4.9018,4.9187,4.9492,4.9492,5.0371,5.1691,5.1352,5.2164,5.345,5.3078,5.3179,5.3518,5.311,5.3518,5.3518,5.3518,5.3518,5.3518,5.3518,5.3518,5.3518,5.3518,5.2706,5.1894,5.1252,5.0439,4.9661,4.9052,4.9018,4.8477,4.7192,4.6921,4.6244,4.4987,4.4045,4.32,4.232,4.1474,4.073,4.0113,4.0113,4.0113,4.0113,4.0113,4.0113,4.0113,4.0113,4.0113,4.0113,4.0113,4.0113,4.0113,4.0113,4.0045,3.9943,3.9943,3.9943,3.9842,3.9208,3.9073,3.9073,3.843,3.8227,3.8328,3.8971,3.8734,3.8362,3.8971,3.8734,3.8328,3.887,3.8633,3.8396,3.9005,3.9639,4.0113,4.0113,3.9537,3.9039,3.914,3.8565,3.8058,3.8058,3.799,3.7686,3.7066,3.6795,3.6468,3.6005,3.5836,3.6129,3.7032,3.7686,3.8396,3.9242,3.9884,4.0113,3.9681,4.073,4.1136,4.0637,4.3132,4.4005,4.2692,4.347,4.4248,4.4953,4.5669,4.6684,4.7906,4.8007,4.8477,4.9187,4.9187,4.9221,4.9323,4.9323,4.9695,5.027,5.027,5.1082,5.2232,5.1623,5.2298,5.355,5.2773,5.2975,5.3651,5.328,5.3518,5.3518,5.3518,5.3518,5.3518,5.3518,5.3518,5.3518,5.3518,5.2266,5.1352,5.1185,4.9999,4.912,4.9018,4.9018,4.8917,4.868,4.7496,4.6684,4.6447,4.5156,4.3741,4.232,4.0993,4.0214,4.0113,4.0113,4.0113,4.0113,4.0113,4.0113,4.0113,4.0113,4.0113,4.0113,4.0113,4.0113,4.0113,4.0113,3.974,3.9174,3.9174,3.9174,3.9165,3.9039,3.9377,3.991,3.9808,3.9774,3.9774,3.991,3.9842,3.9774,3.991,3.9842,3.9673,3.914,3.9368,3.9808,3.991,4.0011,4.0113,4.0113,3.9537,3.9174,3.9808,3.9343,3.8836,3.8836,3.8328,3.7855,3.7753,3.6637,3.6174,3.7381,3.7009,3.7134,3.8497,3.8768,3.9343,4.073,4.0967,4.1508,4.2632,4.2354,4.2354,4.2868,4.3978,4.4513,4.4242,4.5534,4.6312,4.6447,4.7192,4.7669,4.7906,4.8545,4.9221,4.9932,4.9932,5.027,5.0879,5.0879,5.0947,5.1048,5.1048,5.1522,5.23,5.2164,5.3062,5.4325,5.3581,5.3778,5.4359,5.3314,5.3518,5.3518,5.3518,5.3518,5.3518,5.3518,5.3518,5.3518,5.3518,5.2503,5.1657,5.1251,5.0236,4.9424,4.9052,4.9018,4.9018,4.9018,4.7597,4.6616,4.621,4.5162,4.4045,4.2929,4.1441,4.0696,4.0696,4.0282,4.0113,4.0113,4.0113,4.0113,4.0113,4.0113,4.0113,4.0113,4.0113,4.0113,4.0113,4.0113,3.991,3.9605,3.9605,3.9605,3.9605,3.9605,3.9808,4.0113,4.0113,4.0113,4.0113,4.0113,4.0113,4.0113,4.0113,4.0113,4.0045,3.9673,3.9842,4.0113,4.0113,4.0113,4.0113,4.0113,3.9842,3.9706,4.0045,3.9842,3.9605,3.9605,3.8971,3.8633,3.9014,3.7797,3.7246,3.8328,3.7855,3.7922,3.9411,3.958,4.0155,4.1644,4.1779,4.2083,4.276,4.3267,4.3701,4.4012,4.5534,4.621,4.5771,4.6447,4.6989,4.7394,4.7733,4.8075,4.8511,4.9255,4.9763,5.0101,5.0507,5.0879,5.1185,5.1185,5.1454,5.1792,5.1792,5.2266,5.2942,5.2942,5.3378,5.3979,5.3651,5.3717,5.3979,5.3348,5.3518,5.3518,5.3518,5.3518,5.3518,5.3518,5.3518,5.3518,5.3518,5.2807,5.2029,5.1285,5.071,4.9999,4.9086,4.9154,4.9187,4.9018,4.7767,4.6718,4.6007,4.4891,4.4045,4.3409,4.2117,4.1373,4.1204,4.0629,4.0282,4.0113,4.0113,4.0113,4.0113,4.0113,4.0113,4.0113,4.0113,4.0113,4.0113,4.0113,4.0113,4.0113,4.0113,4.0113,4.0113,4.0113,4.0113,4.0113,4.0113,4.0113,4.0113,4.0113,4.0113,4.0113,4.0113,4.0113,4.0113,4.0113,4.0113,4.0113,4.0113,4.0113,4.0113,4.0113,4.0113,4.0113,4.0113,4.0248,4.0383,4.0383,3.9884,3.9715,4.0265,3.914,3.8464,3.9377,3.887,3.8971,4.0434,4.0595,4.1128,4.2422,4.2557,4.2692,4.3064,4.4209,4.4953,4.5122,4.6887,4.7733,4.7327,4.7158,4.7428,4.8142,4.8173,4.8545,4.9255,4.983,5.027,5.0608,5.1217,5.1589,5.1758,5.1758,5.2063,5.257,5.257,5.2942,5.3518,5.3518,5.3618,5.3717,5.3551,5.3618,5.3717,5.345,5.3518,5.3518,5.3518,5.3518,5.3518,5.3518,5.3518,5.3518,5.3518,5.2807,5.2029,5.1285,5.1151,5.0574,4.912,4.9627,4.9729,4.9052,4.8274,4.7496,4.6752,4.4654,4.3443,4.3375,4.2625,4.188,4.1204,4.117,4.0764,4.0113,4.0113,4.0113,4.0113,4.0113,4.0113,4.0113,4.0113,4.0113,4.0113,4.0113,4.0113,4.0113,4.0113,4.0113,4.0113,4.0113,4.0113,4.0113,4.0113,4.0113,4.0113,4.0113,4.0113,4.0113,4.0113,4.0113,4.0113,4.0113,4.0113,4.0113,4.0113,4.0113,4.0113,4.0113,4.0113,4.0113,4.0113,4.0629,4.1136,4.1136,4.1068,4.1068,4.1102,3.9884,3.9411,4.0832,4.0392,4.0485,4.1948,4.2117,4.2455,4.324,4.3308,4.391,4.5331,4.5568,4.5906,4.6583,4.7462,4.8206,4.8815,4.8206,4.8173,4.8917,4.8917,4.9289,4.9999,5.0067,5.0811,5.2131,5.2198,5.2638,5.3348,5.3348,5.3382,5.3416,5.3416,5.345,5.3518,5.3518,5.3913,5.4419,5.375,5.3946,5.4419,5.3518,5.3518,5.3518,5.3518,5.3518,5.3518,5.3518,5.3518,5.3518,5.3518,5.3247,5.2739,5.1961,5.1894,5.1488,5.0473,5.0202,4.9965,4.9695,4.8984,4.8037,4.6853,4.5534,4.4857,4.4857,4.3606,4.2861,4.2564,4.1644,4.1068,4.0764,4.0316,4.0113,4.0113,4.0113,4.0113,4.0113,4.0113,4.0113,4.0113,4.0113,4.0113,4.0113,4.0113,4.0113,4.0113,4.0113,4.0113,4.0113,4.0113,4.0113,4.018,4.0629,4.0485,4.018,4.0629,4.1102,4.1441,4.1441,4.079,4.0214,4.0663,4.0764,4.0899,4.1339,4.1441,4.1441,4.1441,4.1677,4.188,4.188,4.188,4.2016,4.2489,4.1711,4.1576,4.3098,4.2625,4.2726,4.4248,4.4418,4.4688,4.5432,4.55,4.5737,4.6346,4.6819,4.7192,4.7496,4.8206,4.8714,4.8984,4.8748,4.8714,4.9018,4.9018,4.9154,4.9424,5.0338,5.1082,5.1657,5.2604,5.3213,5.3518,5.3518,5.3518,5.3518,5.3518,5.3518,5.3518,5.3518,5.3651,5.3881,5.3618,5.3685,5.3881,5.3518,5.3518,5.3518,5.3518,5.3518,5.3518,5.3518,5.3518,5.3518,5.3518,5.3518,5.3179,5.2401,5.2536,5.23,5.1286,5.0744,5.0338,5.0101,4.939,4.8342,4.6853,4.6312,4.5838,4.5365,4.4553,4.3882,4.3375,4.2151,4.1441,4.117,4.0451,4.0113,4.0113,4.035,4.0451,4.0451,4.0451,4.0451,4.0451,4.018,4.0113,4.0146,4.0383,4.0316,4.0146,4.0383,4.0316,4.0113,4.0113,4.0248,4.0527,4.1035,4.1001,4.0891,4.1407,4.188,4.2286,4.2286,4.1568,4.0899,4.1407,4.1542,4.1677,4.2185,4.2286,4.2286,4.2286,4.2489,4.2658,4.2658,4.3031,4.347,4.3741,4.3538,4.3741,4.479,4.4485,4.4621,4.5906,4.6041,4.6244,4.6752,4.6786,4.6887,4.7124,4.7631,4.8007,4.824,4.8748,4.9018,4.9018,4.9018,4.912,4.9357,4.9357,4.9458,4.9729,5.0947,5.1691,5.1961,5.3044,5.3518,5.3518,5.3518,5.3518,5.3518,5.3518,5.3518,5.3518,5.3518,5.3518,5.3518,5.3518,5.3518,5.3518,5.3518,5.3518,5.3518,5.3518,5.3518,5.3518,5.3518,5.3518,5.3518,5.3518,5.3518,5.3213,5.2401,5.301,5.2875,5.132,5.1185,5.0913,5.0135,4.939,4.8342,4.6853,4.6819,4.6109,4.4649,4.5331,4.4959,4.3409,4.2658,4.1914,4.1204,4.0485,4.0113,4.0146,4.0865,4.1204,4.1204,4.1204,4.1204,4.1136,4.0417,4.0113,4.0214,4.0933,4.073,4.0214,4.0933,4.073,4.0113,4.0113,4.0595,4.1204,4.1204,4.1711,4.232,4.2286,4.2286,4.232,4.232,4.232,4.232,4.2286,4.2286,4.232,4.232,4.232,4.232,4.232,4.2929,4.3409,4.3409,4.4688,4.5466,4.475,4.5229,4.5703,4.5737,4.5737,4.6007,4.6718,4.6819,4.6819,4.6819,4.6819,4.7124,4.7838,4.7906,4.824,4.8984,4.9018,4.9018,4.9018,4.9018,4.9357,5.0067,5.0101,5.0473,5.1217,5.1961,5.2706,5.3484,5.3518,5.3518,5.3518,5.3518,5.3518,5.3518,5.3518,5.3518,5.3518,5.3518,5.3518,5.3518,5.3518,5.3518,5.3518,5.3518,5.3518,5.3518,5.3518,5.3518,5.3518,5.3518,5.3518,5.3518,5.3518,5.3518,5.3416,5.3179,5.3382,5.3315,5.2841,5.23,5.1454,5.0168,4.939,4.8578,4.7631,4.7597,4.7124,4.6143,4.5838,4.5229,4.4215,4.347,4.2963,4.2726,4.1982,4.1636,4.1644,4.188,4.1982,4.1982,4.1982,4.1982,4.1948,4.1711,4.1636,4.1644,4.188,4.1813,4.1644,4.188,4.1813,4.1636,4.1636,4.1779,4.1982,4.1982,4.2861,4.3775,4.3234,4.347,4.4039,4.4553,4.4688,4.4418,4.3335,4.3504,4.3904,4.3904,4.4688,4.5297,4.479,4.5263,4.5771,4.5771,4.6143,4.638,4.6177,4.6312,4.665,4.7162,4.7229,4.753,4.8274,4.8342,4.8342,4.8342,4.8342,4.8443,4.868,4.868,4.9221,5.0507,5.0067,4.9763,4.9763,5.027,5.0405,5.0101,5.0101,5.0473,5.1217,5.1961,5.2435,5.2672,5.3247,5.3518,5.3518,5.3518,5.3518,5.3518,5.3518,5.3518,5.3518,5.3518,5.3518,5.3518,5.3518,5.3518,5.3518,5.3518,5.3518,5.3518,5.3518,5.3518,5.3518,5.3518,5.3518,5.3518,5.3518,5.3518,5.3518,5.3518,5.3518,5.3518,5.3518,5.2773,5.1657,5.0202,4.9661,4.912,4.8376,4.8342,4.7868,4.6819,4.665,4.6075,4.5026,4.4248,4.3707,4.3375,4.2658,4.2286,4.2286,4.2591,4.2726,4.2726,4.2726,4.2726,4.2726,4.2422,4.2286,4.232,4.2625,4.2557,4.232,4.2625,4.2557,4.2286,4.2286,4.2489,4.2828,4.3436,4.4282,4.4993,4.479,4.5094,4.5568,4.6007,4.6143,4.5906,4.4993,4.5094,4.5495,4.5495,4.6143,4.665,4.6244,4.6481,4.6786,4.6786,4.7022,4.7259,4.7259,4.7462,4.7834,4.8274,4.8342,4.8511,4.8951,4.9255,4.9323,4.9052,4.9526,4.9864,4.9864,4.9864,5.027,5.1151,5.0777,5.0541,5.0541,5.098,5.115,5.098,5.0947,5.1183,5.1657,5.2401,5.2773,5.2807,5.3281,5.3518,5.3518,5.3518,5.3518,5.3518,5.3518,5.3518,5.3518,5.3518,5.3518,5.3518,5.3518,5.3518,5.3518,5.3518,5.3518,5.3518,5.3518,5.3518,5.3518,5.3518,5.3518,5.3518,5.3518,5.3518,5.3518,5.3518,5.3518,5.3518,5.3518,5.2773,5.1725,5.0371,5.0168,4.9796,4.912,4.9052,4.8376,4.7022,4.7597,4.7225,4.5805,4.506,4.4316,4.3578,4.2861,4.2489,4.2523,4.32,4.3538,4.3511,4.3578,4.3544,4.3443,4.2861,4.2557,4.2557,4.3267,4.3098,4.2591,4.3267,4.3098,4.2523,4.2557,4.3064,4.3849,4.5331,4.5805,4.594,4.6583,4.6786,4.6819,4.6887,4.6887,4.6921,4.6989,4.6989,4.6955,4.6819,4.6887,4.6989,4.6921,4.6955,4.6989,4.6989,4.7564,4.7973,4.7973,4.8578,4.9018,4.9018,4.9052,4.9086,4.9086,4.9729,4.9932,4.9255,5.0405,5.1251,5.1286,5.1251,5.1285,5.142,5.132,5.1319,5.1319,5.1386,5.1691,5.23,5.2367,5.2401,5.2435,5.3145,5.3518,5.3518,5.3518,5.3518,5.3518,5.3518,5.3518,5.3518,5.3518,5.3518,5.3518,5.3518,5.3518,5.3518,5.3518,5.3517,5.3584,5.3518,5.3518,5.3518,5.3518,5.3518,5.3518,5.3518,5.3518,5.3518,5.3518,5.3518,5.3518,5.3518,5.3518,5.3518,5.3518,5.2773,5.2164,5.1826,5.0744,5.0033,4.9864,4.9323,4.8849,4.8545,4.8139,4.7462,4.6549,4.5805,4.5365,4.5196,4.4451,4.4107,4.4107,4.4276,4.4316,4.4378,4.4959,4.4857,4.4378,4.479,4.4621,4.4141,4.4276,4.4215,4.4141,4.4276,4.4242,4.4209,4.4756,4.506,4.5365,4.6278,4.6549,4.6583,4.6752,4.6786,4.6921,4.7496,4.7665,4.78,4.8376,4.8511,4.8206,4.7056,4.7699,4.8376,4.78,4.8139,4.8511,4.8511,4.8646,4.8781,4.8781,4.8917,4.9018,4.9018,4.9492,4.9864,4.9864,5.0507,5.0913,5.0744,5.0982,5.1454,5.2029,5.1555,5.1758,5.2942,5.2401,5.2063,5.2063,5.2672,5.2773,5.23,5.2942,5.3247,5.3247,5.3416,5.3518,5.3518,5.3518,5.3518,5.3518,5.3518,5.3518,5.3518,5.3518,5.3518,5.3518,5.3518,5.3518,5.3518,5.3518,5.3848,5.4275,5.3518,5.3518,5.3518,5.3518,5.3518,5.3518,5.3518,5.3518,5.3518,5.3518,5.3518,5.3518,5.3518,5.3518,5.3518,5.3518,5.3112,5.2706,5.2334,5.1251,5.0473,5.0101,4.939,4.9018,4.9018,4.8612,4.8071,4.7327,4.6955,4.6413,4.5703,4.5297,4.4953,4.4615,4.4987,4.5128,4.5162,4.5906,4.6007,4.5698,4.6075,4.5974,4.5664,4.5664,4.5664,4.5664,4.5664,4.5664,4.5703,4.6075,4.621,4.6346,4.709,4.7327,4.7394,4.7733,4.7834,4.7936,4.8342,4.868,4.9052,4.9424,4.9796,4.9661,4.8173,4.8443,4.8984,4.8951,4.9255,4.9627,4.9999,5.0067,5.0067,5.0067,5.0067,5.0067,5.0067,5.0371,5.0608,5.0608,5.1285,5.1894,5.2266,5.1961,5.2063,5.2807,5.2536,5.2672,5.345,5.3112,5.2875,5.2875,5.3281,5.3315,5.2875,5.3281,5.3518,5.3518,5.3518,5.3518,5.3518,5.3518,5.3518,5.3518,5.3518,5.3518,5.3518,5.3518,5.3684,5.4011,5.3651,5.3913,5.4516,5.4171,5.4482,5.5121,5.3518,5.3518,5.3518,5.3518,5.3518,5.3518,5.3518,5.3518,5.3518,5.3518,5.3518,5.3518,5.3518,5.3518,5.3518,5.3518,5.3518,5.3213,5.257,5.1826,5.1116,5.0507,4.9661,4.9187,4.9187,4.9052,4.8714,4.8075,4.7939,4.7263,4.6075,4.594,4.5568,4.5021,4.5602,4.5906,4.594,4.6684,4.6921,4.6819,4.6921,4.6921,4.6786,4.6786,4.6786,4.6786,4.6786,4.6786,4.6819,4.6955,4.6989,4.7124,4.7868,4.8075,4.821,4.8815,4.9086,4.9187,4.9187,4.9729,5.027,5.027,5.0744,5.0879,4.9661,4.939,4.956,5.0168,5.027,5.0473,5.1116,5.1185,5.1185,5.1185,5.1185,5.1185,5.1185,5.1319,5.1386,5.1386,5.2063,5.2773,5.345,5.2909,5.2773,5.345,5.3518,5.3518,5.3518,5.3518,5.3518,5.3518,5.3518,5.3518,5.3518,5.3518,5.3518,5.3518,5.3619,5.3687,5.3687,5.3551,5.3585,5.3687,5.3551,5.3518,5.3518,5.3651,5.4042,5.4575,5.4042,5.4606,5.5667,5.5179,5.535,5.594,5.3518,5.3518,5.3518,5.3518,5.3518,5.3518,5.3518,5.3518,5.3518,5.3518,5.3518,5.3518,5.3518,5.3518,5.3518,5.3518,5.3518,5.345,5.3348,5.2604,5.2097,5.1995,5.0676,4.9932,4.9932,4.9323,4.8951,4.8849,4.821,4.7804,4.7567,4.6955,4.6583,4.6515,4.6616,4.665,4.6684,4.7462,4.7394,4.6853,4.7496,4.7361,4.6786,4.6786,4.6786,4.6786,4.6786,4.6786,4.6887,4.7564,4.7736,4.7872,4.8612,4.8849,4.8883,4.8984,4.9458,4.9932,4.9932,5.0473,5.1082,5.1082,5.115,5.1151,5.098,5.0913,5.0947,5.1048,5.1082,5.1082,5.1151,5.1185,5.1185,5.1185,5.1185,5.1185,5.1185,5.1758,5.2164,5.2164,5.2841,5.3382,5.3484,5.3416,5.3382,5.3484,5.3518,5.3518,5.3518,5.3518,5.3518,5.3518,5.3518,5.3518,5.3518,5.3518,5.3518,5.3518,5.416,5.4431,5.4431,5.3788,5.3856,5.4397,5.3788,5.3518,5.3551,5.4203,5.4513,5.4634,5.5173,5.5524,5.578,5.6367,5.6491,5.6534,5.4126,5.3788,5.3518,5.3518,5.3518,5.3518,5.3518,5.3856,5.3957,5.3551,5.3856,5.3957,5.3551,5.3518,5.3518,5.3518,5.3518,5.3518,5.3518,5.2739,5.23,5.23,5.1285,5.0507,5.0101,5.0168,4.983,4.9018,4.868,4.8308,4.7872,4.7597,4.7192,4.6819,4.7225,4.7428,4.7462,4.8206,4.8342,4.8071,4.8376,4.8342,4.8037,4.8037,4.8037,4.8037,4.8037,4.8037,4.8071,4.8409,4.8511,4.8646,4.939,4.9593,4.9695,5.0135,5.0473,5.071,5.071,5.1251,5.1826,5.1826,5.2164,5.2503,5.2503,5.2503,5.2367,5.1928,5.1826,5.1961,5.2401,5.2503,5.2503,5.2503,5.2503,5.2503,5.2503,5.2773,5.2976,5.2976,5.3281,5.3518,5.3518,5.3518,5.3518,5.3518,5.3518,5.3518,5.3518,5.3518,5.3518,5.3518,5.3518,5.3518,5.3518,5.3518,5.3721,5.4126,5.4431,5.46,5.46,5.4702,5.4905,5.5175,5.4431,5.4329,5.4722,5.4623,5.5119,5.5872,5.5752,5.5976,5.6519,5.7724,5.8129,5.8202]}]]